<?xml version="1.0" encoding="UTF-8" standalone="no" ?><gpx xmlns="http://www.topografix.com/GPX/1/1" xmlns:gpxx="http://www.garmin.com/xmlschemas/GpxExtensions/v3" xmlns:gpxtrkx="http://www.garmin.com/xmlschemas/TrackStatsExtension/v1" xmlns:wptx1="http://www.garmin.com/xmlschemas/WaypointExtension/v1" xmlns:gpxtpx="http://www.garmin.com/xmlschemas/TrackPointExtension/v1" creator="GPSMAP 64" version="1.1" xmlns:xsi="http://www.w3.org/2001/XMLSchema-instance" xsi:schemaLocation="http://www.topografix.com/GPX/1/1 http://www.topografix.com/GPX/1/1/gpx.xsd http://www.garmin.com/xmlschemas/GpxExtensions/v3 http://www8.garmin.com/xmlschemas/GpxExtensionsv3.xsd http://www.garmin.com/xmlschemas/TrackStatsExtension/v1 http://www8.garmin.com/xmlschemas/TrackStatsExtension.xsd http://www.garmin.com/xmlschemas/WaypointExtension/v1 http://www8.garmin.com/xmlschemas/WaypointExtensionv1.xsd http://www.garmin.com/xmlschemas/TrackPointExtension/v1 http://www.garmin.com/xmlschemas/TrackPointExtensionv1.xsd"><metadata><link href="http://www.garmin.com"><text>Garmin International</text></link><time>2026-08-14T10:52:35Z</time></metadata><trk><name>20260814-ЛИСА6</name><extensions><gpxx:TrackExtension><gpxx:DisplayColor>Magenta</gpxx:DisplayColor></gpxx:TrackExtension><gpxtrkx:TrackStatsExtension><gpxtrkx:Distance>230428.000</gpxtrkx:Distance><gpxtrkx:TotalElapsedTime>219178</gpxtrkx:TotalElapsedTime><gpxtrkx:MovingTime>31105</gpxtrkx:MovingTime><gpxtrkx:StoppedTime>14794</gpxtrkx:StoppedTime><gpxtrkx:MovingSpeed>7.408</gpxtrkx:MovingSpeed><gpxtrkx:MaxSpeed>122.335</gpxtrkx:MaxSpeed><gpxtrkx:MaxElevation>4760.325</gpxtrkx:MaxElevation><gpxtrkx:MinElevation>-1034.476</gpxtrkx:MinElevation><gpxtrkx:Ascent>70870.000</gpxtrkx:Ascent><gpxtrkx:Descent>76969.531</gpxtrkx:Descent><gpxtrkx:AvgAscentRate>0.046</gpxtrkx:AvgAscentRate><gpxtrkx:MaxAscentRate>7.208</gpxtrkx:MaxAscentRate><gpxtrkx:AvgDescentRate>0.050</gpxtrkx:AvgDescentRate><gpxtrkx:MaxDescentRate>-12.058</gpxtrkx:MaxDescentRate></gpxtrkx:TrackStatsExtension></extensions><trkseg><trkpt lat="59.6332413889" lon="31.0314265173"><ele>38.36</ele><time>2026-08-11T21:59:37Z</time></trkpt><trkpt lat="59.6332377009" lon="31.0314401798"><ele>38.38</ele><time>2026-08-11T21:59:54Z</time></trkpt><trkpt lat="59.6332283132" lon="31.0314265173"><ele>37.40</ele><time>2026-08-11T22:00:10Z</time></trkpt><trkpt lat="59.6331988089" lon="31.0314387549"><ele>35.56</ele><time>2026-08-11T22:01:07Z</time></trkpt><trkpt lat="59.6332067717" lon="31.0314114299"><ele>34.32</ele><time>2026-08-11T22:01:58Z</time></trkpt><trkpt lat="59.6332126390" lon="31.0314217396"><ele>34.19</ele><time>2026-08-11T22:02:29Z</time></trkpt><trkpt lat="59.6332024131" lon="31.0314278584"><ele>33.94</ele><time>2026-08-11T22:02:59Z</time></trkpt></trkseg><trkseg><trkpt lat="59.3505214714" lon="34.6994798630"><ele>148.64</ele><time>2026-08-13T22:04:03Z</time></trkpt><trkpt lat="59.3504548352" lon="34.6994735766"><ele>137.93</ele><time>2026-08-13T22:04:34Z</time></trkpt><trkpt lat="59.3505517300" lon="34.6994106285"><ele>159.72</ele><time>2026-08-13T22:05:05Z</time></trkpt><trkpt lat="59.3505938072" lon="34.6994644403"><ele>166.03</ele><time>2026-08-13T22:05:36Z</time></trkpt><trkpt lat="59.3506050389" lon="34.6994623449"><ele>167.51</ele><time>2026-08-13T22:06:06Z</time></trkpt><trkpt lat="59.3506181985" lon="34.6994489338"><ele>168.31</ele><time>2026-08-13T22:06:40Z</time></trkpt><trkpt lat="59.3506205454" lon="34.6994973812"><ele>166.04</ele><time>2026-08-13T22:07:15Z</time></trkpt><trkpt lat="59.3505772110" lon="34.6995342616"><ele>164.35</ele><time>2026-08-13T22:07:46Z</time></trkpt><trkpt lat="59.3505643867" lon="34.6994615067"><ele>163.51</ele><time>2026-08-13T22:08:16Z</time></trkpt><trkpt lat="59.3505887780" lon="34.6993833035"><ele>162.39</ele><time>2026-08-13T22:08:34Z</time></trkpt><trkpt lat="59.3505809829" lon="34.6994831320"><ele>161.57</ele><time>2026-08-13T22:09:03Z</time></trkpt><trkpt lat="59.3506318610" lon="34.6995317470"><ele>161.38</ele><time>2026-08-13T22:09:26Z</time></trkpt><trkpt lat="59.3506475352" lon="34.6995784342"><ele>161.11</ele><time>2026-08-13T22:09:42Z</time></trkpt><trkpt lat="59.3506342918" lon="34.6997029055"><ele>159.94</ele><time>2026-08-13T22:10:02Z</time></trkpt><trkpt lat="59.3506299332" lon="34.6996798553"><ele>158.47</ele><time>2026-08-13T22:10:35Z</time></trkpt><trkpt lat="59.3506345432" lon="34.6997143887"><ele>158.02</ele><time>2026-08-13T22:11:03Z</time></trkpt><trkpt lat="59.3505702540" lon="34.6995738242"><ele>158.49</ele><time>2026-08-13T22:11:24Z</time></trkpt><trkpt lat="59.3505140953" lon="34.6995138098"><ele>158.57</ele><time>2026-08-13T22:11:43Z</time></trkpt><trkpt lat="59.3505324516" lon="34.6995071042"><ele>158.31</ele><time>2026-08-13T22:12:12Z</time></trkpt><trkpt lat="59.3505470362" lon="34.6995124687"><ele>158.47</ele><time>2026-08-13T22:12:43Z</time></trkpt><trkpt lat="59.3505501375" lon="34.6995282266"><ele>158.29</ele><time>2026-08-13T22:12:57Z</time></trkpt><trkpt lat="59.3505352177" lon="34.6994169150"><ele>158.23</ele><time>2026-08-13T22:13:12Z</time></trkpt><trkpt lat="59.3505314458" lon="34.6993806213"><ele>158.27</ele><time>2026-08-13T22:13:32Z</time></trkpt><trkpt lat="59.3505233154" lon="34.6993506979"><ele>157.56</ele><time>2026-08-13T22:14:08Z</time></trkpt><trkpt lat="59.3505176995" lon="34.6993381251"><ele>158.04</ele><time>2026-08-13T22:14:50Z</time></trkpt><trkpt lat="59.3505264167" lon="34.6993644442"><ele>158.64</ele><time>2026-08-13T22:15:14Z</time></trkpt><trkpt lat="59.3505375646" lon="34.6993706468"><ele>157.75</ele><time>2026-08-13T22:15:42Z</time></trkpt><trkpt lat="59.3505323678" lon="34.6993984748"><ele>155.88</ele><time>2026-08-13T22:16:18Z</time></trkpt><trkpt lat="59.3505118322" lon="34.6994351875"><ele>155.37</ele><time>2026-08-13T22:16:48Z</time></trkpt><trkpt lat="59.3505088147" lon="34.6993755922"><ele>155.50</ele><time>2026-08-13T22:17:19Z</time></trkpt><trkpt lat="59.3505353015" lon="34.6993243787"><ele>158.49</ele><time>2026-08-13T22:17:53Z</time></trkpt><trkpt lat="59.3505388219" lon="34.6992898453"><ele>160.24</ele><time>2026-08-13T22:18:35Z</time></trkpt><trkpt lat="59.3505476229" lon="34.6993094590"><ele>160.86</ele><time>2026-08-13T22:19:06Z</time></trkpt><trkpt lat="59.3505525682" lon="34.6993401367"><ele>160.78</ele><time>2026-08-13T22:19:43Z</time></trkpt><trkpt lat="59.3505415041" lon="34.6993896738"><ele>161.14</ele><time>2026-08-13T22:20:12Z</time></trkpt><trkpt lat="59.3505322002" lon="34.6993875783"><ele>161.21</ele><time>2026-08-13T22:20:43Z</time></trkpt><trkpt lat="59.3505431805" lon="34.6993402205"><ele>160.99</ele><time>2026-08-13T22:21:13Z</time></trkpt><trkpt lat="59.3505524006" lon="34.6994034201"><ele>160.87</ele><time>2026-08-13T22:21:43Z</time></trkpt><trkpt lat="59.3505520653" lon="34.6994022466"><ele>160.83</ele><time>2026-08-13T22:22:14Z</time></trkpt><trkpt lat="59.3505282607" lon="34.6993862372"><ele>160.18</ele><time>2026-08-13T22:22:43Z</time></trkpt><trkpt lat="59.3505102396" lon="34.6994076110"><ele>157.50</ele><time>2026-08-13T22:23:16Z</time></trkpt><trkpt lat="59.3505052105" lon="34.6994080301"><ele>156.06</ele><time>2026-08-13T22:23:43Z</time></trkpt><trkpt lat="59.3505114969" lon="34.6993641090"><ele>155.89</ele><time>2026-08-13T22:24:12Z</time></trkpt><trkpt lat="59.3505136762" lon="34.6993507817"><ele>156.63</ele><time>2026-08-13T22:24:45Z</time></trkpt><trkpt lat="59.3505119160" lon="34.6993290726"><ele>156.35</ele><time>2026-08-13T22:25:16Z</time></trkpt><trkpt lat="59.3505241536" lon="34.6993246302"><ele>157.22</ele><time>2026-08-13T22:25:47Z</time></trkpt><trkpt lat="59.3505449407" lon="34.6993375383"><ele>158.38</ele><time>2026-08-13T22:26:16Z</time></trkpt><trkpt lat="59.3505614530" lon="34.6993543860"><ele>159.59</ele><time>2026-08-13T22:26:47Z</time></trkpt><trkpt lat="59.3505493831" lon="34.6993213613"><ele>160.34</ele><time>2026-08-13T22:27:15Z</time></trkpt><trkpt lat="59.3505481258" lon="34.6993106324"><ele>160.39</ele><time>2026-08-13T22:27:46Z</time></trkpt><trkpt lat="59.3505452760" lon="34.6993327606"><ele>159.67</ele><time>2026-08-13T22:28:15Z</time></trkpt><trkpt lat="59.3505466171" lon="34.6993665397"><ele>159.48</ele><time>2026-08-13T22:28:45Z</time></trkpt><trkpt lat="59.3505433481" lon="34.6993466746"><ele>159.74</ele><time>2026-08-13T22:29:14Z</time></trkpt><trkpt lat="59.3505472876" lon="34.6993348561"><ele>159.27</ele><time>2026-08-13T22:29:42Z</time></trkpt><trkpt lat="59.3505606987" lon="34.6993098781"><ele>161.74</ele><time>2026-08-13T22:30:12Z</time></trkpt><trkpt lat="59.3505699188" lon="34.6993094590"><ele>163.40</ele><time>2026-08-13T22:30:41Z</time></trkpt><trkpt lat="59.3505707569" lon="34.6993115544"><ele>164.23</ele><time>2026-08-13T22:31:10Z</time></trkpt><trkpt lat="59.3505615368" lon="34.6993043460"><ele>163.78</ele><time>2026-08-13T22:31:40Z</time></trkpt><trkpt lat="59.3505702540" lon="34.6992978919"><ele>164.67</ele><time>2026-08-13T22:32:10Z</time></trkpt><trkpt lat="59.3505627103" lon="34.6992958803"><ele>165.07</ele><time>2026-08-13T22:32:41Z</time></trkpt><trkpt lat="59.3505627103" lon="34.6993218642"><ele>165.13</ele><time>2026-08-13T22:33:07Z</time></trkpt><trkpt lat="59.3505493831" lon="34.6993343532"><ele>165.38</ele><time>2026-08-13T22:33:36Z</time></trkpt><trkpt lat="59.3505543284" lon="34.6993202716"><ele>165.69</ele><time>2026-08-13T22:34:04Z</time></trkpt><trkpt lat="59.3505640514" lon="34.6993133985"><ele>164.46</ele><time>2026-08-13T22:34:29Z</time></trkpt><trkpt lat="59.3505648058" lon="34.6993459202"><ele>163.84</ele><time>2026-08-13T22:34:59Z</time></trkpt><trkpt lat="59.3505584355" lon="34.6993168350"><ele>162.98</ele><time>2026-08-13T22:35:24Z</time></trkpt><trkpt lat="59.3505709246" lon="34.6993129794"><ele>161.72</ele><time>2026-08-13T22:35:57Z</time></trkpt><trkpt lat="59.3505549151" lon="34.6993333474"><ele>161.97</ele><time>2026-08-13T22:36:31Z</time></trkpt><trkpt lat="59.3505543284" lon="34.6993203554"><ele>162.76</ele><time>2026-08-13T22:37:02Z</time></trkpt><trkpt lat="59.3505467009" lon="34.6993594989"><ele>163.54</ele><time>2026-08-13T22:37:32Z</time></trkpt><trkpt lat="59.3505611178" lon="34.6993224509"><ele>160.92</ele><time>2026-08-13T22:37:59Z</time></trkpt><trkpt lat="59.3505654763" lon="34.6993130632"><ele>160.06</ele><time>2026-08-13T22:38:12Z</time></trkpt><trkpt lat="59.3505563401" lon="34.6993209422"><ele>159.04</ele><time>2026-08-13T22:38:30Z</time></trkpt><trkpt lat="59.3505466171" lon="34.6993031725"><ele>158.11</ele><time>2026-08-13T22:39:36Z</time></trkpt><trkpt lat="59.3505458627" lon="34.6993214451"><ele>160.42</ele><time>2026-08-13T22:40:51Z</time></trkpt><trkpt lat="59.3505494669" lon="34.6993189305"><ele>160.05</ele><time>2026-08-13T22:42:05Z</time></trkpt><trkpt lat="59.3505407497" lon="34.6993280668"><ele>160.55</ele><time>2026-08-13T22:43:13Z</time></trkpt><trkpt lat="59.3505611178" lon="34.6993319225"><ele>160.71</ele><time>2026-08-13T22:44:33Z</time></trkpt><trkpt lat="59.3505570944" lon="34.6993174218"><ele>160.41</ele><time>2026-08-13T22:45:51Z</time></trkpt><trkpt lat="59.3505539931" lon="34.6993490215"><ele>161.01</ele><time>2026-08-13T22:47:12Z</time></trkpt><trkpt lat="59.3505586870" lon="34.6993521228"><ele>161.63</ele><time>2026-08-13T22:48:13Z</time></trkpt><trkpt lat="59.3505672365" lon="34.6993371192"><ele>160.71</ele><time>2026-08-13T22:49:13Z</time></trkpt><trkpt lat="59.3505662307" lon="34.6993298270"><ele>161.17</ele><time>2026-08-13T22:50:07Z</time></trkpt><trkpt lat="59.3505715951" lon="34.6993421484"><ele>163.08</ele><time>2026-08-13T22:51:19Z</time></trkpt><trkpt lat="59.3505652249" lon="34.6993693057"><ele>164.52</ele><time>2026-08-13T22:52:26Z</time></trkpt><trkpt lat="59.3505634647" lon="34.6993414778"><ele>165.53</ele><time>2026-08-13T22:53:30Z</time></trkpt><trkpt lat="59.3505678233" lon="34.6993526258"><ele>164.64</ele><time>2026-08-13T22:54:25Z</time></trkpt><trkpt lat="59.3505648058" lon="34.6993856505"><ele>162.98</ele><time>2026-08-13T22:55:27Z</time></trkpt><trkpt lat="59.3505647220" lon="34.6993643604"><ele>161.34</ele><time>2026-08-13T22:56:47Z</time></trkpt><trkpt lat="59.3505700864" lon="34.6993441600"><ele>162.03</ele><time>2026-08-13T22:58:09Z</time></trkpt><trkpt lat="59.3505778816" lon="34.6993647795"><ele>163.03</ele><time>2026-08-13T22:59:26Z</time></trkpt><trkpt lat="59.3505777977" lon="34.6993737482"><ele>162.61</ele><time>2026-08-13T23:00:30Z</time></trkpt><trkpt lat="59.3505670689" lon="34.6993945353"><ele>164.80</ele><time>2026-08-13T23:01:30Z</time></trkpt><trkpt lat="59.3505594414" lon="34.6994491015"><ele>163.94</ele><time>2026-08-13T23:01:55Z</time></trkpt><trkpt lat="59.3505350500" lon="34.6994140651"><ele>163.25</ele><time>2026-08-13T23:02:29Z</time></trkpt><trkpt lat="59.3505628780" lon="34.6993966307"><ele>162.66</ele><time>2026-08-13T23:03:14Z</time></trkpt><trkpt lat="59.3505705893" lon="34.6993149910"><ele>162.62</ele><time>2026-08-13T23:03:51Z</time></trkpt><trkpt lat="59.3505417556" lon="34.6993771009"><ele>162.48</ele><time>2026-08-13T23:04:20Z</time></trkpt><trkpt lat="59.3505393248" lon="34.6994097065"><ele>161.49</ele><time>2026-08-13T23:04:51Z</time></trkpt><trkpt lat="59.3505312782" lon="34.6993792802"><ele>160.41</ele><time>2026-08-13T23:05:23Z</time></trkpt><trkpt lat="59.3505444378" lon="34.6993923560"><ele>161.51</ele><time>2026-08-13T23:05:54Z</time></trkpt><trkpt lat="59.3505378999" lon="34.6993838903"><ele>161.85</ele><time>2026-08-13T23:06:28Z</time></trkpt><trkpt lat="59.3505449407" lon="34.6993663721"><ele>161.19</ele><time>2026-08-13T23:07:02Z</time></trkpt><trkpt lat="59.3505359720" lon="34.6993571520"><ele>159.59</ele><time>2026-08-13T23:07:34Z</time></trkpt><trkpt lat="59.3505404145" lon="34.6993618459"><ele>157.86</ele><time>2026-08-13T23:08:06Z</time></trkpt><trkpt lat="59.3505480420" lon="34.6993775200"><ele>158.58</ele><time>2026-08-13T23:08:38Z</time></trkpt><trkpt lat="59.3505442701" lon="34.6993979719"><ele>159.17</ele><time>2026-08-13T23:09:10Z</time></trkpt><trkpt lat="59.3505393248" lon="34.6993818786"><ele>158.30</ele><time>2026-08-13T23:09:41Z</time></trkpt><trkpt lat="59.3505518977" lon="34.6993744187"><ele>158.57</ele><time>2026-08-13T23:10:10Z</time></trkpt><trkpt lat="59.3505799770" lon="34.6993645281"><ele>159.44</ele><time>2026-08-13T23:10:41Z</time></trkpt><trkpt lat="59.3505707569" lon="34.6993817110"><ele>160.22</ele><time>2026-08-13T23:11:13Z</time></trkpt><trkpt lat="59.3505887780" lon="34.6993675455"><ele>161.41</ele><time>2026-08-13T23:11:40Z</time></trkpt><trkpt lat="59.3505524006" lon="34.6993335988"><ele>161.65</ele><time>2026-08-13T23:12:14Z</time></trkpt><trkpt lat="59.3505665660" lon="34.6993316710"><ele>162.62</ele><time>2026-08-13T23:12:47Z</time></trkpt><trkpt lat="59.3505583517" lon="34.6993667074"><ele>163.01</ele><time>2026-08-13T23:13:21Z</time></trkpt><trkpt lat="59.3505304400" lon="34.6993540507"><ele>161.79</ele><time>2026-08-13T23:13:49Z</time></trkpt><trkpt lat="59.3505305238" lon="34.6993750893"><ele>161.04</ele><time>2026-08-13T23:14:15Z</time></trkpt><trkpt lat="59.3505401630" lon="34.6994399652"><ele>161.33</ele><time>2026-08-13T23:14:44Z</time></trkpt><trkpt lat="59.3505998421" lon="34.6994242072"><ele>162.00</ele><time>2026-08-13T23:15:12Z</time></trkpt><trkpt lat="59.3505558372" lon="34.6994130593"><ele>161.71</ele><time>2026-08-13T23:15:49Z</time></trkpt><trkpt lat="59.3504704256" lon="34.6994190942"><ele>161.02</ele><time>2026-08-13T23:16:34Z</time></trkpt><trkpt lat="59.3505282607" lon="34.6993962117"><ele>159.03</ele><time>2026-08-13T23:17:22Z</time></trkpt><trkpt lat="59.3505324516" lon="34.6993313357"><ele>159.26</ele><time>2026-08-13T23:18:34Z</time></trkpt><trkpt lat="59.3505342957" lon="34.6993725747"><ele>159.49</ele><time>2026-08-13T23:19:09Z</time></trkpt><trkpt lat="59.3505478743" lon="34.6993199363"><ele>159.49</ele><time>2026-08-13T23:19:37Z</time></trkpt><trkpt lat="59.3505501375" lon="34.6993926074"><ele>159.69</ele><time>2026-08-13T23:20:05Z</time></trkpt><trkpt lat="59.3505261652" lon="34.6993465908"><ele>160.10</ele><time>2026-08-13T23:20:35Z</time></trkpt><trkpt lat="59.3505565077" lon="34.6993871592"><ele>160.22</ele><time>2026-08-13T23:21:08Z</time></trkpt><trkpt lat="59.3505484611" lon="34.6993911825"><ele>160.57</ele><time>2026-08-13T23:21:41Z</time></trkpt><trkpt lat="59.3505062163" lon="34.6993428189"><ele>161.53</ele><time>2026-08-13T23:22:17Z</time></trkpt><trkpt lat="59.3505034503" lon="34.6992552280"><ele>163.99</ele><time>2026-08-13T23:22:49Z</time></trkpt><trkpt lat="59.3505339604" lon="34.6993372869"><ele>163.93</ele><time>2026-08-13T23:23:21Z</time></trkpt><trkpt lat="59.3505347986" lon="34.6993710659"><ele>160.51</ele><time>2026-08-13T23:23:53Z</time></trkpt><trkpt lat="59.3505208008" lon="34.6993957926"><ele>160.50</ele><time>2026-08-13T23:24:32Z</time></trkpt><trkpt lat="59.3505350500" lon="34.6993909311"><ele>162.48</ele><time>2026-08-13T23:25:30Z</time></trkpt><trkpt lat="59.3505286798" lon="34.6993812080"><ele>160.91</ele><time>2026-08-13T23:26:21Z</time></trkpt><trkpt lat="59.3505299371" lon="34.6993845608"><ele>159.62</ele><time>2026-08-13T23:26:50Z</time></trkpt><trkpt lat="59.3505431805" lon="34.6994125564"><ele>158.73</ele><time>2026-08-13T23:27:33Z</time></trkpt><trkpt lat="59.3505368941" lon="34.6994133946"><ele>158.95</ele><time>2026-08-13T23:28:05Z</time></trkpt><trkpt lat="59.3505150173" lon="34.6994142327"><ele>159.16</ele><time>2026-08-13T23:28:39Z</time></trkpt><trkpt lat="59.3505571783" lon="34.6994024981"><ele>159.56</ele><time>2026-08-13T23:29:15Z</time></trkpt><trkpt lat="59.3505584355" lon="34.6993827168"><ele>158.47</ele><time>2026-08-13T23:29:48Z</time></trkpt><trkpt lat="59.3505715113" lon="34.6993983071"><ele>157.36</ele><time>2026-08-13T23:30:20Z</time></trkpt><trkpt lat="59.3505443539" lon="34.6994379535"><ele>158.35</ele><time>2026-08-13T23:30:35Z</time></trkpt><trkpt lat="59.3505268358" lon="34.6994237043"><ele>142.07</ele><time>2026-08-13T23:34:36Z</time></trkpt><trkpt lat="59.3505378999" lon="34.6994611714"><ele>163.73</ele><time>2026-08-13T23:34:47Z</time></trkpt><trkpt lat="59.3505496345" lon="34.6994413901"><ele>162.73</ele><time>2026-08-13T23:35:37Z</time></trkpt><trkpt lat="59.3505549990" lon="34.6994259674"><ele>163.03</ele><time>2026-08-13T23:36:44Z</time></trkpt><trkpt lat="59.3505598605" lon="34.6994233690"><ele>163.83</ele><time>2026-08-13T23:37:43Z</time></trkpt><trkpt lat="59.3505625427" lon="34.6994175017"><ele>163.28</ele><time>2026-08-13T23:38:36Z</time></trkpt><trkpt lat="59.3505526520" lon="34.6994144842"><ele>163.32</ele><time>2026-08-13T23:39:18Z</time></trkpt><trkpt lat="59.3505546637" lon="34.6994143166"><ele>163.33</ele><time>2026-08-13T23:39:48Z</time></trkpt><trkpt lat="59.3505632970" lon="34.6993964631"><ele>165.05</ele><time>2026-08-13T23:40:30Z</time></trkpt><trkpt lat="59.3505525682" lon="34.6994015761"><ele>165.69</ele><time>2026-08-13T23:41:08Z</time></trkpt><trkpt lat="59.3505422585" lon="34.6994021628"><ele>165.23</ele><time>2026-08-13T23:41:47Z</time></trkpt><trkpt lat="59.3505429290" lon="34.6994123049"><ele>165.68</ele><time>2026-08-13T23:42:14Z</time></trkpt><trkpt lat="59.3505480420" lon="34.6994307451"><ele>165.18</ele><time>2026-08-13T23:42:50Z</time></trkpt><trkpt lat="59.3505616207" lon="34.6993915178"><ele>165.87</ele><time>2026-08-13T23:43:10Z</time></trkpt><trkpt lat="59.3505492155" lon="34.6994073596"><ele>165.28</ele><time>2026-08-13T23:43:26Z</time></trkpt><trkpt lat="59.3505623750" lon="34.6993933618"><ele>166.21</ele><time>2026-08-13T23:43:47Z</time></trkpt><trkpt lat="59.3505677395" lon="34.6993915178"><ele>167.36</ele><time>2026-08-13T23:44:09Z</time></trkpt><trkpt lat="59.3505693320" lon="34.6993945353"><ele>167.08</ele><time>2026-08-13T23:44:44Z</time></trkpt><trkpt lat="59.3505652249" lon="34.6993998159"><ele>167.36</ele><time>2026-08-13T23:45:05Z</time></trkpt><trkpt lat="59.3505672365" lon="34.6994150709"><ele>168.41</ele><time>2026-08-13T23:45:33Z</time></trkpt><trkpt lat="59.3505712599" lon="34.6994130593"><ele>168.92</ele><time>2026-08-13T23:45:50Z</time></trkpt><trkpt lat="59.3505678233" lon="34.6994037554"><ele>168.32</ele><time>2026-08-13T23:46:14Z</time></trkpt><trkpt lat="59.3505652249" lon="34.6993935294"><ele>168.38</ele><time>2026-08-13T23:46:38Z</time></trkpt><trkpt lat="59.3505766243" lon="34.6994249616"><ele>167.84</ele><time>2026-08-13T23:46:59Z</time></trkpt><trkpt lat="59.3506307714" lon="34.6994442400"><ele>167.67</ele><time>2026-08-13T23:47:12Z</time></trkpt><trkpt lat="59.3506439310" lon="34.6994446591"><ele>167.56</ele><time>2026-08-13T23:47:41Z</time></trkpt><trkpt lat="59.3506249879" lon="34.6994290687"><ele>166.54</ele><time>2026-08-13T23:48:10Z</time></trkpt><trkpt lat="59.3506207969" lon="34.6994283143"><ele>164.94</ele><time>2026-08-13T23:48:42Z</time></trkpt><trkpt lat="59.3506177794" lon="34.6994175017"><ele>163.81</ele><time>2026-08-13T23:49:04Z</time></trkpt><trkpt lat="59.3506158516" lon="34.6994261350"><ele>163.56</ele><time>2026-08-13T23:49:31Z</time></trkpt><trkpt lat="59.3506286759" lon="34.6994434856"><ele>162.76</ele><time>2026-08-13T23:49:55Z</time></trkpt><trkpt lat="59.3505917117" lon="34.6994407196"><ele>160.71</ele><time>2026-08-13T23:50:37Z</time></trkpt><trkpt lat="59.3505909573" lon="34.6994491853"><ele>161.05</ele><time>2026-08-13T23:50:51Z</time></trkpt><trkpt lat="59.3505856767" lon="34.6994521189"><ele>161.10</ele><time>2026-08-13T23:51:10Z</time></trkpt><trkpt lat="59.3505659793" lon="34.6994992252"><ele>161.06</ele><time>2026-08-13T23:51:33Z</time></trkpt><trkpt lat="59.3505687453" lon="34.6994903404"><ele>160.62</ele><time>2026-08-13T23:51:55Z</time></trkpt><trkpt lat="59.3505650572" lon="34.6994669549"><ele>161.31</ele><time>2026-08-13T23:52:22Z</time></trkpt><trkpt lat="59.3505631294" lon="34.6994848922"><ele>163.03</ele><time>2026-08-13T23:52:58Z</time></trkpt><trkpt lat="59.3505597766" lon="34.6994836349"><ele>164.44</ele><time>2026-08-13T23:53:29Z</time></trkpt><trkpt lat="59.3505674042" lon="34.6994648594"><ele>165.22</ele><time>2026-08-13T23:53:59Z</time></trkpt><trkpt lat="59.3505596090" lon="34.6994653624"><ele>165.06</ele><time>2026-08-13T23:54:33Z</time></trkpt><trkpt lat="59.3505579326" lon="34.6994594112"><ele>165.54</ele><time>2026-08-13T23:55:03Z</time></trkpt><trkpt lat="59.3505604472" lon="34.6994612552"><ele>165.78</ele><time>2026-08-13T23:55:20Z</time></trkpt><trkpt lat="59.3505548313" lon="34.6994313318"><ele>165.35</ele><time>2026-08-13T23:55:39Z</time></trkpt><trkpt lat="59.3505380675" lon="34.6993818786"><ele>164.78</ele><time>2026-08-13T23:56:07Z</time></trkpt><trkpt lat="59.3505389895" lon="34.6993765142"><ele>165.39</ele><time>2026-08-13T23:56:34Z</time></trkpt><trkpt lat="59.3505332898" lon="34.6993869077"><ele>165.17</ele><time>2026-08-13T23:57:17Z</time></trkpt><trkpt lat="59.3505336251" lon="34.6993819624"><ele>165.41</ele><time>2026-08-13T23:57:42Z</time></trkpt><trkpt lat="59.3505303562" lon="34.6993977204"><ele>165.04</ele><time>2026-08-13T23:58:18Z</time></trkpt><trkpt lat="59.3505492993" lon="34.6994599141"><ele>164.77</ele><time>2026-08-13T23:59:02Z</time></trkpt><trkpt lat="59.3505575135" lon="34.6994501073"><ele>164.72</ele><time>2026-08-13T23:59:24Z</time></trkpt><trkpt lat="59.3505523168" lon="34.6994397976"><ele>164.77</ele><time>2026-08-13T23:59:55Z</time></trkpt><trkpt lat="59.3505629618" lon="34.6994406357"><ele>165.05</ele><time>2026-08-14T00:00:15Z</time></trkpt><trkpt lat="59.3505632970" lon="34.6994390432"><ele>165.87</ele><time>2026-08-14T00:00:42Z</time></trkpt><trkpt lat="59.3505699188" lon="34.6994750854"><ele>165.55</ele><time>2026-08-14T00:00:59Z</time></trkpt><trkpt lat="59.3505635485" lon="34.6994516160"><ele>165.27</ele><time>2026-08-14T00:01:22Z</time></trkpt><trkpt lat="59.3505627103" lon="34.6994613390"><ele>166.22</ele><time>2026-08-14T00:01:45Z</time></trkpt><trkpt lat="59.3505599443" lon="34.6994791087"><ele>166.77</ele><time>2026-08-14T00:02:20Z</time></trkpt><trkpt lat="59.3505597766" lon="34.6995018236"><ele>166.59</ele><time>2026-08-14T00:03:02Z</time></trkpt><trkpt lat="59.3505534064" lon="34.6994880773"><ele>166.18</ele><time>2026-08-14T00:03:23Z</time></trkpt><trkpt lat="59.3505626265" lon="34.6994756721"><ele>165.50</ele><time>2026-08-14T00:03:48Z</time></trkpt><trkpt lat="59.3505680747" lon="34.6995242033"><ele>165.17</ele><time>2026-08-14T00:04:07Z</time></trkpt><trkpt lat="59.3505796418" lon="34.6995600779"><ele>164.69</ele><time>2026-08-14T00:04:21Z</time></trkpt><trkpt lat="59.3505824916" lon="34.6995689627"><ele>164.51</ele><time>2026-08-14T00:04:43Z</time></trkpt><trkpt lat="59.3505461980" lon="34.6995771769"><ele>163.80</ele><time>2026-08-14T00:04:59Z</time></trkpt><trkpt lat="59.3505598605" lon="34.6995739918"><ele>163.71</ele><time>2026-08-14T00:05:11Z</time></trkpt><trkpt lat="59.3505655602" lon="34.6995786019"><ele>164.35</ele><time>2026-08-14T00:05:31Z</time></trkpt><trkpt lat="59.3505605310" lon="34.6996026579"><ele>165.25</ele><time>2026-08-14T00:06:03Z</time></trkpt><trkpt lat="59.3505623750" lon="34.6996198408"><ele>166.91</ele><time>2026-08-14T00:06:34Z</time></trkpt><trkpt lat="59.3505524844" lon="34.6995598264"><ele>167.41</ele><time>2026-08-14T00:06:56Z</time></trkpt><trkpt lat="59.3504755385" lon="34.6994353551"><ele>166.66</ele><time>2026-08-14T00:07:03Z</time></trkpt><trkpt lat="59.3501638994" lon="34.6993967984"><ele>169.77</ele><time>2026-08-14T00:07:17Z</time></trkpt><trkpt lat="59.3497437984" lon="34.6993942000"><ele>169.23</ele><time>2026-08-14T00:07:34Z</time></trkpt><trkpt lat="59.3496517651" lon="34.6993589960"><ele>166.37</ele><time>2026-08-14T00:07:45Z</time></trkpt><trkpt lat="59.3497570418" lon="34.6993553918"><ele>165.32</ele><time>2026-08-14T00:08:00Z</time></trkpt><trkpt lat="59.3499111850" lon="34.6993776038"><ele>164.80</ele><time>2026-08-14T00:08:13Z</time></trkpt><trkpt lat="59.3501236662" lon="34.6994038392"><ele>165.52</ele><time>2026-08-14T00:08:31Z</time></trkpt><trkpt lat="59.3501578644" lon="34.6993940324"><ele>165.17</ele><time>2026-08-14T00:08:39Z</time></trkpt><trkpt lat="59.3500794098" lon="34.6992753446"><ele>164.92</ele><time>2026-08-14T00:08:45Z</time></trkpt><trkpt lat="59.3496869691" lon="34.6988976561"><ele>163.81</ele><time>2026-08-14T00:08:59Z</time></trkpt><trkpt lat="59.3491673749" lon="34.6984195523"><ele>163.61</ele><time>2026-08-14T00:09:15Z</time></trkpt><trkpt lat="59.3486595154" lon="34.6979336534"><ele>164.58</ele><time>2026-08-14T00:09:31Z</time></trkpt><trkpt lat="59.3481913861" lon="34.6974487603"><ele>165.67</ele><time>2026-08-14T00:09:46Z</time></trkpt><trkpt lat="59.3478746340" lon="34.6971454192"><ele>164.42</ele><time>2026-08-14T00:09:57Z</time></trkpt><trkpt lat="59.3475396093" lon="34.6967212949"><ele>167.57</ele><time>2026-08-14T00:10:09Z</time></trkpt><trkpt lat="59.3473205902" lon="34.6963520721"><ele>168.87</ele><time>2026-08-14T00:10:20Z</time></trkpt><trkpt lat="59.3470064364" lon="34.6960063186"><ele>168.56</ele><time>2026-08-14T00:10:33Z</time></trkpt><trkpt lat="59.3466353696" lon="34.6955295559"><ele>166.18</ele><time>2026-08-14T00:10:47Z</time></trkpt><trkpt lat="59.3462460302" lon="34.6950102132"><ele>164.14</ele><time>2026-08-14T00:11:02Z</time></trkpt><trkpt lat="59.3459861074" lon="34.6946188621"><ele>164.05</ele><time>2026-08-14T00:11:14Z</time></trkpt><trkpt lat="59.3457829300" lon="34.6943211369"><ele>171.92</ele><time>2026-08-14T00:11:25Z</time></trkpt><trkpt lat="59.3457301240" lon="34.6942187939"><ele>174.72</ele><time>2026-08-14T00:11:29Z</time></trkpt><trkpt lat="59.3454934191" lon="34.6938873734"><ele>175.65</ele><time>2026-08-14T00:11:40Z</time></trkpt><trkpt lat="59.3452452309" lon="34.6935823560"><ele>175.06</ele><time>2026-08-14T00:11:51Z</time></trkpt><trkpt lat="59.3450125493" lon="34.6932736505"><ele>172.90</ele><time>2026-08-14T00:12:03Z</time></trkpt><trkpt lat="59.3447138183" lon="34.6928992309"><ele>172.07</ele><time>2026-08-14T00:12:16Z</time></trkpt><trkpt lat="59.3444666360" lon="34.6925927885"><ele>172.80</ele><time>2026-08-14T00:12:28Z</time></trkpt><trkpt lat="59.3442693260" lon="34.6923368052"><ele>169.79</ele><time>2026-08-14T00:12:39Z</time></trkpt><trkpt lat="59.3440613709" lon="34.6921472065"><ele>172.08</ele><time>2026-08-14T00:12:52Z</time></trkpt><trkpt lat="59.3439669907" lon="34.6920021158"><ele>174.20</ele><time>2026-08-14T00:13:03Z</time></trkpt><trkpt lat="59.3437972572" lon="34.6916965116"><ele>173.90</ele><time>2026-08-14T00:13:15Z</time></trkpt><trkpt lat="59.3434821814" lon="34.6911604051"><ele>170.13</ele><time>2026-08-14T00:13:28Z</time></trkpt><trkpt lat="59.3431738112" lon="34.6908275597"><ele>164.49</ele><time>2026-08-14T00:13:40Z</time></trkpt><trkpt lat="59.3428265490" lon="34.6904065367"><ele>161.33</ele><time>2026-08-14T00:13:53Z</time></trkpt><trkpt lat="59.3426385429" lon="34.6897712722"><ele>164.00</ele><time>2026-08-14T00:14:05Z</time></trkpt><trkpt lat="59.3425779417" lon="34.6894484852"><ele>164.29</ele><time>2026-08-14T00:14:15Z</time></trkpt><trkpt lat="59.3425745890" lon="34.6893705335"><ele>163.81</ele><time>2026-08-14T00:14:17Z</time></trkpt><trkpt lat="59.3425547238" lon="34.6891982015"><ele>162.79</ele><time>2026-08-14T00:14:21Z</time></trkpt><trkpt lat="59.3425036781" lon="34.6884227078"><ele>160.77</ele><time>2026-08-14T00:14:35Z</time></trkpt><trkpt lat="59.3424372934" lon="34.6875316277"><ele>159.07</ele><time>2026-08-14T00:14:50Z</time></trkpt><trkpt lat="59.3423535582" lon="34.6868167352"><ele>160.33</ele><time>2026-08-14T00:15:04Z</time></trkpt><trkpt lat="59.3423598446" lon="34.6862312593"><ele>161.92</ele><time>2026-08-14T00:15:15Z</time></trkpt><trkpt lat="59.3423295859" lon="34.6856619604"><ele>162.42</ele><time>2026-08-14T00:15:26Z</time></trkpt><trkpt lat="59.3420627899" lon="34.6852908935"><ele>164.06</ele><time>2026-08-14T00:15:37Z</time></trkpt><trkpt lat="59.3417125940" lon="34.6849355847"><ele>165.19</ele><time>2026-08-14T00:15:50Z</time></trkpt><trkpt lat="59.3414119352" lon="34.6847368497"><ele>167.68</ele><time>2026-08-14T00:16:03Z</time></trkpt><trkpt lat="59.3410790060" lon="34.6845041681"><ele>173.51</ele><time>2026-08-14T00:16:15Z</time></trkpt><trkpt lat="59.3406408839" lon="34.6841709036"><ele>171.01</ele><time>2026-08-14T00:16:28Z</time></trkpt><trkpt lat="59.3403823022" lon="34.6839439217"><ele>167.19</ele><time>2026-08-14T00:16:39Z</time></trkpt><trkpt lat="59.3401657138" lon="34.6834784746"><ele>168.67</ele><time>2026-08-14T00:16:51Z</time></trkpt><trkpt lat="59.3400003389" lon="34.6832167078"><ele>171.84</ele><time>2026-08-14T00:17:01Z</time></trkpt><trkpt lat="59.3396493886" lon="34.6831623930"><ele>177.43</ele><time>2026-08-14T00:17:13Z</time></trkpt><trkpt lat="59.3392914813" lon="34.6829732135"><ele>181.62</ele><time>2026-08-14T00:17:24Z</time></trkpt><trkpt lat="59.3388479110" lon="34.6826445591"><ele>179.47</ele><time>2026-08-14T00:17:37Z</time></trkpt><trkpt lat="59.3384558056" lon="34.6822678763"><ele>179.39</ele><time>2026-08-14T00:17:50Z</time></trkpt><trkpt lat="59.3381156679" lon="34.6819260623"><ele>180.29</ele><time>2026-08-14T00:18:01Z</time></trkpt><trkpt lat="59.3381167576" lon="34.6818204504"><ele>177.26</ele><time>2026-08-14T00:18:17Z</time></trkpt><trkpt lat="59.3380847387" lon="34.6817705780"><ele>175.44</ele><time>2026-08-14T00:18:37Z</time></trkpt><trkpt lat="59.3380625267" lon="34.6817135811"><ele>174.66</ele><time>2026-08-14T00:18:59Z</time></trkpt><trkpt lat="59.3380596768" lon="34.6816910338"><ele>175.09</ele><time>2026-08-14T00:19:21Z</time></trkpt><trkpt lat="59.3380226288" lon="34.6816405747"><ele>174.58</ele><time>2026-08-14T00:19:33Z</time></trkpt><trkpt lat="59.3379636202" lon="34.6816310193"><ele>173.75</ele><time>2026-08-14T00:19:39Z</time></trkpt><trkpt lat="59.3378046993" lon="34.6815935522"><ele>170.06</ele><time>2026-08-14T00:19:55Z</time></trkpt><trkpt lat="59.3376276735" lon="34.6814679913"><ele>162.43</ele><time>2026-08-14T00:20:14Z</time></trkpt><trkpt lat="59.3374796491" lon="34.6813703422"><ele>158.28</ele><time>2026-08-14T00:20:29Z</time></trkpt><trkpt lat="59.3372838479" lon="34.6812288556"><ele>153.06</ele><time>2026-08-14T00:20:49Z</time></trkpt><trkpt lat="59.3371350691" lon="34.6810435317"><ele>149.90</ele><time>2026-08-14T00:21:08Z</time></trkpt><trkpt lat="59.3369201571" lon="34.6808536816"><ele>148.48</ele><time>2026-08-14T00:21:33Z</time></trkpt><trkpt lat="59.3367460649" lon="34.6809012070"><ele>148.22</ele><time>2026-08-14T00:21:51Z</time></trkpt><trkpt lat="59.3365561310" lon="34.6808251832"><ele>151.47</ele><time>2026-08-14T00:22:06Z</time></trkpt><trkpt lat="59.3364644330" lon="34.6808340680"><ele>154.06</ele><time>2026-08-14T00:22:14Z</time></trkpt><trkpt lat="59.3363034166" lon="34.6808028873"><ele>155.85</ele><time>2026-08-14T00:22:30Z</time></trkpt><trkpt lat="59.3361398019" lon="34.6807151288"><ele>155.18</ele><time>2026-08-14T00:22:49Z</time></trkpt><trkpt lat="59.3360712379" lon="34.6807512548"><ele>160.44</ele><time>2026-08-14T00:23:08Z</time></trkpt><trkpt lat="59.3360293284" lon="34.6808155440"><ele>166.90</ele><time>2026-08-14T00:23:39Z</time></trkpt><trkpt lat="59.3360408954" lon="34.6807500813"><ele>168.77</ele><time>2026-08-14T00:24:09Z</time></trkpt><trkpt lat="59.3360645324" lon="34.6807365026"><ele>169.40</ele><time>2026-08-14T00:24:29Z</time></trkpt><trkpt lat="59.3360643648" lon="34.6807540208"><ele>169.44</ele><time>2026-08-14T00:24:55Z</time></trkpt><trkpt lat="59.3360524625" lon="34.6807891410"><ele>169.48</ele><time>2026-08-14T00:25:19Z</time></trkpt><trkpt lat="59.3360478524" lon="34.6808092576"><ele>170.83</ele><time>2026-08-14T00:25:47Z</time></trkpt><trkpt lat="59.3360450026" lon="34.6807551943"><ele>170.29</ele><time>2026-08-14T00:26:08Z</time></trkpt><trkpt lat="59.3360401411" lon="34.6806347463"><ele>174.47</ele><time>2026-08-14T00:27:00Z</time></trkpt><trkpt lat="59.3360398058" lon="34.6807525959"><ele>174.75</ele><time>2026-08-14T00:27:24Z</time></trkpt><trkpt lat="59.3359563220" lon="34.6807314735"><ele>173.69</ele><time>2026-08-14T00:27:52Z</time></trkpt><trkpt lat="59.3358338624" lon="34.6806606464"><ele>175.17</ele><time>2026-08-14T00:28:08Z</time></trkpt><trkpt lat="59.3356773723" lon="34.6805590577"><ele>173.69</ele><time>2026-08-14T00:28:25Z</time></trkpt><trkpt lat="59.3355352990" lon="34.6804132126"><ele>168.34</ele><time>2026-08-14T00:28:43Z</time></trkpt><trkpt lat="59.3353568483" lon="34.6802070178"><ele>162.89</ele><time>2026-08-14T00:29:03Z</time></trkpt><trkpt lat="59.3352726102" lon="34.6800543834"><ele>161.04</ele><time>2026-08-14T00:29:17Z</time></trkpt><trkpt lat="59.3352550082" lon="34.6799999848"><ele>165.07</ele><time>2026-08-14T00:29:39Z</time></trkpt><trkpt lat="59.3352457881" lon="34.6800202690"><ele>166.60</ele><time>2026-08-14T00:30:10Z</time></trkpt><trkpt lat="59.3352772202" lon="34.6799690556"><ele>166.79</ele><time>2026-08-14T00:30:19Z</time></trkpt><trkpt lat="59.3353148550" lon="34.6799557284"><ele>167.07</ele><time>2026-08-14T00:30:51Z</time></trkpt><trkpt lat="59.3353023659" lon="34.6800076123"><ele>166.85</ele><time>2026-08-14T00:31:17Z</time></trkpt><trkpt lat="59.3352941517" lon="34.6799912676"><ele>166.64</ele><time>2026-08-14T00:31:46Z</time></trkpt><trkpt lat="59.3352487218" lon="34.6799692232"><ele>166.75</ele><time>2026-08-14T00:32:15Z</time></trkpt><trkpt lat="59.3351856060" lon="34.6799511183"><ele>168.40</ele><time>2026-08-14T00:32:49Z</time></trkpt><trkpt lat="59.3351850193" lon="34.6799786948"><ele>171.37</ele><time>2026-08-14T00:33:15Z</time></trkpt><trkpt lat="59.3350680918" lon="34.6798256412"><ele>171.43</ele><time>2026-08-14T00:33:36Z</time></trkpt><trkpt lat="59.3349377532" lon="34.6796931233"><ele>169.83</ele><time>2026-08-14T00:33:56Z</time></trkpt><trkpt lat="59.3347637448" lon="34.6794999205"><ele>168.21</ele><time>2026-08-14T00:34:21Z</time></trkpt><trkpt lat="59.3346904032" lon="34.6794007625"><ele>168.06</ele><time>2026-08-14T00:34:43Z</time></trkpt><trkpt lat="59.3347145431" lon="34.6793612000"><ele>168.33</ele><time>2026-08-14T00:35:04Z</time></trkpt><trkpt lat="59.3347168900" lon="34.6794338711"><ele>169.06</ele><time>2026-08-14T00:35:37Z</time></trkpt><trkpt lat="59.3346558698" lon="34.6795304306"><ele>169.82</ele><time>2026-08-14T00:36:08Z</time></trkpt><trkpt lat="59.3346702866" lon="34.6794330329"><ele>170.36</ele><time>2026-08-14T00:36:39Z</time></trkpt><trkpt lat="59.3345783371" lon="34.6792178694"><ele>170.08</ele><time>2026-08-14T00:37:01Z</time></trkpt><trkpt lat="59.3344604038" lon="34.6790494770"><ele>168.22</ele><time>2026-08-14T00:37:18Z</time></trkpt><trkpt lat="59.3343765009" lon="34.6788960882"><ele>167.82</ele><time>2026-08-14T00:37:36Z</time></trkpt><trkpt lat="59.3342129700" lon="34.6786279511"><ele>166.43</ele><time>2026-08-14T00:38:00Z</time></trkpt><trkpt lat="59.3340680469" lon="34.6783994604"><ele>163.45</ele><time>2026-08-14T00:38:21Z</time></trkpt><trkpt lat="59.3339873292" lon="34.6782937646"><ele>164.32</ele><time>2026-08-14T00:38:42Z</time></trkpt><trkpt lat="59.3339940347" lon="34.6782490890"><ele>165.67</ele><time>2026-08-14T00:39:13Z</time></trkpt><trkpt lat="59.3339889217" lon="34.6781283896"><ele>164.64</ele><time>2026-08-14T00:39:45Z</time></trkpt><trkpt lat="59.3339376245" lon="34.6782925911"><ele>164.76</ele><time>2026-08-14T00:40:13Z</time></trkpt><trkpt lat="59.3338745087" lon="34.6783977002"><ele>167.21</ele><time>2026-08-14T00:40:37Z</time></trkpt><trkpt lat="59.3339038454" lon="34.6784116141"><ele>166.35</ele><time>2026-08-14T00:41:06Z</time></trkpt><trkpt lat="59.3338565715" lon="34.6782486700"><ele>168.02</ele><time>2026-08-14T00:41:34Z</time></trkpt><trkpt lat="59.3337739259" lon="34.6779946145"><ele>168.14</ele><time>2026-08-14T00:41:54Z</time></trkpt><trkpt lat="59.3336349539" lon="34.6777326800"><ele>164.12</ele><time>2026-08-14T00:42:13Z</time></trkpt><trkpt lat="59.3335217983" lon="34.6775183547"><ele>161.13</ele><time>2026-08-14T00:42:29Z</time></trkpt><trkpt lat="59.3334611133" lon="34.6773125790"><ele>161.95</ele><time>2026-08-14T00:42:44Z</time></trkpt><trkpt lat="59.3333948962" lon="34.6771564241"><ele>161.95</ele><time>2026-08-14T00:43:04Z</time></trkpt><trkpt lat="59.3333965726" lon="34.6771255787"><ele>162.56</ele><time>2026-08-14T00:43:22Z</time></trkpt><trkpt lat="59.3333541602" lon="34.6771749482"><ele>162.18</ele><time>2026-08-14T00:43:59Z</time></trkpt><trkpt lat="59.3333677389" lon="34.6771536581"><ele>161.75</ele><time>2026-08-14T00:44:24Z</time></trkpt><trkpt lat="59.3334304355" lon="34.6770419274"><ele>162.07</ele><time>2026-08-14T00:45:02Z</time></trkpt><trkpt lat="59.3333476223" lon="34.6769410092"><ele>163.01</ele><time>2026-08-14T00:45:22Z</time></trkpt><trkpt lat="59.3332301080" lon="34.6767260134"><ele>164.31</ele><time>2026-08-14T00:45:44Z</time></trkpt><trkpt lat="59.3331531622" lon="34.6764929127"><ele>164.87</ele><time>2026-08-14T00:46:03Z</time></trkpt><trkpt lat="59.3331291899" lon="34.6764283720"><ele>164.82</ele><time>2026-08-14T00:46:08Z</time></trkpt><trkpt lat="59.3330261763" lon="34.6761832852"><ele>167.12</ele><time>2026-08-14T00:46:29Z</time></trkpt><trkpt lat="59.3329913076" lon="34.6761521045"><ele>167.40</ele><time>2026-08-14T00:47:01Z</time></trkpt><trkpt lat="59.3329040520" lon="34.6763117798"><ele>165.22</ele><time>2026-08-14T00:47:33Z</time></trkpt><trkpt lat="59.3329754658" lon="34.6761871409"><ele>163.94</ele><time>2026-08-14T00:48:01Z</time></trkpt><trkpt lat="59.3330035452" lon="34.6761935111"><ele>164.03</ele><time>2026-08-14T00:48:55Z</time></trkpt><trkpt lat="59.3328994419" lon="34.6760002244"><ele>166.00</ele><time>2026-08-14T00:49:13Z</time></trkpt><trkpt lat="59.3327542674" lon="34.6758155711"><ele>165.69</ele><time>2026-08-14T00:49:34Z</time></trkpt><trkpt lat="59.3326627370" lon="34.6755946241"><ele>168.42</ele><time>2026-08-14T00:49:53Z</time></trkpt><trkpt lat="59.3325881381" lon="34.6753565781"><ele>171.22</ele><time>2026-08-14T00:50:17Z</time></trkpt><trkpt lat="59.3325784151" lon="34.6753232181"><ele>170.29</ele><time>2026-08-14T00:50:49Z</time></trkpt><trkpt lat="59.3325544428" lon="34.6753489505"><ele>169.92</ele><time>2026-08-14T00:51:15Z</time></trkpt><trkpt lat="59.3325986993" lon="34.6752733458"><ele>170.41</ele><time>2026-08-14T00:51:45Z</time></trkpt><trkpt lat="59.3325835280" lon="34.6753018443"><ele>169.39</ele><time>2026-08-14T00:52:11Z</time></trkpt><trkpt lat="59.3325233459" lon="34.6752787940"><ele>168.68</ele><time>2026-08-14T00:52:48Z</time></trkpt><trkpt lat="59.3324903212" lon="34.6752823144"><ele>168.68</ele><time>2026-08-14T00:52:56Z</time></trkpt><trkpt lat="59.3324708752" lon="34.6751543228"><ele>168.91</ele><time>2026-08-14T00:53:14Z</time></trkpt><trkpt lat="59.3324251939" lon="34.6750751138"><ele>167.00</ele><time>2026-08-14T00:53:41Z</time></trkpt><trkpt lat="59.3323900737" lon="34.6748379897"><ele>165.67</ele><time>2026-08-14T00:54:00Z</time></trkpt><trkpt lat="59.3323396984" lon="34.6746546775"><ele>163.94</ele><time>2026-08-14T00:54:13Z</time></trkpt><trkpt lat="59.3323363457" lon="34.6746245865"><ele>162.28</ele><time>2026-08-14T00:54:28Z</time></trkpt><trkpt lat="59.3323592283" lon="34.6746290289"><ele>160.89</ele><time>2026-08-14T00:54:54Z</time></trkpt><trkpt lat="59.3323432188" lon="34.6746630594"><ele>158.41</ele><time>2026-08-14T00:55:24Z</time></trkpt><trkpt lat="59.3323479127" lon="34.6746488102"><ele>159.00</ele><time>2026-08-14T00:55:54Z</time></trkpt><trkpt lat="59.3323286343" lon="34.6746499836"><ele>159.92</ele><time>2026-08-14T00:56:12Z</time></trkpt><trkpt lat="59.3323539477" lon="34.6746601257"><ele>161.62</ele><time>2026-08-14T00:56:42Z</time></trkpt><trkpt lat="59.3323108647" lon="34.6746768896"><ele>163.98</ele><time>2026-08-14T00:57:10Z</time></trkpt><trkpt lat="59.3322407082" lon="34.6745196451"><ele>164.38</ele><time>2026-08-14T00:57:34Z</time></trkpt><trkpt lat="59.3321444001" lon="34.6743354108"><ele>160.35</ele><time>2026-08-14T00:57:53Z</time></trkpt><trkpt lat="59.3321428075" lon="34.6742692776"><ele>160.54</ele><time>2026-08-14T00:58:11Z</time></trkpt><trkpt lat="59.3322102819" lon="34.6744421963"><ele>160.44</ele><time>2026-08-14T00:58:29Z</time></trkpt><trkpt lat="59.3322251178" lon="34.6744720358"><ele>160.63</ele><time>2026-08-14T00:58:49Z</time></trkpt><trkpt lat="59.3321625050" lon="34.6743810922"><ele>159.76</ele><time>2026-08-14T00:59:02Z</time></trkpt><trkpt lat="59.3320383690" lon="34.6741050761"><ele>159.62</ele><time>2026-08-14T00:59:21Z</time></trkpt><trkpt lat="59.3320322502" lon="34.6740899049"><ele>159.46</ele><time>2026-08-14T00:59:22Z</time></trkpt><trkpt lat="59.3319720682" lon="34.6738682035"><ele>157.06</ele><time>2026-08-14T00:59:36Z</time></trkpt><trkpt lat="59.3318324257" lon="34.6736195125"><ele>154.70</ele><time>2026-08-14T00:59:57Z</time></trkpt><trkpt lat="59.3318222836" lon="34.6735903434"><ele>158.01</ele><time>2026-08-14T01:00:10Z</time></trkpt><trkpt lat="59.3317546416" lon="34.6735863201"><ele>158.52</ele><time>2026-08-14T01:00:28Z</time></trkpt><trkpt lat="59.3316072877" lon="34.6736266371"><ele>160.39</ele><time>2026-08-14T01:00:47Z</time></trkpt><trkpt lat="59.3315068725" lon="34.6736357734"><ele>160.22</ele><time>2026-08-14T01:01:06Z</time></trkpt><trkpt lat="59.3314728420" lon="34.6736627631"><ele>160.79</ele><time>2026-08-14T01:01:47Z</time></trkpt><trkpt lat="59.3314479478" lon="34.6736146510"><ele>161.66</ele><time>2026-08-14T01:01:58Z</time></trkpt><trkpt lat="59.3314653821" lon="34.6737086959"><ele>163.80</ele><time>2026-08-14T01:02:26Z</time></trkpt><trkpt lat="59.3314441759" lon="34.6737164073"><ele>167.68</ele><time>2026-08-14T01:02:50Z</time></trkpt><trkpt lat="59.3314340338" lon="34.6736628469"><ele>166.28</ele><time>2026-08-14T01:03:18Z</time></trkpt><trkpt lat="59.3312990014" lon="34.6734811272"><ele>164.64</ele><time>2026-08-14T01:03:39Z</time></trkpt><trkpt lat="59.3311493006" lon="34.6732815541"><ele>163.72</ele><time>2026-08-14T01:04:02Z</time></trkpt><trkpt lat="59.3310426828" lon="34.6730135009"><ele>161.08</ele><time>2026-08-14T01:04:23Z</time></trkpt><trkpt lat="59.3309619650" lon="34.6729360521"><ele>160.67</ele><time>2026-08-14T01:04:41Z</time></trkpt><trkpt lat="59.3309463747" lon="34.6729392372"><ele>160.15</ele><time>2026-08-14T01:05:09Z</time></trkpt><trkpt lat="59.3309725262" lon="34.6729182824"><ele>158.84</ele><time>2026-08-14T01:05:39Z</time></trkpt><trkpt lat="59.3309650663" lon="34.6728549153"><ele>159.09</ele><time>2026-08-14T01:06:03Z</time></trkpt><trkpt lat="59.3309625518" lon="34.6728319488"><ele>158.95</ele><time>2026-08-14T01:06:35Z</time></trkpt><trkpt lat="59.3309613783" lon="34.6727418434"><ele>159.14</ele><time>2026-08-14T01:06:57Z</time></trkpt><trkpt lat="59.3309270963" lon="34.6724493150"><ele>159.77</ele><time>2026-08-14T01:07:21Z</time></trkpt><trkpt lat="59.3308871146" lon="34.6723846067"><ele>160.33</ele><time>2026-08-14T01:07:37Z</time></trkpt><trkpt lat="59.3307596259" lon="34.6721925773"><ele>159.59</ele><time>2026-08-14T01:07:56Z</time></trkpt><trkpt lat="59.3306533433" lon="34.6720735542"><ele>160.01</ele><time>2026-08-14T01:08:14Z</time></trkpt><trkpt lat="59.3306322210" lon="34.6720871329"><ele>160.85</ele><time>2026-08-14T01:08:41Z</time></trkpt><trkpt lat="59.3306675088" lon="34.6720703691"><ele>171.75</ele><time>2026-08-14T01:09:11Z</time></trkpt><trkpt lat="59.3306577858" lon="34.6720632445"><ele>172.15</ele><time>2026-08-14T01:09:41Z</time></trkpt><trkpt lat="59.3306313828" lon="34.6721389331"><ele>172.78</ele><time>2026-08-14T01:09:54Z</time></trkpt><trkpt lat="59.3305933289" lon="34.6721209958"><ele>173.46</ele><time>2026-08-14T01:10:18Z</time></trkpt><trkpt lat="59.3306286167" lon="34.6721509192"><ele>173.13</ele><time>2026-08-14T01:10:49Z</time></trkpt><trkpt lat="59.3305998668" lon="34.6721068304"><ele>173.04</ele><time>2026-08-14T01:11:15Z</time></trkpt><trkpt lat="59.3305843603" lon="34.6720425412"><ele>174.46</ele><time>2026-08-14T01:11:38Z</time></trkpt><trkpt lat="59.3305169698" lon="34.6720702853"><ele>172.93</ele><time>2026-08-14T01:12:03Z</time></trkpt><trkpt lat="59.3303266168" lon="34.6721421182"><ele>172.36</ele><time>2026-08-14T01:12:25Z</time></trkpt><trkpt lat="59.3301251996" lon="34.6721660066"><ele>170.53</ele><time>2026-08-14T01:12:48Z</time></trkpt><trkpt lat="59.3299945258" lon="34.6721872129"><ele>169.74</ele><time>2026-08-14T01:13:09Z</time></trkpt><trkpt lat="59.3298599124" lon="34.6721404418"><ele>168.75</ele><time>2026-08-14T01:13:29Z</time></trkpt><trkpt lat="59.3297133129" lon="34.6721023880"><ele>168.20</ele><time>2026-08-14T01:13:47Z</time></trkpt><trkpt lat="59.3296748400" lon="34.6720765717"><ele>169.10</ele><time>2026-08-14T01:14:12Z</time></trkpt><trkpt lat="59.3296742532" lon="34.6720905695"><ele>170.72</ele><time>2026-08-14T01:14:50Z</time></trkpt><trkpt lat="59.3296494428" lon="34.6720785834"><ele>170.33</ele><time>2026-08-14T01:15:17Z</time></trkpt><trkpt lat="59.3296678830" lon="34.6720642503"><ele>173.15</ele><time>2026-08-14T01:15:41Z</time></trkpt><trkpt lat="59.3296636082" lon="34.6720634121"><ele>175.71</ele><time>2026-08-14T01:16:14Z</time></trkpt><trkpt lat="59.3296750914" lon="34.6720669325"><ele>174.79</ele><time>2026-08-14T01:16:52Z</time></trkpt><trkpt lat="59.3296928611" lon="34.6720352490"><ele>174.06</ele><time>2026-08-14T01:17:16Z</time></trkpt><trkpt lat="59.3296994828" lon="34.6720563713"><ele>174.08</ele><time>2026-08-14T01:17:44Z</time></trkpt><trkpt lat="59.3296874128" lon="34.6721087582"><ele>173.38</ele><time>2026-08-14T01:18:06Z</time></trkpt><trkpt lat="59.3296624348" lon="34.6721384302"><ele>173.48</ele><time>2026-08-14T01:18:33Z</time></trkpt><trkpt lat="59.3295159191" lon="34.6720593888"><ele>172.05</ele><time>2026-08-14T01:18:56Z</time></trkpt><trkpt lat="59.3293515500" lon="34.6719298046"><ele>172.10</ele><time>2026-08-14T01:19:21Z</time></trkpt><trkpt lat="59.3292083871" lon="34.6718163136"><ele>171.83</ele><time>2026-08-14T01:19:46Z</time></trkpt><trkpt lat="59.3290710915" lon="34.6716980450"><ele>172.25</ele><time>2026-08-14T01:20:05Z</time></trkpt><trkpt lat="59.3289519846" lon="34.6715976298"><ele>173.33</ele><time>2026-08-14T01:20:30Z</time></trkpt><trkpt lat="59.3288902938" lon="34.6715319995"><ele>173.58</ele><time>2026-08-14T01:20:53Z</time></trkpt><trkpt lat="59.3287474662" lon="34.6713405568"><ele>173.79</ele><time>2026-08-14T01:21:17Z</time></trkpt><trkpt lat="59.3286327180" lon="34.6712420695"><ele>173.82</ele><time>2026-08-14T01:21:33Z</time></trkpt><trkpt lat="59.3284442089" lon="34.6710549854"><ele>174.89</ele><time>2026-08-14T01:21:56Z</time></trkpt><trkpt lat="59.3283352442" lon="34.6709388122"><ele>175.71</ele><time>2026-08-14T01:22:12Z</time></trkpt><trkpt lat="59.3282914907" lon="34.6708936337"><ele>174.82</ele><time>2026-08-14T01:22:34Z</time></trkpt><trkpt lat="59.3282798398" lon="34.6708959807"><ele>174.57</ele><time>2026-08-14T01:23:01Z</time></trkpt><trkpt lat="59.3282728828" lon="34.6709144209"><ele>172.98</ele><time>2026-08-14T01:23:28Z</time></trkpt><trkpt lat="59.3282554485" lon="34.6709007584"><ele>171.02</ele><time>2026-08-14T01:24:09Z</time></trkpt><trkpt lat="59.3282608967" lon="34.6709040273"><ele>169.87</ele><time>2026-08-14T01:24:33Z</time></trkpt><trkpt lat="59.3282684404" lon="34.6709100623"><ele>170.22</ele><time>2026-08-14T01:24:57Z</time></trkpt><trkpt lat="59.3282862101" lon="34.6709261555"><ele>170.98</ele><time>2026-08-14T01:25:18Z</time></trkpt><trkpt lat="59.3282914069" lon="34.6709061228"><ele>171.70</ele><time>2026-08-14T01:25:42Z</time></trkpt><trkpt lat="59.3283102661" lon="34.6708900295"><ele>172.46</ele><time>2026-08-14T01:26:18Z</time></trkpt><trkpt lat="59.3283313885" lon="34.6708732657"><ele>172.56</ele><time>2026-08-14T01:26:51Z</time></trkpt><trkpt lat="59.3283030577" lon="34.6709063742"><ele>171.68</ele><time>2026-08-14T01:27:23Z</time></trkpt><trkpt lat="59.3283208273" lon="34.6708808932"><ele>172.48</ele><time>2026-08-14T01:27:54Z</time></trkpt><trkpt lat="59.3282920774" lon="34.6708699130"><ele>173.33</ele><time>2026-08-14T01:28:25Z</time></trkpt><trkpt lat="59.3282893952" lon="34.6708813962"><ele>175.59</ele><time>2026-08-14T01:28:56Z</time></trkpt><trkpt lat="59.3283105176" lon="34.6709114034"><ele>176.06</ele><time>2026-08-14T01:29:25Z</time></trkpt><trkpt lat="59.3283293769" lon="34.6709179413"><ele>177.29</ele><time>2026-08-14T01:29:46Z</time></trkpt><trkpt lat="59.3283551931" lon="34.6709119063"><ele>179.98</ele><time>2026-08-14T01:30:21Z</time></trkpt><trkpt lat="59.3283272814" lon="34.6709144209"><ele>176.68</ele><time>2026-08-14T01:30:45Z</time></trkpt><trkpt lat="59.3283225037" lon="34.6709405724"><ele>173.99</ele><time>2026-08-14T01:31:10Z</time></trkpt><trkpt lat="59.3283292092" lon="34.6709479485"><ele>173.94</ele><time>2026-08-14T01:31:11Z</time></trkpt><trkpt lat="59.3284739647" lon="34.6710678935"><ele>173.93</ele><time>2026-08-14T01:31:28Z</time></trkpt><trkpt lat="59.3284849450" lon="34.6710709948"><ele>174.03</ele><time>2026-08-14T01:31:29Z</time></trkpt><trkpt lat="59.3285272736" lon="34.6711065341"><ele>174.15</ele><time>2026-08-14T01:31:34Z</time></trkpt><trkpt lat="59.3286428601" lon="34.6712574922"><ele>173.71</ele><time>2026-08-14T01:31:49Z</time></trkpt><trkpt lat="59.3287806585" lon="34.6713601705"><ele>173.13</ele><time>2026-08-14T01:32:06Z</time></trkpt><trkpt lat="59.3287916388" lon="34.6713674627"><ele>172.99</ele><time>2026-08-14T01:32:07Z</time></trkpt><trkpt lat="59.3289498892" lon="34.6715961210"><ele>169.35</ele><time>2026-08-14T01:32:24Z</time></trkpt><trkpt lat="59.3290471192" lon="34.6717177425"><ele>167.78</ele><time>2026-08-14T01:32:34Z</time></trkpt><trkpt lat="59.3290640507" lon="34.6717485040"><ele>167.55</ele><time>2026-08-14T01:32:36Z</time></trkpt><trkpt lat="59.3291787989" lon="34.6718351729"><ele>165.59</ele><time>2026-08-14T01:32:50Z</time></trkpt><trkpt lat="59.3293716665" lon="34.6719688643"><ele>162.94</ele><time>2026-08-14T01:33:11Z</time></trkpt><trkpt lat="59.3293951359" lon="34.6719910763"><ele>162.87</ele><time>2026-08-14T01:33:13Z</time></trkpt><trkpt lat="59.3294490315" lon="34.6720247716"><ele>162.62</ele><time>2026-08-14T01:33:18Z</time></trkpt><trkpt lat="59.3296450842" lon="34.6721128654"><ele>164.31</ele><time>2026-08-14T01:33:34Z</time></trkpt><trkpt lat="59.3297600839" lon="34.6721501648"><ele>166.31</ele><time>2026-08-14T01:33:44Z</time></trkpt><trkpt lat="59.3298920989" lon="34.6721702814"><ele>167.61</ele><time>2026-08-14T01:33:56Z</time></trkpt><trkpt lat="59.3301286362" lon="34.6721564513"><ele>172.51</ele><time>2026-08-14T01:34:18Z</time></trkpt><trkpt lat="59.3302862998" lon="34.6721436270"><ele>170.09</ele><time>2026-08-14T01:34:34Z</time></trkpt><trkpt lat="59.3304245174" lon="34.6721121110"><ele>168.60</ele><time>2026-08-14T01:34:45Z</time></trkpt><trkpt lat="59.3304923270" lon="34.6720803436"><ele>169.13</ele><time>2026-08-14T01:34:50Z</time></trkpt><trkpt lat="59.3306224141" lon="34.6720759850"><ele>172.61</ele><time>2026-08-14T01:35:01Z</time></trkpt><trkpt lat="59.3306313828" lon="34.6720807627"><ele>173.41</ele><time>2026-08-14T01:35:02Z</time></trkpt><trkpt lat="59.3307184707" lon="34.6720975265"><ele>177.06</ele><time>2026-08-14T01:35:13Z</time></trkpt><trkpt lat="59.3308784813" lon="34.6722911485"><ele>180.34</ele><time>2026-08-14T01:35:34Z</time></trkpt><trkpt lat="59.3309928104" lon="34.6725841798"><ele>182.03</ele><time>2026-08-14T01:35:52Z</time></trkpt><trkpt lat="59.3310178723" lon="34.6726455353"><ele>182.47</ele><time>2026-08-14T01:35:54Z</time></trkpt><trkpt lat="59.3310932256" lon="34.6729337052"><ele>184.55</ele><time>2026-08-14T01:36:07Z</time></trkpt><trkpt lat="59.3312039506" lon="34.6732151695"><ele>185.05</ele><time>2026-08-14T01:36:25Z</time></trkpt><trkpt lat="59.3313392345" lon="34.6733787842"><ele>185.36</ele><time>2026-08-14T01:36:41Z</time></trkpt><trkpt lat="59.3313464429" lon="34.6733829752"><ele>185.45</ele><time>2026-08-14T01:36:42Z</time></trkpt><trkpt lat="59.3315708265" lon="34.6735728253"><ele>186.40</ele><time>2026-08-14T01:37:02Z</time></trkpt><trkpt lat="59.3317083735" lon="34.6735385433"><ele>186.37</ele><time>2026-08-14T01:37:19Z</time></trkpt><trkpt lat="59.3318892550" lon="34.6735515352"><ele>185.16</ele><time>2026-08-14T01:37:35Z</time></trkpt><trkpt lat="59.3319995608" lon="34.6738127153"><ele>183.15</ele><time>2026-08-14T01:37:52Z</time></trkpt><trkpt lat="59.3320475053" lon="34.6739512682"><ele>182.77</ele><time>2026-08-14T01:37:59Z</time></trkpt><trkpt lat="59.3321476690" lon="34.6742083412"><ele>182.54</ele><time>2026-08-14T01:38:12Z</time></trkpt><trkpt lat="59.3321881536" lon="34.6742928308"><ele>182.33</ele><time>2026-08-14T01:38:16Z</time></trkpt><trkpt lat="59.3322567176" lon="34.6743330639"><ele>182.04</ele><time>2026-08-14T01:38:25Z</time></trkpt><trkpt lat="59.3323875591" lon="34.6741664317"><ele>180.85</ele><time>2026-08-14T01:38:43Z</time></trkpt><trkpt lat="59.3323690351" lon="34.6738364361"><ele>179.65</ele><time>2026-08-14T01:39:03Z</time></trkpt><trkpt lat="59.3323018961" lon="34.6735483501"><ele>178.46</ele><time>2026-08-14T01:39:20Z</time></trkpt><trkpt lat="59.3322841264" lon="34.6732674725"><ele>176.39</ele><time>2026-08-14T01:39:36Z</time></trkpt><trkpt lat="59.3322552089" lon="34.6731233038"><ele>174.52</ele><time>2026-08-14T01:39:45Z</time></trkpt><trkpt lat="59.3322270457" lon="34.6728334576"><ele>173.34</ele><time>2026-08-14T01:40:01Z</time></trkpt><trkpt lat="59.3322360143" lon="34.6727577690"><ele>173.57</ele><time>2026-08-14T01:40:18Z</time></trkpt><trkpt lat="59.3322568852" lon="34.6727047116"><ele>180.13</ele><time>2026-08-14T01:40:44Z</time></trkpt><trkpt lat="59.3322376907" lon="34.6726943180"><ele>180.47</ele><time>2026-08-14T01:41:00Z</time></trkpt><trkpt lat="59.3322211783" lon="34.6727209724"><ele>179.89</ele><time>2026-08-14T01:41:28Z</time></trkpt><trkpt lat="59.3321819510" lon="34.6727050468"><ele>178.74</ele><time>2026-08-14T01:41:52Z</time></trkpt><trkpt lat="59.3321739882" lon="34.6727412567"><ele>176.00</ele><time>2026-08-14T01:42:22Z</time></trkpt><trkpt lat="59.3321827054" lon="34.6726964135"><ele>175.98</ele><time>2026-08-14T01:42:44Z</time></trkpt><trkpt lat="59.3322397862" lon="34.6724010352"><ele>175.48</ele><time>2026-08-14T01:43:03Z</time></trkpt><trkpt lat="59.3323204201" lon="34.6721124463"><ele>174.35</ele><time>2026-08-14T01:43:25Z</time></trkpt><trkpt lat="59.3324039876" lon="34.6718191635"><ele>171.62</ele><time>2026-08-14T01:43:42Z</time></trkpt><trkpt lat="59.3324899022" lon="34.6715127211"><ele>167.47</ele><time>2026-08-14T01:43:59Z</time></trkpt><trkpt lat="59.3325432949" lon="34.6712717414"><ele>163.85</ele><time>2026-08-14T01:44:14Z</time></trkpt><trkpt lat="59.3325764872" lon="34.6711213700"><ele>163.71</ele><time>2026-08-14T01:44:34Z</time></trkpt><trkpt lat="59.3325749785" lon="34.6710585058"><ele>164.21</ele><time>2026-08-14T01:45:10Z</time></trkpt><trkpt lat="59.3325826898" lon="34.6710699052"><ele>165.89</ele><time>2026-08-14T01:45:43Z</time></trkpt><trkpt lat="59.3326004595" lon="34.6710456815"><ele>170.15</ele><time>2026-08-14T01:46:07Z</time></trkpt><trkpt lat="59.3326536845" lon="34.6708543226"><ele>170.53</ele><time>2026-08-14T01:46:21Z</time></trkpt><trkpt lat="59.3327066582" lon="34.6705283504"><ele>168.53</ele><time>2026-08-14T01:46:42Z</time></trkpt><trkpt lat="59.3327190634" lon="34.6702556033"><ele>165.80</ele><time>2026-08-14T01:46:58Z</time></trkpt><trkpt lat="59.3327706959" lon="34.6699721273"><ele>162.99</ele><time>2026-08-14T01:47:15Z</time></trkpt><trkpt lat="59.3328213226" lon="34.6698679402"><ele>160.87</ele><time>2026-08-14T01:47:33Z</time></trkpt><trkpt lat="59.3328094203" lon="34.6698379330"><ele>161.77</ele><time>2026-08-14T01:47:53Z</time></trkpt><trkpt lat="59.3328082468" lon="34.6698551159"><ele>163.57</ele><time>2026-08-14T01:48:21Z</time></trkpt><trkpt lat="59.3327888008" lon="34.6697947662"><ele>165.53</ele><time>2026-08-14T01:48:47Z</time></trkpt><trkpt lat="59.3327887170" lon="34.6696618292"><ele>168.19</ele><time>2026-08-14T01:49:12Z</time></trkpt><trkpt lat="59.3328192271" lon="34.6695190854"><ele>170.27</ele><time>2026-08-14T01:49:29Z</time></trkpt><trkpt lat="59.3328343984" lon="34.6695111226"><ele>173.29</ele><time>2026-08-14T01:49:49Z</time></trkpt><trkpt lat="59.3327902257" lon="34.6693320852"><ele>174.70</ele><time>2026-08-14T01:50:08Z</time></trkpt><trkpt lat="59.3326984439" lon="34.6690706536"><ele>174.17</ele><time>2026-08-14T01:50:29Z</time></trkpt><trkpt lat="59.3326052371" lon="34.6688943822"><ele>172.73</ele><time>2026-08-14T01:50:47Z</time></trkpt><trkpt lat="59.3325686920" lon="34.6686557494"><ele>170.70</ele><time>2026-08-14T01:51:05Z</time></trkpt><trkpt lat="59.3325646687" lon="34.6684929729"><ele>171.38</ele><time>2026-08-14T01:51:19Z</time></trkpt><trkpt lat="59.3325204961" lon="34.6682566870"><ele>171.39</ele><time>2026-08-14T01:51:39Z</time></trkpt><trkpt lat="59.3325036485" lon="34.6681592055"><ele>172.61</ele><time>2026-08-14T01:51:57Z</time></trkpt><trkpt lat="59.3324987870" lon="34.6681478899"><ele>172.85</ele><time>2026-08-14T01:52:04Z</time></trkpt><trkpt lat="59.3325323146" lon="34.6681068186"><ele>173.56</ele><time>2026-08-14T01:52:28Z</time></trkpt><trkpt lat="59.3325422890" lon="34.6680739615"><ele>173.92</ele><time>2026-08-14T01:52:53Z</time></trkpt><trkpt lat="59.3325090967" lon="34.6681131050"><ele>174.26</ele><time>2026-08-14T01:53:15Z</time></trkpt><trkpt lat="59.3324562907" lon="34.6681299526"><ele>174.35</ele><time>2026-08-14T01:53:45Z</time></trkpt><trkpt lat="59.3324401136" lon="34.6681417711"><ele>175.25</ele><time>2026-08-14T01:54:11Z</time></trkpt><trkpt lat="59.3324144650" lon="34.6679235063"><ele>176.14</ele><time>2026-08-14T01:54:30Z</time></trkpt><trkpt lat="59.3323635031" lon="34.6677200776"><ele>174.09</ele><time>2026-08-14T01:54:44Z</time></trkpt><trkpt lat="59.3322863057" lon="34.6673677862"><ele>170.40</ele><time>2026-08-14T01:55:04Z</time></trkpt><trkpt lat="59.3322081864" lon="34.6670660377"><ele>168.92</ele><time>2026-08-14T01:55:26Z</time></trkpt><trkpt lat="59.3321228586" lon="34.6668752655"><ele>169.23</ele><time>2026-08-14T01:55:48Z</time></trkpt><trkpt lat="59.3321001437" lon="34.6668875031"><ele>171.53</ele><time>2026-08-14T01:56:10Z</time></trkpt><trkpt lat="59.3321143091" lon="34.6668855753"><ele>173.60</ele><time>2026-08-14T01:56:46Z</time></trkpt><trkpt lat="59.3321055081" lon="34.6667376347"><ele>173.03</ele><time>2026-08-14T01:57:30Z</time></trkpt><trkpt lat="59.3320481759" lon="34.6668008342"><ele>176.36</ele><time>2026-08-14T01:57:53Z</time></trkpt><trkpt lat="59.3319481798" lon="34.6667029336"><ele>177.05</ele><time>2026-08-14T01:58:07Z</time></trkpt><trkpt lat="59.3318094593" lon="34.6664688271"><ele>176.90</ele><time>2026-08-14T01:58:30Z</time></trkpt><trkpt lat="59.3317279872" lon="34.6664028615"><ele>175.01</ele><time>2026-08-14T01:58:48Z</time></trkpt><trkpt lat="59.3316462636" lon="34.6664906200"><ele>173.20</ele><time>2026-08-14T01:59:01Z</time></trkpt><trkpt lat="59.3315489497" lon="34.6665530652"><ele>170.05</ele><time>2026-08-14T01:59:17Z</time></trkpt><trkpt lat="59.3315045256" lon="34.6664843336"><ele>169.52</ele><time>2026-08-14T01:59:39Z</time></trkpt><trkpt lat="59.3315000832" lon="34.6665015165"><ele>170.92</ele><time>2026-08-14T02:00:02Z</time></trkpt><trkpt lat="59.3315299228" lon="34.6665331163"><ele>169.69</ele><time>2026-08-14T02:00:38Z</time></trkpt><trkpt lat="59.3314949702" lon="34.6664849203"><ele>171.28</ele><time>2026-08-14T02:01:05Z</time></trkpt><trkpt lat="59.3314870913" lon="34.6664790530"><ele>172.05</ele><time>2026-08-14T02:01:34Z</time></trkpt><trkpt lat="59.3314216286" lon="34.6664018556"><ele>172.97</ele><time>2026-08-14T02:01:58Z</time></trkpt><trkpt lat="59.3313967343" lon="34.6664101537"><ele>173.03</ele><time>2026-08-14T02:02:24Z</time></trkpt><trkpt lat="59.3313415814" lon="34.6663127560"><ele>173.06</ele><time>2026-08-14T02:02:52Z</time></trkpt><trkpt lat="59.3312428426" lon="34.6662008576"><ele>173.19</ele><time>2026-08-14T02:03:30Z</time></trkpt><trkpt lat="59.3311513122" lon="34.6662014443"><ele>172.06</ele><time>2026-08-14T02:03:51Z</time></trkpt><trkpt lat="59.3311184552" lon="34.6662436891"><ele>171.44</ele><time>2026-08-14T02:04:10Z</time></trkpt><trkpt lat="59.3310947344" lon="34.6660595387"><ele>169.20</ele><time>2026-08-14T02:04:28Z</time></trkpt><trkpt lat="59.3310607038" lon="34.6659179684"><ele>168.60</ele><time>2026-08-14T02:04:43Z</time></trkpt><trkpt lat="59.3310452811" lon="34.6658187266"><ele>168.84</ele><time>2026-08-14T02:05:06Z</time></trkpt><trkpt lat="59.3310226500" lon="34.6657395177"><ele>168.39</ele><time>2026-08-14T02:05:31Z</time></trkpt><trkpt lat="59.3310166989" lon="34.6657256037"><ele>165.94</ele><time>2026-08-14T02:06:04Z</time></trkpt><trkpt lat="59.3310271762" lon="34.6657126956"><ele>165.27</ele><time>2026-08-14T02:06:32Z</time></trkpt><trkpt lat="59.3310359772" lon="34.6657468937"><ele>163.54</ele><time>2026-08-14T02:06:59Z</time></trkpt><trkpt lat="59.3310192134" lon="34.6657966822"><ele>163.73</ele><time>2026-08-14T02:07:26Z</time></trkpt><trkpt lat="59.3310078140" lon="34.6657060739"><ele>164.50</ele><time>2026-08-14T02:07:49Z</time></trkpt><trkpt lat="59.3309710175" lon="34.6655887272"><ele>166.64</ele><time>2026-08-14T02:08:11Z</time></trkpt><trkpt lat="59.3309638090" lon="34.6654753201"><ele>166.84</ele><time>2026-08-14T02:08:28Z</time></trkpt><trkpt lat="59.3309091590" lon="34.6653728094"><ele>166.07</ele><time>2026-08-14T02:08:47Z</time></trkpt><trkpt lat="59.3308698479" lon="34.6653246135"><ele>167.09</ele><time>2026-08-14T02:09:12Z</time></trkpt><trkpt lat="59.3307906389" lon="34.6651842166"><ele>167.04</ele><time>2026-08-14T02:09:34Z</time></trkpt><trkpt lat="59.3307496514" lon="34.6651278064"><ele>167.90</ele><time>2026-08-14T02:09:56Z</time></trkpt><trkpt lat="59.3306913134" lon="34.6650752518"><ele>168.78</ele><time>2026-08-14T02:10:12Z</time></trkpt><trkpt lat="59.3306607194" lon="34.6650072746"><ele>169.43</ele><time>2026-08-14T02:10:28Z</time></trkpt><trkpt lat="59.3306065723" lon="34.6649752557"><ele>169.95</ele><time>2026-08-14T02:10:51Z</time></trkpt><trkpt lat="59.3305667583" lon="34.6649620961"><ele>170.17</ele><time>2026-08-14T02:11:10Z</time></trkpt><trkpt lat="59.3305235077" lon="34.6648799535"><ele>170.57</ele><time>2026-08-14T02:11:30Z</time></trkpt><trkpt lat="59.3304287083" lon="34.6648295783"><ele>170.51</ele><time>2026-08-14T02:11:49Z</time></trkpt><trkpt lat="59.3303860445" lon="34.6646675561"><ele>170.81</ele><time>2026-08-14T02:12:07Z</time></trkpt><trkpt lat="59.3303590547" lon="34.6645679791"><ele>170.52</ele><time>2026-08-14T02:12:27Z</time></trkpt><trkpt lat="59.3303413689" lon="34.6645548195"><ele>170.54</ele><time>2026-08-14T02:12:53Z</time></trkpt><trkpt lat="59.3303078413" lon="34.6645248961"><ele>171.46</ele><time>2026-08-14T02:13:20Z</time></trkpt><trkpt lat="59.3303196598" lon="34.6644863393"><ele>171.93</ele><time>2026-08-14T02:13:52Z</time></trkpt><trkpt lat="59.3302596454" lon="34.6643774584"><ele>170.99</ele><time>2026-08-14T02:14:20Z</time></trkpt><trkpt lat="59.3301874772" lon="34.6643446852"><ele>168.54</ele><time>2026-08-14T02:14:38Z</time></trkpt><trkpt lat="59.3301699590" lon="34.6643196233"><ele>169.89</ele><time>2026-08-14T02:14:58Z</time></trkpt><trkpt lat="59.3301691208" lon="34.6642498858"><ele>173.46</ele><time>2026-08-14T02:15:24Z</time></trkpt><trkpt lat="59.3301213440" lon="34.6641153563"><ele>170.06</ele><time>2026-08-14T02:15:39Z</time></trkpt><trkpt lat="59.3300910853" lon="34.6639046352"><ele>165.79</ele><time>2026-08-14T02:15:59Z</time></trkpt><trkpt lat="59.3300804403" lon="34.6636199020"><ele>161.87</ele><time>2026-08-14T02:16:20Z</time></trkpt><trkpt lat="59.3300671130" lon="34.6633547824"><ele>161.03</ele><time>2026-08-14T02:16:41Z</time></trkpt><trkpt lat="59.3300338369" lon="34.6632224321"><ele>162.36</ele><time>2026-08-14T02:17:01Z</time></trkpt><trkpt lat="59.3300022371" lon="34.6630778443"><ele>163.59</ele><time>2026-08-14T02:17:20Z</time></trkpt><trkpt lat="59.3299732357" lon="34.6628713142"><ele>165.02</ele><time>2026-08-14T02:17:40Z</time></trkpt><trkpt lat="59.3299754150" lon="34.6626808774"><ele>166.02</ele><time>2026-08-14T02:18:02Z</time></trkpt><trkpt lat="59.3299746606" lon="34.6626736689"><ele>166.12</ele><time>2026-08-14T02:18:08Z</time></trkpt><trkpt lat="59.3299987167" lon="34.6626885887"><ele>171.14</ele><time>2026-08-14T02:18:36Z</time></trkpt><trkpt lat="59.3299842998" lon="34.6626425721"><ele>171.36</ele><time>2026-08-14T02:19:03Z</time></trkpt><trkpt lat="59.3299861439" lon="34.6626346093"><ele>171.18</ele><time>2026-08-14T02:19:33Z</time></trkpt><trkpt lat="59.3299930170" lon="34.6626729146"><ele>172.34</ele><time>2026-08-14T02:19:53Z</time></trkpt><trkpt lat="59.3299826235" lon="34.6626123134"><ele>173.44</ele><time>2026-08-14T02:20:15Z</time></trkpt><trkpt lat="59.3299735710" lon="34.6625417378"><ele>173.42</ele><time>2026-08-14T02:20:25Z</time></trkpt><trkpt lat="59.3298952840" lon="34.6623934619"><ele>174.32</ele><time>2026-08-14T02:20:50Z</time></trkpt><trkpt lat="59.3299089465" lon="34.6623696573"><ele>176.22</ele><time>2026-08-14T02:21:15Z</time></trkpt><trkpt lat="59.3298639357" lon="34.6622346248"><ele>175.05</ele><time>2026-08-14T02:21:35Z</time></trkpt><trkpt lat="59.3298220262" lon="34.6620620415"><ele>174.39</ele><time>2026-08-14T02:21:54Z</time></trkpt><trkpt lat="59.3297565635" lon="34.6618723590"><ele>173.78</ele><time>2026-08-14T02:22:14Z</time></trkpt><trkpt lat="59.3297658674" lon="34.6617563535"><ele>172.45</ele><time>2026-08-14T02:22:30Z</time></trkpt><trkpt lat="59.3297277298" lon="34.6617401764"><ele>172.25</ele><time>2026-08-14T02:23:01Z</time></trkpt><trkpt lat="59.3297190126" lon="34.6617386676"><ele>173.12</ele><time>2026-08-14T02:23:20Z</time></trkpt><trkpt lat="59.3296876643" lon="34.6617343090"><ele>174.58</ele><time>2026-08-14T02:23:46Z</time></trkpt><trkpt lat="59.3296890892" lon="34.6616981830"><ele>176.29</ele><time>2026-08-14T02:24:19Z</time></trkpt><trkpt lat="59.3296909332" lon="34.6616312955"><ele>176.03</ele><time>2026-08-14T02:24:45Z</time></trkpt><trkpt lat="59.3296641950" lon="34.6614866238"><ele>175.34</ele><time>2026-08-14T02:25:02Z</time></trkpt><trkpt lat="59.3296686374" lon="34.6612757351"><ele>174.99</ele><time>2026-08-14T02:25:23Z</time></trkpt><trkpt lat="59.3296327628" lon="34.6610745694"><ele>174.53</ele><time>2026-08-14T02:25:41Z</time></trkpt><trkpt lat="59.3296133168" lon="34.6609645989"><ele>174.27</ele><time>2026-08-14T02:25:53Z</time></trkpt><trkpt lat="59.3295931164" lon="34.6607765090"><ele>174.26</ele><time>2026-08-14T02:26:12Z</time></trkpt><trkpt lat="59.3295103032" lon="34.6605900116"><ele>173.82</ele><time>2026-08-14T02:26:34Z</time></trkpt><trkpt lat="59.3294631969" lon="34.6604300849"><ele>173.59</ele><time>2026-08-14T02:26:53Z</time></trkpt><trkpt lat="59.3294435833" lon="34.6603107266"><ele>175.16</ele><time>2026-08-14T02:27:11Z</time></trkpt><trkpt lat="59.3294296693" lon="34.6602340322"><ele>175.00</ele><time>2026-08-14T02:27:40Z</time></trkpt><trkpt lat="59.3294343632" lon="34.6602121554"><ele>173.41</ele><time>2026-08-14T02:28:07Z</time></trkpt><trkpt lat="59.3294460140" lon="34.6602203697"><ele>173.09</ele><time>2026-08-14T02:28:35Z</time></trkpt><trkpt lat="59.3294452596" lon="34.6602419112"><ele>172.66</ele><time>2026-08-14T02:29:00Z</time></trkpt><trkpt lat="59.3294222094" lon="34.6600905340"><ele>172.95</ele><time>2026-08-14T02:29:20Z</time></trkpt><trkpt lat="59.3293761928" lon="34.6599286795"><ele>173.29</ele><time>2026-08-14T02:29:37Z</time></trkpt><trkpt lat="59.3293090537" lon="34.6598192118"><ele>173.77</ele><time>2026-08-14T02:29:55Z</time></trkpt><trkpt lat="59.3293027673" lon="34.6597410087"><ele>174.05</ele><time>2026-08-14T02:30:17Z</time></trkpt><trkpt lat="59.3293425813" lon="34.6596384142"><ele>174.85</ele><time>2026-08-14T02:30:42Z</time></trkpt><trkpt lat="59.3294293340" lon="34.6594327223"><ele>174.76</ele><time>2026-08-14T02:31:01Z</time></trkpt><trkpt lat="59.3294798769" lon="34.6592801716"><ele>174.09</ele><time>2026-08-14T02:31:19Z</time></trkpt><trkpt lat="59.3294841517" lon="34.6591330692"><ele>173.74</ele><time>2026-08-14T02:31:37Z</time></trkpt><trkpt lat="59.3295636959" lon="34.6590277087"><ele>173.43</ele><time>2026-08-14T02:31:56Z</time></trkpt><trkpt lat="59.3296916876" lon="34.6589214262"><ele>171.31</ele><time>2026-08-14T02:32:16Z</time></trkpt><trkpt lat="59.3297171686" lon="34.6589035727"><ele>170.56</ele><time>2026-08-14T02:32:40Z</time></trkpt><trkpt lat="59.3297380395" lon="34.6588974539"><ele>169.98</ele><time>2026-08-14T02:33:09Z</time></trkpt><trkpt lat="59.3297192641" lon="34.6589226834"><ele>170.71</ele><time>2026-08-14T02:33:35Z</time></trkpt><trkpt lat="59.3297216110" lon="34.6589271259"><ele>169.78</ele><time>2026-08-14T02:33:59Z</time></trkpt><trkpt lat="59.3297620118" lon="34.6588562988"><ele>169.64</ele><time>2026-08-14T02:34:22Z</time></trkpt><trkpt lat="59.3297737464" lon="34.6588229388"><ele>169.64</ele><time>2026-08-14T02:34:24Z</time></trkpt><trkpt lat="59.3297988083" lon="34.6587312408"><ele>169.63</ele><time>2026-08-14T02:34:37Z</time></trkpt><trkpt lat="59.3298245408" lon="34.6585768461"><ele>170.29</ele><time>2026-08-14T02:34:56Z</time></trkpt><trkpt lat="59.3298833817" lon="34.6584358625"><ele>170.27</ele><time>2026-08-14T02:35:13Z</time></trkpt><trkpt lat="59.3299556337" lon="34.6583001595"><ele>170.37</ele><time>2026-08-14T02:35:27Z</time></trkpt><trkpt lat="59.3300148100" lon="34.6582217887"><ele>170.12</ele><time>2026-08-14T02:35:37Z</time></trkpt><trkpt lat="59.3300858885" lon="34.6580995806"><ele>170.32</ele><time>2026-08-14T02:35:51Z</time></trkpt><trkpt lat="59.3301350903" lon="34.6580312680"><ele>170.65</ele><time>2026-08-14T02:36:08Z</time></trkpt><trkpt lat="59.3301456515" lon="34.6580176055"><ele>170.42</ele><time>2026-08-14T02:36:42Z</time></trkpt><trkpt lat="59.3301247805" lon="34.6579757798"><ele>173.03</ele><time>2026-08-14T02:37:08Z</time></trkpt><trkpt lat="59.3301304802" lon="34.6579778753"><ele>176.00</ele><time>2026-08-14T02:37:36Z</time></trkpt><trkpt lat="59.3301141355" lon="34.6579166036"><ele>176.91</ele><time>2026-08-14T02:38:04Z</time></trkpt><trkpt lat="59.3301702943" lon="34.6577284299"><ele>175.49</ele><time>2026-08-14T02:38:24Z</time></trkpt><trkpt lat="59.3301864713" lon="34.6577468701"><ele>174.26</ele><time>2026-08-14T02:38:45Z</time></trkpt><trkpt lat="59.3303000461" lon="34.6576113347"><ele>172.46</ele><time>2026-08-14T02:38:58Z</time></trkpt><trkpt lat="59.3304617330" lon="34.6574728657"><ele>170.07</ele><time>2026-08-14T02:39:20Z</time></trkpt><trkpt lat="59.3305963464" lon="34.6573584527"><ele>165.74</ele><time>2026-08-14T02:39:38Z</time></trkpt><trkpt lat="59.3306816742" lon="34.6573663317"><ele>162.86</ele><time>2026-08-14T02:39:57Z</time></trkpt><trkpt lat="59.3307628110" lon="34.6573740430"><ele>163.44</ele><time>2026-08-14T02:40:17Z</time></trkpt><trkpt lat="59.3307862803" lon="34.6573421080"><ele>167.61</ele><time>2026-08-14T02:40:41Z</time></trkpt><trkpt lat="59.3308025412" lon="34.6573678404"><ele>171.37</ele><time>2026-08-14T02:41:07Z</time></trkpt><trkpt lat="59.3307997752" lon="34.6573532559"><ele>172.28</ele><time>2026-08-14T02:41:32Z</time></trkpt><trkpt lat="59.3308161199" lon="34.6573503222"><ele>172.72</ele><time>2026-08-14T02:41:53Z</time></trkpt><trkpt lat="59.3308989331" lon="34.6573678404"><ele>173.46</ele><time>2026-08-14T02:42:17Z</time></trkpt><trkpt lat="59.3309907988" lon="34.6574524138"><ele>174.09</ele><time>2026-08-14T02:42:35Z</time></trkpt><trkpt lat="59.3311462831" lon="34.6576127596"><ele>171.88</ele><time>2026-08-14T02:42:57Z</time></trkpt><trkpt lat="59.3311712611" lon="34.6576376539"><ele>171.88</ele><time>2026-08-14T02:42:59Z</time></trkpt><trkpt lat="59.3312482908" lon="34.6577384043"><ele>171.22</ele><time>2026-08-14T02:43:09Z</time></trkpt><trkpt lat="59.3313224707" lon="34.6578378975"><ele>170.03</ele><time>2026-08-14T02:43:22Z</time></trkpt><trkpt lat="59.3314430024" lon="34.6580222156"><ele>169.65</ele><time>2026-08-14T02:43:40Z</time></trkpt><trkpt lat="59.3315027654" lon="34.6582026780"><ele>169.08</ele><time>2026-08-14T02:43:59Z</time></trkpt><trkpt lat="59.3315455969" lon="34.6582739241"><ele>169.12</ele><time>2026-08-14T02:44:27Z</time></trkpt><trkpt lat="59.3315746821" lon="34.6583004110"><ele>170.46</ele><time>2026-08-14T02:44:49Z</time></trkpt><trkpt lat="59.3315999117" lon="34.6582991537"><ele>171.70</ele><time>2026-08-14T02:45:16Z</time></trkpt><trkpt lat="59.3315836508" lon="34.6583005786"><ele>170.89</ele><time>2026-08-14T02:45:41Z</time></trkpt><trkpt lat="59.3315842375" lon="34.6583267301"><ele>169.59</ele><time>2026-08-14T02:46:06Z</time></trkpt><trkpt lat="59.3316418212" lon="34.6584651154"><ele>170.64</ele><time>2026-08-14T02:46:22Z</time></trkpt><trkpt lat="59.3317125645" lon="34.6585669555"><ele>171.28</ele><time>2026-08-14T02:46:43Z</time></trkpt><trkpt lat="59.3318215292" lon="34.6587076876"><ele>172.50</ele><time>2026-08-14T02:47:02Z</time></trkpt><trkpt lat="59.3319481798" lon="34.6587938536"><ele>172.84</ele><time>2026-08-14T02:47:20Z</time></trkpt><trkpt lat="59.3321111239" lon="34.6589167323"><ele>171.97</ele><time>2026-08-14T02:47:41Z</time></trkpt><trkpt lat="59.3322443962" lon="34.6589821111"><ele>171.09</ele><time>2026-08-14T02:47:57Z</time></trkpt><trkpt lat="59.3323495891" lon="34.6589908283"><ele>169.94</ele><time>2026-08-14T02:48:10Z</time></trkpt><trkpt lat="59.3324194942" lon="34.6589679457"><ele>169.72</ele><time>2026-08-14T02:48:23Z</time></trkpt><trkpt lat="59.3325411156" lon="34.6588521916"><ele>170.41</ele><time>2026-08-14T02:48:37Z</time></trkpt><trkpt lat="59.3325691111" lon="34.6588525269"><ele>169.69</ele><time>2026-08-14T02:48:53Z</time></trkpt><trkpt lat="59.3325666804" lon="34.6588412952"><ele>170.53</ele><time>2026-08-14T02:49:35Z</time></trkpt><trkpt lat="59.3325593043" lon="34.6588630043"><ele>170.20</ele><time>2026-08-14T02:50:07Z</time></trkpt><trkpt lat="59.3325722124" lon="34.6588547900"><ele>169.87</ele><time>2026-08-14T02:50:37Z</time></trkpt><trkpt lat="59.3326774891" lon="34.6586739086"><ele>169.13</ele><time>2026-08-14T02:50:52Z</time></trkpt><trkpt lat="59.3326741364" lon="34.6586381178"><ele>169.49</ele><time>2026-08-14T02:51:05Z</time></trkpt><trkpt lat="59.3327164650" lon="34.6586382855"><ele>169.08</ele><time>2026-08-14T02:51:17Z</time></trkpt><trkpt lat="59.3328304589" lon="34.6585266385"><ele>166.13</ele><time>2026-08-14T02:51:34Z</time></trkpt><trkpt lat="59.3328597117" lon="34.6584947035"><ele>165.15</ele><time>2026-08-14T02:51:38Z</time></trkpt><trkpt lat="59.3329743762" lon="34.6583882533"><ele>161.33</ele><time>2026-08-14T02:51:52Z</time></trkpt><trkpt lat="59.3330969196" lon="34.6582748462"><ele>157.04</ele><time>2026-08-14T02:52:12Z</time></trkpt><trkpt lat="59.3332058005" lon="34.6582007501"><ele>153.51</ele><time>2026-08-14T02:52:30Z</time></trkpt><trkpt lat="59.3333130889" lon="34.6581305936"><ele>150.99</ele><time>2026-08-14T02:52:46Z</time></trkpt><trkpt lat="59.3333952315" lon="34.6581405681"><ele>149.25</ele><time>2026-08-14T02:52:58Z</time></trkpt><trkpt lat="59.3334591016" lon="34.6580525581"><ele>153.45</ele><time>2026-08-14T02:53:17Z</time></trkpt><trkpt lat="59.3334883545" lon="34.6579604410"><ele>158.85</ele><time>2026-08-14T02:53:48Z</time></trkpt><trkpt lat="59.3335202895" lon="34.6580786258"><ele>163.33</ele><time>2026-08-14T02:54:28Z</time></trkpt><trkpt lat="59.3335085548" lon="34.6580752730"><ele>163.66</ele><time>2026-08-14T02:54:51Z</time></trkpt><trkpt lat="59.3335950561" lon="34.6579783782"><ele>164.25</ele><time>2026-08-14T02:55:13Z</time></trkpt><trkpt lat="59.3337183539" lon="34.6579804737"><ele>164.60</ele><time>2026-08-14T02:55:28Z</time></trkpt><trkpt lat="59.3338182662" lon="34.6579281706"><ele>163.74</ele><time>2026-08-14T02:55:44Z</time></trkpt><trkpt lat="59.3339562323" lon="34.6578437649"><ele>164.45</ele><time>2026-08-14T02:56:03Z</time></trkpt><trkpt lat="59.3340405542" lon="34.6577759553"><ele>163.60</ele><time>2026-08-14T02:56:21Z</time></trkpt><trkpt lat="59.3341708090" lon="34.6577337943"><ele>162.79</ele><time>2026-08-14T02:56:36Z</time></trkpt><trkpt lat="59.3342389539" lon="34.6576767135"><ele>162.10</ele><time>2026-08-14T02:56:50Z</time></trkpt><trkpt lat="59.3343236949" lon="34.6576555911"><ele>164.35</ele><time>2026-08-14T02:57:04Z</time></trkpt><trkpt lat="59.3343583122" lon="34.6576177888"><ele>166.95</ele><time>2026-08-14T02:57:32Z</time></trkpt><trkpt lat="59.3343537860" lon="34.6576264221"><ele>166.75</ele><time>2026-08-14T02:58:03Z</time></trkpt><trkpt lat="59.3343594857" lon="34.6576384921"><ele>166.86</ele><time>2026-08-14T02:58:36Z</time></trkpt><trkpt lat="59.3344215956" lon="34.6575523261"><ele>167.59</ele><time>2026-08-14T02:59:06Z</time></trkpt><trkpt lat="59.3345374335" lon="34.6575442795"><ele>167.74</ele><time>2026-08-14T02:59:25Z</time></trkpt><trkpt lat="59.3347260263" lon="34.6574638132"><ele>162.44</ele><time>2026-08-14T02:59:48Z</time></trkpt><trkpt lat="59.3348236755" lon="34.6575031243"><ele>162.33</ele><time>2026-08-14T03:00:06Z</time></trkpt><trkpt lat="59.3349094223" lon="34.6575385798"><ele>165.65</ele><time>2026-08-14T03:00:29Z</time></trkpt><trkpt lat="59.3350762222" lon="34.6576180402"><ele>162.35</ele><time>2026-08-14T03:00:50Z</time></trkpt><trkpt lat="59.3352073990" lon="34.6575982589"><ele>164.40</ele><time>2026-08-14T03:01:09Z</time></trkpt><trkpt lat="59.3352136854" lon="34.6575199720"><ele>170.08</ele><time>2026-08-14T03:01:36Z</time></trkpt><trkpt lat="59.3352307007" lon="34.6575164516"><ele>173.82</ele><time>2026-08-14T03:02:02Z</time></trkpt><trkpt lat="59.3352467101" lon="34.6575026214"><ele>175.76</ele><time>2026-08-14T03:02:24Z</time></trkpt><trkpt lat="59.3352798186" lon="34.6575220674"><ele>177.84</ele><time>2026-08-14T03:02:51Z</time></trkpt><trkpt lat="59.3353870232" lon="34.6576352231"><ele>175.16</ele><time>2026-08-14T03:03:10Z</time></trkpt><trkpt lat="59.3355444353" lon="34.6576771326"><ele>174.16</ele><time>2026-08-14T03:03:30Z</time></trkpt><trkpt lat="59.3356812280" lon="34.6576856822"><ele>169.38</ele><time>2026-08-14T03:03:48Z</time></trkpt><trkpt lat="59.3357678968" lon="34.6576110832"><ele>169.78</ele><time>2026-08-14T03:04:11Z</time></trkpt><trkpt lat="59.3358828127" lon="34.6577192936"><ele>170.49</ele><time>2026-08-14T03:04:33Z</time></trkpt><trkpt lat="59.3359347805" lon="34.6577331237"><ele>170.79</ele><time>2026-08-14T03:04:45Z</time></trkpt><trkpt lat="59.3360268138" lon="34.6577800624"><ele>172.16</ele><time>2026-08-14T03:05:10Z</time></trkpt><trkpt lat="59.3360398896" lon="34.6577295195"><ele>175.63</ele><time>2026-08-14T03:05:36Z</time></trkpt><trkpt lat="59.3360800389" lon="34.6576974168"><ele>174.80</ele><time>2026-08-14T03:06:08Z</time></trkpt><trkpt lat="59.3361004908" lon="34.6576980874"><ele>175.83</ele><time>2026-08-14T03:06:34Z</time></trkpt><trkpt lat="59.3362089526" lon="34.6577761229"><ele>172.98</ele><time>2026-08-14T03:06:56Z</time></trkpt><trkpt lat="59.3363064341" lon="34.6578663122"><ele>170.33</ele><time>2026-08-14T03:07:12Z</time></trkpt><trkpt lat="59.3363932706" lon="34.6579425875"><ele>167.96</ele><time>2026-08-14T03:07:21Z</time></trkpt><trkpt lat="59.3365241122" lon="34.6580006741"><ele>166.32</ele><time>2026-08-14T03:07:38Z</time></trkpt><trkpt lat="59.3367114477" lon="34.6579968184"><ele>166.04</ele><time>2026-08-14T03:07:57Z</time></trkpt><trkpt lat="59.3368133716" lon="34.6580461040"><ele>171.09</ele><time>2026-08-14T03:08:19Z</time></trkpt><trkpt lat="59.3368148804" lon="34.6580565814"><ele>172.01</ele><time>2026-08-14T03:08:46Z</time></trkpt><trkpt lat="59.3367609847" lon="34.6579880174"><ele>171.72</ele><time>2026-08-14T03:09:15Z</time></trkpt><trkpt lat="59.3367538601" lon="34.6579963993"><ele>173.27</ele><time>2026-08-14T03:09:45Z</time></trkpt><trkpt lat="59.3367283791" lon="34.6579969861"><ele>174.82</ele><time>2026-08-14T03:10:17Z</time></trkpt><trkpt lat="59.3367879745" lon="34.6579534840"><ele>174.39</ele><time>2026-08-14T03:10:31Z</time></trkpt><trkpt lat="59.3369442970" lon="34.6579226386"><ele>170.74</ele><time>2026-08-14T03:10:44Z</time></trkpt><trkpt lat="59.3370910641" lon="34.6577282622"><ele>166.64</ele><time>2026-08-14T03:11:00Z</time></trkpt><trkpt lat="59.3372224923" lon="34.6576207224"><ele>164.34</ele><time>2026-08-14T03:11:11Z</time></trkpt><trkpt lat="59.3373357318" lon="34.6574971732"><ele>162.61</ele><time>2026-08-14T03:11:24Z</time></trkpt><trkpt lat="59.3374090735" lon="34.6574043017"><ele>160.20</ele><time>2026-08-14T03:11:41Z</time></trkpt><trkpt lat="59.3374363147" lon="34.6574204788"><ele>165.40</ele><time>2026-08-14T03:12:06Z</time></trkpt><trkpt lat="59.3374384940" lon="34.6574420203"><ele>165.69</ele><time>2026-08-14T03:12:20Z</time></trkpt><trkpt lat="59.3374223169" lon="34.6573650744"><ele>169.15</ele><time>2026-08-14T03:13:02Z</time></trkpt><trkpt lat="59.3374589458" lon="34.6574013680"><ele>171.60</ele><time>2026-08-14T03:13:27Z</time></trkpt><trkpt lat="59.3375173677" lon="34.6574181318"><ele>174.01</ele><time>2026-08-14T03:13:51Z</time></trkpt><trkpt lat="59.3376223091" lon="34.6571934130"><ele>171.78</ele><time>2026-08-14T03:14:12Z</time></trkpt><trkpt lat="59.3376410846" lon="34.6571311355"><ele>171.70</ele><time>2026-08-14T03:14:18Z</time></trkpt><trkpt lat="59.3377835769" lon="34.6569764894"><ele>172.08</ele><time>2026-08-14T03:14:41Z</time></trkpt><trkpt lat="59.3378123268" lon="34.6569707058"><ele>172.61</ele><time>2026-08-14T03:14:45Z</time></trkpt><trkpt lat="59.3378504645" lon="34.6569085959"><ele>174.08</ele><time>2026-08-14T03:15:06Z</time></trkpt><trkpt lat="59.3379198667" lon="34.6568724699"><ele>174.98</ele><time>2026-08-14T03:15:25Z</time></trkpt><trkpt lat="59.3380202819" lon="34.6568155568"><ele>176.53</ele><time>2026-08-14T03:15:45Z</time></trkpt><trkpt lat="59.3380808830" lon="34.6568339970"><ele>177.34</ele><time>2026-08-14T03:16:06Z</time></trkpt><trkpt lat="59.3380800448" lon="34.6568392776"><ele>179.15</ele><time>2026-08-14T03:16:37Z</time></trkpt><trkpt lat="59.3380871695" lon="34.6568642557"><ele>181.04</ele><time>2026-08-14T03:17:06Z</time></trkpt><trkpt lat="59.3380935397" lon="34.6568054985"><ele>181.71</ele><time>2026-08-14T03:17:26Z</time></trkpt><trkpt lat="59.3381251395" lon="34.6567179076"><ele>180.17</ele><time>2026-08-14T03:17:52Z</time></trkpt><trkpt lat="59.3382713199" lon="34.6566599049"><ele>177.92</ele><time>2026-08-14T03:18:12Z</time></trkpt><trkpt lat="59.3383195996" lon="34.6566708013"><ele>177.80</ele><time>2026-08-14T03:18:35Z</time></trkpt><trkpt lat="59.3384786043" lon="34.6566785127"><ele>173.86</ele><time>2026-08-14T03:18:55Z</time></trkpt><trkpt lat="59.3386087753" lon="34.6565667819"><ele>170.97</ele><time>2026-08-14T03:19:14Z</time></trkpt><trkpt lat="59.3386351783" lon="34.6565410495"><ele>170.26</ele><time>2026-08-14T03:19:26Z</time></trkpt><trkpt lat="59.3386873137" lon="34.6565297339"><ele>169.91</ele><time>2026-08-14T03:19:44Z</time></trkpt><trkpt lat="59.3387511000" lon="34.6564693842"><ele>169.91</ele><time>2026-08-14T03:19:57Z</time></trkpt><trkpt lat="59.3388210889" lon="34.6564515308"><ele>170.18</ele><time>2026-08-14T03:20:12Z</time></trkpt><trkpt lat="59.3388838693" lon="34.6564550512"><ele>170.27</ele><time>2026-08-14T03:20:25Z</time></trkpt><trkpt lat="59.3389359210" lon="34.6564218588"><ele>169.79</ele><time>2026-08-14T03:20:38Z</time></trkpt><trkpt lat="59.3389598094" lon="34.6564098727"><ele>170.07</ele><time>2026-08-14T03:20:46Z</time></trkpt><trkpt lat="59.3389632460" lon="34.6564005688"><ele>170.09</ele><time>2026-08-14T03:21:05Z</time></trkpt><trkpt lat="59.3389612343" lon="34.6564045921"><ele>169.10</ele><time>2026-08-14T03:21:31Z</time></trkpt><trkpt lat="59.3389573786" lon="34.6564086992"><ele>168.62</ele><time>2026-08-14T03:21:48Z</time></trkpt><trkpt lat="59.3389596418" lon="34.6564074419"><ele>169.29</ele><time>2026-08-14T03:22:12Z</time></trkpt><trkpt lat="59.3389672693" lon="34.6564204339"><ele>168.92</ele><time>2026-08-14T03:22:41Z</time></trkpt><trkpt lat="59.3390051555" lon="34.6564186737"><ele>168.73</ele><time>2026-08-14T03:22:52Z</time></trkpt><trkpt lat="59.3390257750" lon="34.6564041730"><ele>168.69</ele><time>2026-08-14T03:23:05Z</time></trkpt><trkpt lat="59.3390463106" lon="34.6564252116"><ele>168.74</ele><time>2026-08-14T03:23:18Z</time></trkpt><trkpt lat="59.3390744738" lon="34.6564633492"><ele>169.00</ele><time>2026-08-14T03:23:34Z</time></trkpt><trkpt lat="59.3391280342" lon="34.6565433126"><ele>168.69</ele><time>2026-08-14T03:23:48Z</time></trkpt><trkpt lat="59.3392261025" lon="34.6565392893"><ele>168.73</ele><time>2026-08-14T03:24:03Z</time></trkpt><trkpt lat="59.3392851111" lon="34.6565661952"><ele>168.99</ele><time>2026-08-14T03:24:13Z</time></trkpt><trkpt lat="59.3393564411" lon="34.6565484256"><ele>167.42</ele><time>2026-08-14T03:24:29Z</time></trkpt><trkpt lat="59.3394407630" lon="34.6565157361"><ele>167.09</ele><time>2026-08-14T03:24:44Z</time></trkpt><trkpt lat="59.3395275995" lon="34.6564907581"><ele>167.23</ele><time>2026-08-14T03:25:02Z</time></trkpt><trkpt lat="59.3395400885" lon="34.6565056778"><ele>170.50</ele><time>2026-08-14T03:25:27Z</time></trkpt><trkpt lat="59.3395433575" lon="34.6565426420"><ele>170.94</ele><time>2026-08-14T03:25:42Z</time></trkpt><trkpt lat="59.3395450339" lon="34.6565343440"><ele>173.97</ele><time>2026-08-14T03:26:10Z</time></trkpt><trkpt lat="59.3395503145" lon="34.6565245371"><ele>174.61</ele><time>2026-08-14T03:26:39Z</time></trkpt><trkpt lat="59.3395571876" lon="34.6565280575"><ele>174.46</ele><time>2026-08-14T03:26:48Z</time></trkpt><trkpt lat="59.3395102490" lon="34.6565686259"><ele>175.02</ele><time>2026-08-14T03:27:23Z</time></trkpt><trkpt lat="59.3395240791" lon="34.6563946176"><ele>176.17</ele><time>2026-08-14T03:27:50Z</time></trkpt><trkpt lat="59.3395326287" lon="34.6563286521"><ele>176.01</ele><time>2026-08-14T03:27:53Z</time></trkpt><trkpt lat="59.3395886198" lon="34.6561449207"><ele>175.23</ele><time>2026-08-14T03:28:07Z</time></trkpt><trkpt lat="59.3395580258" lon="34.6561659593"><ele>175.26</ele><time>2026-08-14T03:28:20Z</time></trkpt><trkpt lat="59.3396114185" lon="34.6560248919"><ele>173.25</ele><time>2026-08-14T03:28:36Z</time></trkpt><trkpt lat="59.3395985942" lon="34.6558849979"><ele>173.14</ele><time>2026-08-14T03:28:48Z</time></trkpt><trkpt lat="59.3395922240" lon="34.6558368020"><ele>173.01</ele><time>2026-08-14T03:29:00Z</time></trkpt><trkpt lat="59.3395922240" lon="34.6558029391"><ele>172.48</ele><time>2026-08-14T03:29:22Z</time></trkpt><trkpt lat="59.3396327086" lon="34.6557369735"><ele>172.34</ele><time>2026-08-14T03:29:38Z</time></trkpt><trkpt lat="59.3396740314" lon="34.6556905378"><ele>172.14</ele><time>2026-08-14T03:29:52Z</time></trkpt><trkpt lat="59.3397174496" lon="34.6556178667"><ele>172.20</ele><time>2026-08-14T03:30:09Z</time></trkpt><trkpt lat="59.3397166114" lon="34.6555276774"><ele>172.72</ele><time>2026-08-14T03:30:31Z</time></trkpt><trkpt lat="59.3397860974" lon="34.6554256696"><ele>172.80</ele><time>2026-08-14T03:30:54Z</time></trkpt><trkpt lat="59.3398195412" lon="34.6553655714"><ele>173.43</ele><time>2026-08-14T03:31:15Z</time></trkpt><trkpt lat="59.3398295157" lon="34.6552750468"><ele>172.08</ele><time>2026-08-14T03:31:33Z</time></trkpt><trkpt lat="59.3398416694" lon="34.6551545151"><ele>171.81</ele><time>2026-08-14T03:31:53Z</time></trkpt><trkpt lat="59.3398325332" lon="34.6550386772"><ele>171.95</ele><time>2026-08-14T03:32:16Z</time></trkpt><trkpt lat="59.3398917094" lon="34.6549815126"><ele>172.07</ele><time>2026-08-14T03:32:35Z</time></trkpt><trkpt lat="59.3399005942" lon="34.6550331451"><ele>172.32</ele><time>2026-08-14T03:33:01Z</time></trkpt><trkpt lat="59.3399537355" lon="34.6550106816"><ele>171.71</ele><time>2026-08-14T03:33:19Z</time></trkpt><trkpt lat="59.3400106486" lon="34.6550139505"><ele>172.06</ele><time>2026-08-14T03:33:37Z</time></trkpt><trkpt lat="59.3401000835" lon="34.6550312173"><ele>170.26</ele><time>2026-08-14T03:33:53Z</time></trkpt><trkpt lat="59.3401393946" lon="34.6547848731"><ele>167.99</ele><time>2026-08-14T03:34:13Z</time></trkpt><trkpt lat="59.3401426636" lon="34.6547073405"><ele>167.81</ele><time>2026-08-14T03:34:35Z</time></trkpt><trkpt lat="59.3401291687" lon="34.6546209231"><ele>169.47</ele><time>2026-08-14T03:34:57Z</time></trkpt><trkpt lat="59.3401181046" lon="34.6543620899"><ele>168.04</ele><time>2026-08-14T03:35:16Z</time></trkpt><trkpt lat="59.3401019275" lon="34.6543207671"><ele>168.07</ele><time>2026-08-14T03:35:34Z</time></trkpt><trkpt lat="59.3401011731" lon="34.6543041710"><ele>170.82</ele><time>2026-08-14T03:36:19Z</time></trkpt><trkpt lat="59.3400971498" lon="34.6543040872"><ele>170.83</ele><time>2026-08-14T03:37:02Z</time></trkpt><trkpt lat="59.3400948867" lon="34.6542980522"><ele>171.07</ele><time>2026-08-14T03:37:36Z</time></trkpt><trkpt lat="59.3400922045" lon="34.6542915981"><ele>170.42</ele><time>2026-08-14T03:37:56Z</time></trkpt><trkpt lat="59.3400725070" lon="34.6542703081"><ele>169.98</ele><time>2026-08-14T03:38:17Z</time></trkpt><trkpt lat="59.3400596827" lon="34.6542331763"><ele>169.76</ele><time>2026-08-14T03:38:20Z</time></trkpt><trkpt lat="59.3399809767" lon="34.6540063620"><ele>168.07</ele><time>2026-08-14T03:38:36Z</time></trkpt><trkpt lat="59.3399403244" lon="34.6537716687"><ele>166.99</ele><time>2026-08-14T03:38:52Z</time></trkpt><trkpt lat="59.3399433419" lon="34.6536444314"><ele>166.83</ele><time>2026-08-14T03:39:09Z</time></trkpt><trkpt lat="59.3399848323" lon="34.6536026057"><ele>166.89</ele><time>2026-08-14T03:39:21Z</time></trkpt><trkpt lat="59.3400467746" lon="34.6535487939"><ele>166.17</ele><time>2026-08-14T03:39:35Z</time></trkpt><trkpt lat="59.3400896061" lon="34.6534067206"><ele>167.09</ele><time>2026-08-14T03:39:50Z</time></trkpt><trkpt lat="59.3400802184" lon="34.6532719396"><ele>166.61</ele><time>2026-08-14T03:40:02Z</time></trkpt><trkpt lat="59.3400905281" lon="34.6532560140"><ele>166.58</ele><time>2026-08-14T03:40:04Z</time></trkpt><trkpt lat="59.3401403166" lon="34.6530762222"><ele>165.24</ele><time>2026-08-14T03:40:19Z</time></trkpt><trkpt lat="59.3401443399" lon="34.6529349033"><ele>165.17</ele><time>2026-08-14T03:40:38Z</time></trkpt><trkpt lat="59.3400975689" lon="34.6527607273"><ele>163.97</ele><time>2026-08-14T03:40:55Z</time></trkpt><trkpt lat="59.3401529733" lon="34.6528230887"><ele>164.54</ele><time>2026-08-14T03:41:21Z</time></trkpt><trkpt lat="59.3402565736" lon="34.6529103443"><ele>165.00</ele><time>2026-08-14T03:41:39Z</time></trkpt><trkpt lat="59.3403638620" lon="34.6529971808"><ele>163.58</ele><time>2026-08-14T03:41:53Z</time></trkpt><trkpt lat="59.3404442444" lon="34.6530349832"><ele>167.04</ele><time>2026-08-14T03:42:11Z</time></trkpt><trkpt lat="59.3405506108" lon="34.6531136055"><ele>169.34</ele><time>2026-08-14T03:42:29Z</time></trkpt><trkpt lat="59.3407000601" lon="34.6530970931"><ele>171.67</ele><time>2026-08-14T03:42:49Z</time></trkpt><trkpt lat="59.3408199213" lon="34.6531081572"><ele>171.20</ele><time>2026-08-14T03:43:05Z</time></trkpt><trkpt lat="59.3409417104" lon="34.6530115977"><ele>171.22</ele><time>2026-08-14T03:43:26Z</time></trkpt><trkpt lat="59.3410225958" lon="34.6529509965"><ele>172.19</ele><time>2026-08-14T03:43:43Z</time></trkpt><trkpt lat="59.3410767429" lon="34.6528496593"><ele>170.67</ele><time>2026-08-14T03:44:00Z</time></trkpt><trkpt lat="59.3411561195" lon="34.6528855339"><ele>171.24</ele><time>2026-08-14T03:44:21Z</time></trkpt><trkpt lat="59.3412786629" lon="34.6529199835"><ele>170.31</ele><time>2026-08-14T03:44:40Z</time></trkpt><trkpt lat="59.3413820956" lon="34.6528682671"><ele>170.83</ele><time>2026-08-14T03:44:58Z</time></trkpt><trkpt lat="59.3414572813" lon="34.6527505014"><ele>172.59</ele><time>2026-08-14T03:45:19Z</time></trkpt><trkpt lat="59.3415626418" lon="34.6527228411"><ele>172.67</ele><time>2026-08-14T03:45:38Z</time></trkpt><trkpt lat="59.3417109177" lon="34.6526230127"><ele>169.53</ele><time>2026-08-14T03:45:59Z</time></trkpt><trkpt lat="59.3418030348" lon="34.6524516866"><ele>169.65</ele><time>2026-08-14T03:46:19Z</time></trkpt><trkpt lat="59.3418995105" lon="34.6523687895"><ele>170.10</ele><time>2026-08-14T03:46:40Z</time></trkpt><trkpt lat="59.3419570103" lon="34.6522894967"><ele>170.83</ele><time>2026-08-14T03:46:56Z</time></trkpt><trkpt lat="59.3420357164" lon="34.6521595772"><ele>170.87</ele><time>2026-08-14T03:47:16Z</time></trkpt><trkpt lat="59.3420508876" lon="34.6521408856"><ele>171.77</ele><time>2026-08-14T03:47:36Z</time></trkpt><trkpt lat="59.3421311863" lon="34.6521054301"><ele>170.45</ele><time>2026-08-14T03:47:54Z</time></trkpt><trkpt lat="59.3421673123" lon="34.6520103794"><ele>169.67</ele><time>2026-08-14T03:48:11Z</time></trkpt><trkpt lat="59.3421675637" lon="34.6519667935"><ele>166.67</ele><time>2026-08-14T03:48:35Z</time></trkpt><trkpt lat="59.3421765324" lon="34.6519592497"><ele>166.28</ele><time>2026-08-14T03:48:59Z</time></trkpt><trkpt lat="59.3421699945" lon="34.6520183422"><ele>167.75</ele><time>2026-08-14T03:49:29Z</time></trkpt><trkpt lat="59.3421788793" lon="34.6520282328"><ele>168.63</ele><time>2026-08-14T03:50:00Z</time></trkpt><trkpt lat="59.3422021810" lon="34.6520146541"><ele>169.07</ele><time>2026-08-14T03:50:28Z</time></trkpt><trkpt lat="59.3422329426" lon="34.6520198509"><ele>169.57</ele><time>2026-08-14T03:50:53Z</time></trkpt><trkpt lat="59.3422681466" lon="34.6519147418"><ele>169.66</ele><time>2026-08-14T03:51:10Z</time></trkpt><trkpt lat="59.3423446734" lon="34.6518195234"><ele>169.24</ele><time>2026-08-14T03:51:25Z</time></trkpt><trkpt lat="59.3424441665" lon="34.6516662184"><ele>168.39</ele><time>2026-08-14T03:51:40Z</time></trkpt><trkpt lat="59.3425236270" lon="34.6515256539"><ele>167.27</ele><time>2026-08-14T03:51:58Z</time></trkpt><trkpt lat="59.3426035903" lon="34.6514275856"><ele>166.48</ele><time>2026-08-14T03:52:14Z</time></trkpt><trkpt lat="59.3426901754" lon="34.6513158549"><ele>165.82</ele><time>2026-08-14T03:52:31Z</time></trkpt><trkpt lat="59.3427796941" lon="34.6512148529"><ele>165.07</ele><time>2026-08-14T03:52:49Z</time></trkpt><trkpt lat="59.3428684585" lon="34.6511128452"><ele>163.85</ele><time>2026-08-14T03:53:06Z</time></trkpt><trkpt lat="59.3429178279" lon="34.6510488074"><ele>163.62</ele><time>2026-08-14T03:53:24Z</time></trkpt><trkpt lat="59.3429451529" lon="34.6509973425"><ele>163.25</ele><time>2026-08-14T03:53:44Z</time></trkpt><trkpt lat="59.3429749086" lon="34.6509102546"><ele>163.19</ele><time>2026-08-14T03:54:01Z</time></trkpt><trkpt lat="59.3429756630" lon="34.6509059798"><ele>164.36</ele><time>2026-08-14T03:54:36Z</time></trkpt><trkpt lat="59.3429876491" lon="34.6508829296"><ele>165.21</ele><time>2026-08-14T03:55:02Z</time></trkpt><trkpt lat="59.3430017307" lon="34.6508936584"><ele>164.58</ele><time>2026-08-14T03:55:27Z</time></trkpt><trkpt lat="59.3430246972" lon="34.6508283634"><ele>166.50</ele><time>2026-08-14T03:55:48Z</time></trkpt><trkpt lat="59.3430497590" lon="34.6508558560"><ele>169.15</ele><time>2026-08-14T03:56:14Z</time></trkpt><trkpt lat="59.3430756591" lon="34.6507727075"><ele>169.92</ele><time>2026-08-14T03:56:33Z</time></trkpt><trkpt lat="59.3431434687" lon="34.6505541913"><ele>169.25</ele><time>2026-08-14T03:56:52Z</time></trkpt><trkpt lat="59.3431829475" lon="34.6504902374"><ele>169.93</ele><time>2026-08-14T03:57:09Z</time></trkpt><trkpt lat="59.3432403635" lon="34.6503116190"><ele>170.02</ele><time>2026-08-14T03:57:29Z</time></trkpt><trkpt lat="59.3432401959" lon="34.6501103695"><ele>169.35</ele><time>2026-08-14T03:57:45Z</time></trkpt><trkpt lat="59.3432743102" lon="34.6500179172"><ele>168.75</ele><time>2026-08-14T03:58:03Z</time></trkpt><trkpt lat="59.3433228415" lon="34.6498379577"><ele>167.64</ele><time>2026-08-14T03:58:21Z</time></trkpt><trkpt lat="59.3433753122" lon="34.6496260632"><ele>166.11</ele><time>2026-08-14T03:58:42Z</time></trkpt><trkpt lat="59.3434080016" lon="34.6494832356"><ele>165.69</ele><time>2026-08-14T03:58:59Z</time></trkpt><trkpt lat="59.3433723785" lon="34.6494476125"><ele>167.80</ele><time>2026-08-14T03:59:25Z</time></trkpt><trkpt lat="59.3434064928" lon="34.6494570002"><ele>168.52</ele><time>2026-08-14T04:00:02Z</time></trkpt><trkpt lat="59.3434025533" lon="34.6494538151"><ele>169.69</ele><time>2026-08-14T04:00:29Z</time></trkpt><trkpt lat="59.3434104323" lon="34.6494334470"><ele>169.13</ele><time>2026-08-14T04:01:03Z</time></trkpt><trkpt lat="59.3434648309" lon="34.6494181920"><ele>169.09</ele><time>2026-08-14T04:01:21Z</time></trkpt><trkpt lat="59.3435227498" lon="34.6492836624"><ele>169.86</ele><time>2026-08-14T04:01:41Z</time></trkpt><trkpt lat="59.3435745500" lon="34.6490228176"><ele>170.21</ele><time>2026-08-14T04:01:58Z</time></trkpt><trkpt lat="59.3436060660" lon="34.6487996075"><ele>169.81</ele><time>2026-08-14T04:02:11Z</time></trkpt><trkpt lat="59.3436721992" lon="34.6486107633"><ele>168.53</ele><time>2026-08-14T04:02:24Z</time></trkpt><trkpt lat="59.3437275197" lon="34.6483762376"><ele>166.39</ele><time>2026-08-14T04:02:41Z</time></trkpt><trkpt lat="59.3437913060" lon="34.6481562126"><ele>164.42</ele><time>2026-08-14T04:02:55Z</time></trkpt><trkpt lat="59.3438742030" lon="34.6479694638"><ele>163.13</ele><time>2026-08-14T04:03:11Z</time></trkpt><trkpt lat="59.3439921364" lon="34.6477117203"><ele>161.25</ele><time>2026-08-14T04:03:35Z</time></trkpt><trkpt lat="59.3440575153" lon="34.6475965530"><ele>160.61</ele><time>2026-08-14T04:03:51Z</time></trkpt><trkpt lat="59.3440709263" lon="34.6475604270"><ele>161.14</ele><time>2026-08-14T04:04:11Z</time></trkpt><trkpt lat="59.3440222275" lon="34.6474790387"><ele>160.82</ele><time>2026-08-14T04:04:38Z</time></trkpt><trkpt lat="59.3440373987" lon="34.6474724170"><ele>162.44</ele><time>2026-08-14T04:05:13Z</time></trkpt><trkpt lat="59.3440375663" lon="34.6475177631"><ele>162.56</ele><time>2026-08-14T04:05:39Z</time></trkpt><trkpt lat="59.3440890312" lon="34.6474551503"><ele>163.47</ele><time>2026-08-14T04:06:07Z</time></trkpt><trkpt lat="59.3442332838" lon="34.6472388972"><ele>163.47</ele><time>2026-08-14T04:06:28Z</time></trkpt><trkpt lat="59.3442363013" lon="34.6472180262"><ele>164.99</ele><time>2026-08-14T04:06:51Z</time></trkpt><trkpt lat="59.3442069646" lon="34.6472632885"><ele>164.15</ele><time>2026-08-14T04:07:09Z</time></trkpt><trkpt lat="59.3442255724" lon="34.6472101472"><ele>164.42</ele><time>2026-08-14T04:07:28Z</time></trkpt><trkpt lat="59.3441886082" lon="34.6471183654"><ele>164.46</ele><time>2026-08-14T04:07:46Z</time></trkpt><trkpt lat="59.3441005144" lon="34.6470169444"><ele>163.30</ele><time>2026-08-14T04:07:59Z</time></trkpt><trkpt lat="59.3441130035" lon="34.6468356438"><ele>164.30</ele><time>2026-08-14T04:08:21Z</time></trkpt><trkpt lat="59.3441402446" lon="34.6466970909"><ele>164.60</ele><time>2026-08-14T04:08:38Z</time></trkpt><trkpt lat="59.3441405799" lon="34.6466006991"><ele>165.13</ele><time>2026-08-14T04:08:53Z</time></trkpt><trkpt lat="59.3441395741" lon="34.6465841867"><ele>164.20</ele><time>2026-08-14T04:09:16Z</time></trkpt><trkpt lat="59.3442124128" lon="34.6464312170"><ele>163.76</ele><time>2026-08-14T04:09:31Z</time></trkpt><trkpt lat="59.3442060426" lon="34.6463991981"><ele>162.76</ele><time>2026-08-14T04:09:46Z</time></trkpt><trkpt lat="59.3442021869" lon="34.6463053208"><ele>161.51</ele><time>2026-08-14T04:09:58Z</time></trkpt><trkpt lat="59.3441558350" lon="34.6462527663"><ele>158.15</ele><time>2026-08-14T04:10:19Z</time></trkpt><trkpt lat="59.3441378139" lon="34.6462054923"><ele>158.17</ele><time>2026-08-14T04:11:10Z</time></trkpt><trkpt lat="59.3441028614" lon="34.6462125331"><ele>161.05</ele><time>2026-08-14T04:11:43Z</time></trkpt><trkpt lat="59.3440821581" lon="34.6462621540"><ele>163.29</ele><time>2026-08-14T04:12:23Z</time></trkpt><trkpt lat="59.3441138417" lon="34.6462719608"><ele>163.59</ele><time>2026-08-14T04:13:09Z</time></trkpt><trkpt lat="59.3441374786" lon="34.6462411992"><ele>162.73</ele><time>2026-08-14T04:13:39Z</time></trkpt><trkpt lat="59.3441326171" lon="34.6462233458"><ele>162.87</ele><time>2026-08-14T04:14:19Z</time></trkpt><trkpt lat="59.3441208825" lon="34.6462344937"><ele>163.17</ele><time>2026-08-14T04:15:06Z</time></trkpt><trkpt lat="59.3441160209" lon="34.6462004632"><ele>163.71</ele><time>2026-08-14T04:15:55Z</time></trkpt><trkpt lat="59.3441334553" lon="34.6461972781"><ele>163.77</ele><time>2026-08-14T04:16:39Z</time></trkpt><trkpt lat="59.3441744428" lon="34.6462300513"><ele>165.12</ele><time>2026-08-14T04:16:55Z</time></trkpt><trkpt lat="59.3441814836" lon="34.6462372597"><ele>165.28</ele><time>2026-08-14T04:17:15Z</time></trkpt><trkpt lat="59.3441776279" lon="34.6462338232"><ele>164.34</ele><time>2026-08-14T04:17:37Z</time></trkpt><trkpt lat="59.3441937212" lon="34.6461935900"><ele>165.22</ele><time>2026-08-14T04:18:31Z</time></trkpt><trkpt lat="59.3442150950" lon="34.6461560391"><ele>167.69</ele><time>2026-08-14T04:19:24Z</time></trkpt><trkpt lat="59.3441804778" lon="34.6461225115"><ele>167.94</ele><time>2026-08-14T04:19:55Z</time></trkpt><trkpt lat="59.3442159332" lon="34.6461240202"><ele>167.93</ele><time>2026-08-14T04:20:14Z</time></trkpt><trkpt lat="59.3442688230" lon="34.6458723955"><ele>167.22</ele><time>2026-08-14T04:20:30Z</time></trkpt><trkpt lat="59.3443003390" lon="34.6458646841"><ele>166.93</ele><time>2026-08-14T04:20:51Z</time></trkpt><trkpt lat="59.3443264067" lon="34.6458628401"><ele>167.05</ele><time>2026-08-14T04:21:22Z</time></trkpt><trkpt lat="59.3443024345" lon="34.6458159853"><ele>164.25</ele><time>2026-08-14T04:21:48Z</time></trkpt><trkpt lat="59.3443283346" lon="34.6456495207"><ele>163.90</ele><time>2026-08-14T04:22:05Z</time></trkpt><trkpt lat="59.3443966471" lon="34.6454875823"><ele>164.31</ele><time>2026-08-14T04:22:23Z</time></trkpt><trkpt lat="59.3444702402" lon="34.6453851555"><ele>165.02</ele><time>2026-08-14T04:22:43Z</time></trkpt><trkpt lat="59.3445460964" lon="34.6452517994"><ele>164.92</ele><time>2026-08-14T04:22:58Z</time></trkpt><trkpt lat="59.3445846532" lon="34.6451647952"><ele>164.18</ele><time>2026-08-14T04:23:12Z</time></trkpt><trkpt lat="59.3446623534" lon="34.6450554114"><ele>163.64</ele><time>2026-08-14T04:23:31Z</time></trkpt><trkpt lat="59.3447098788" lon="34.6449575946"><ele>163.72</ele><time>2026-08-14T04:23:47Z</time></trkpt><trkpt lat="59.3447004072" lon="34.6447840054"><ele>164.00</ele><time>2026-08-14T04:24:04Z</time></trkpt><trkpt lat="59.3447022513" lon="34.6445565205"><ele>164.26</ele><time>2026-08-14T04:24:19Z</time></trkpt><trkpt lat="59.3447238766" lon="34.6443791594"><ele>164.35</ele><time>2026-08-14T04:24:33Z</time></trkpt><trkpt lat="59.3447903451" lon="34.6441602241"><ele>164.91</ele><time>2026-08-14T04:24:49Z</time></trkpt><trkpt lat="59.3447869085" lon="34.6440510079"><ele>166.11</ele><time>2026-08-14T04:25:05Z</time></trkpt><trkpt lat="59.3447851483" lon="34.6439869702"><ele>169.79</ele><time>2026-08-14T04:25:33Z</time></trkpt><trkpt lat="59.3448372837" lon="34.6439769957"><ele>172.08</ele><time>2026-08-14T04:26:03Z</time></trkpt><trkpt lat="59.3448298238" lon="34.6439710446"><ele>172.15</ele><time>2026-08-14T04:26:05Z</time></trkpt><trkpt lat="59.3448076956" lon="34.6439925861"><ele>174.40</ele><time>2026-08-14T04:26:37Z</time></trkpt><trkpt lat="59.3447819632" lon="34.6439365111"><ele>174.69</ele><time>2026-08-14T04:27:06Z</time></trkpt><trkpt lat="59.3447791133" lon="34.6438890696"><ele>174.68</ele><time>2026-08-14T04:27:09Z</time></trkpt><trkpt lat="59.3447908480" lon="34.6437785123"><ele>174.62</ele><time>2026-08-14T04:27:14Z</time></trkpt><trkpt lat="59.3447972182" lon="34.6434479300"><ele>174.07</ele><time>2026-08-14T04:27:30Z</time></trkpt><trkpt lat="59.3448289018" lon="34.6432268154"><ele>172.32</ele><time>2026-08-14T04:27:43Z</time></trkpt><trkpt lat="59.3448811211" lon="34.6430342831"><ele>171.51</ele><time>2026-08-14T04:27:57Z</time></trkpt><trkpt lat="59.3449322507" lon="34.6429010108"><ele>170.48</ele><time>2026-08-14T04:28:07Z</time></trkpt><trkpt lat="59.3449823745" lon="34.6427380666"><ele>170.35</ele><time>2026-08-14T04:28:22Z</time></trkpt><trkpt lat="59.3449920975" lon="34.6426586900"><ele>171.60</ele><time>2026-08-14T04:28:49Z</time></trkpt><trkpt lat="59.3449779321" lon="34.6426273417"><ele>171.93</ele><time>2026-08-14T04:29:21Z</time></trkpt><trkpt lat="59.3449445721" lon="34.6426275093"><ele>172.54</ele><time>2026-08-14T04:29:46Z</time></trkpt><trkpt lat="59.3449567258" lon="34.6426574327"><ele>173.10</ele><time>2026-08-14T04:30:13Z</time></trkpt><trkpt lat="59.3449397944" lon="34.6426166967"><ele>173.71</ele><time>2026-08-14T04:30:44Z</time></trkpt><trkpt lat="59.3450878188" lon="34.6423592884"><ele>172.84</ele><time>2026-08-14T04:31:07Z</time></trkpt><trkpt lat="59.3451950233" lon="34.6420825180"><ele>173.17</ele><time>2026-08-14T04:31:24Z</time></trkpt><trkpt lat="59.3452719692" lon="34.6416838747"><ele>171.56</ele><time>2026-08-14T04:31:45Z</time></trkpt><trkpt lat="59.3452719692" lon="34.6414218564"><ele>169.34</ele><time>2026-08-14T04:32:04Z</time></trkpt><trkpt lat="59.3453026470" lon="34.6411665436"><ele>167.94</ele><time>2026-08-14T04:32:18Z</time></trkpt><trkpt lat="59.3452740647" lon="34.6410088800"><ele>166.63</ele><time>2026-08-14T04:32:37Z</time></trkpt><trkpt lat="59.3452274613" lon="34.6409265697"><ele>166.09</ele><time>2026-08-14T04:33:04Z</time></trkpt><trkpt lat="59.3452560436" lon="34.6408959758"><ele>165.61</ele><time>2026-08-14T04:33:19Z</time></trkpt><trkpt lat="59.3452739809" lon="34.6407471132"><ele>165.12</ele><time>2026-08-14T04:33:38Z</time></trkpt><trkpt lat="59.3453111965" lon="34.6405632142"><ele>165.06</ele><time>2026-08-14T04:33:53Z</time></trkpt><trkpt lat="59.3453401979" lon="34.6403498948"><ele>165.77</ele><time>2026-08-14T04:34:07Z</time></trkpt><trkpt lat="59.3453753181" lon="34.6400791593"><ele>167.89</ele><time>2026-08-14T04:34:27Z</time></trkpt><trkpt lat="59.3453726359" lon="34.6400830150"><ele>168.97</ele><time>2026-08-14T04:34:46Z</time></trkpt><trkpt lat="59.3453358393" lon="34.6400020458"><ele>171.74</ele><time>2026-08-14T04:35:14Z</time></trkpt><trkpt lat="59.3453078438" lon="34.6399562806"><ele>170.73</ele><time>2026-08-14T04:35:42Z</time></trkpt><trkpt lat="59.3453634158" lon="34.6398526803"><ele>169.97</ele><time>2026-08-14T04:36:01Z</time></trkpt><trkpt lat="59.3454544432" lon="34.6397995390"><ele>169.66</ele><time>2026-08-14T04:36:16Z</time></trkpt><trkpt lat="59.3455209956" lon="34.6396392770"><ele>170.16</ele><time>2026-08-14T04:36:34Z</time></trkpt><trkpt lat="59.3456359953" lon="34.6395060886"><ele>171.08</ele><time>2026-08-14T04:36:48Z</time></trkpt><trkpt lat="59.3457617238" lon="34.6394195873"><ele>171.67</ele><time>2026-08-14T04:37:07Z</time></trkpt><trkpt lat="59.3457857799" lon="34.6393073536"><ele>172.53</ele><time>2026-08-14T04:37:27Z</time></trkpt><trkpt lat="59.3458234984" lon="34.6391927730"><ele>171.68</ele><time>2026-08-14T04:37:48Z</time></trkpt><trkpt lat="59.3457604665" lon="34.6390848141"><ele>171.44</ele><time>2026-08-14T04:38:12Z</time></trkpt><trkpt lat="59.3456791621" lon="34.6389633603"><ele>170.14</ele><time>2026-08-14T04:38:35Z</time></trkpt><trkpt lat="59.3456013780" lon="34.6387597639"><ele>168.89</ele><time>2026-08-14T04:38:53Z</time></trkpt><trkpt lat="59.3455458898" lon="34.6386589296"><ele>167.69</ele><time>2026-08-14T04:39:15Z</time></trkpt><trkpt lat="59.3455049861" lon="34.6385530662"><ele>166.75</ele><time>2026-08-14T04:39:31Z</time></trkpt><trkpt lat="59.3454779964" lon="34.6383376513"><ele>165.94</ele><time>2026-08-14T04:39:52Z</time></trkpt><trkpt lat="59.3453847058" lon="34.6382398345"><ele>166.17</ele><time>2026-08-14T04:40:13Z</time></trkpt><trkpt lat="59.3453747313" lon="34.6382169519"><ele>166.44</ele><time>2026-08-14T04:40:17Z</time></trkpt><trkpt lat="59.3453012221" lon="34.6380800754"><ele>166.85</ele><time>2026-08-14T04:40:35Z</time></trkpt><trkpt lat="59.3452666886" lon="34.6380605455"><ele>165.54</ele><time>2026-08-14T04:40:52Z</time></trkpt><trkpt lat="59.3452484161" lon="34.6380655747"><ele>169.19</ele><time>2026-08-14T04:41:21Z</time></trkpt><trkpt lat="59.3452239409" lon="34.6380276885"><ele>169.14</ele><time>2026-08-14T04:41:48Z</time></trkpt><trkpt lat="59.3452099431" lon="34.6379488148"><ele>169.68</ele><time>2026-08-14T04:42:12Z</time></trkpt><trkpt lat="59.3451700453" lon="34.6378653310"><ele>169.41</ele><time>2026-08-14T04:42:28Z</time></trkpt><trkpt lat="59.3450987991" lon="34.6378359944"><ele>170.08</ele><time>2026-08-14T04:42:39Z</time></trkpt><trkpt lat="59.3449927680" lon="34.6377090085"><ele>172.15</ele><time>2026-08-14T04:42:57Z</time></trkpt><trkpt lat="59.3449091166" lon="34.6377297118"><ele>171.98</ele><time>2026-08-14T04:43:09Z</time></trkpt><trkpt lat="59.3447556440" lon="34.6376834437"><ele>172.37</ele><time>2026-08-14T04:43:31Z</time></trkpt><trkpt lat="59.3446378782" lon="34.6376432106"><ele>171.96</ele><time>2026-08-14T04:43:50Z</time></trkpt><trkpt lat="59.3446013331" lon="34.6375784185"><ele>172.25</ele><time>2026-08-14T04:44:06Z</time></trkpt><trkpt lat="59.3445020914" lon="34.6376634110"><ele>171.98</ele><time>2026-08-14T04:44:24Z</time></trkpt><trkpt lat="59.3444979843" lon="34.6376339067"><ele>173.26</ele><time>2026-08-14T04:44:37Z</time></trkpt><trkpt lat="59.3444396462" lon="34.6376888920"><ele>176.77</ele><time>2026-08-14T04:45:06Z</time></trkpt><trkpt lat="59.3444593437" lon="34.6377172228"><ele>177.30</ele><time>2026-08-14T04:45:31Z</time></trkpt><trkpt lat="59.3444834836" lon="34.6376265306"><ele>177.48</ele><time>2026-08-14T04:45:59Z</time></trkpt><trkpt lat="59.3444722518" lon="34.6376021393"><ele>178.71</ele><time>2026-08-14T04:46:29Z</time></trkpt><trkpt lat="59.3444045261" lon="34.6375833638"><ele>178.85</ele><time>2026-08-14T04:46:54Z</time></trkpt><trkpt lat="59.3443284184" lon="34.6374684479"><ele>177.44</ele><time>2026-08-14T04:47:14Z</time></trkpt><trkpt lat="59.3442578427" lon="34.6373605728"><ele>176.91</ele><time>2026-08-14T04:47:35Z</time></trkpt><trkpt lat="59.3441599421" lon="34.6373627521"><ele>176.43</ele><time>2026-08-14T04:47:54Z</time></trkpt><trkpt lat="59.3440511450" lon="34.6373422164"><ele>177.29</ele><time>2026-08-14T04:48:15Z</time></trkpt><trkpt lat="59.3440398294" lon="34.6373740677"><ele>177.20</ele><time>2026-08-14T04:48:18Z</time></trkpt><trkpt lat="59.3439502269" lon="34.6373428870"><ele>177.03</ele><time>2026-08-14T04:48:35Z</time></trkpt><trkpt lat="59.3438721076" lon="34.6373452339"><ele>177.12</ele><time>2026-08-14T04:48:51Z</time></trkpt><trkpt lat="59.3438205589" lon="34.6373377740"><ele>176.82</ele><time>2026-08-14T04:48:59Z</time></trkpt><trkpt lat="59.3438000232" lon="34.6373730619"><ele>179.07</ele><time>2026-08-14T04:49:24Z</time></trkpt><trkpt lat="59.3437604606" lon="34.6374151390"><ele>181.44</ele><time>2026-08-14T04:49:51Z</time></trkpt><trkpt lat="59.3437491450" lon="34.6373412944"><ele>184.24</ele><time>2026-08-14T04:50:19Z</time></trkpt><trkpt lat="59.3437136058" lon="34.6372202598"><ele>185.14</ele><time>2026-08-14T04:50:41Z</time></trkpt><trkpt lat="59.3436849397" lon="34.6371861454"><ele>184.19</ele><time>2026-08-14T04:50:57Z</time></trkpt><trkpt lat="59.3436209857" lon="34.6370440722"><ele>182.99</ele><time>2026-08-14T04:51:18Z</time></trkpt><trkpt lat="59.3435712811" lon="34.6369295754"><ele>183.31</ele><time>2026-08-14T04:51:36Z</time></trkpt><trkpt lat="59.3435652461" lon="34.6369413100"><ele>183.51</ele><time>2026-08-14T04:51:39Z</time></trkpt><trkpt lat="59.3434508331" lon="34.6370496880"><ele>183.37</ele><time>2026-08-14T04:51:57Z</time></trkpt><trkpt lat="59.3433419522" lon="34.6372423042"><ele>183.06</ele><time>2026-08-14T04:52:18Z</time></trkpt><trkpt lat="59.3432188220" lon="34.6373457368"><ele>182.51</ele><time>2026-08-14T04:52:38Z</time></trkpt><trkpt lat="59.3430269603" lon="34.6373507660"><ele>181.77</ele><time>2026-08-14T04:53:01Z</time></trkpt><trkpt lat="59.3430329952" lon="34.6373190824"><ele>180.79</ele><time>2026-08-14T04:53:26Z</time></trkpt><trkpt lat="59.3430399522" lon="34.6372454055"><ele>179.64</ele><time>2026-08-14T04:53:58Z</time></trkpt><trkpt lat="59.3430199195" lon="34.6372184996"><ele>176.79</ele><time>2026-08-14T04:54:33Z</time></trkpt><trkpt lat="59.3430293072" lon="34.6373448987"><ele>177.69</ele><time>2026-08-14T04:54:54Z</time></trkpt><trkpt lat="59.3430257030" lon="34.6373787615"><ele>177.79</ele><time>2026-08-14T04:55:01Z</time></trkpt><trkpt lat="59.3430124596" lon="34.6374508459"><ele>177.71</ele><time>2026-08-14T04:55:03Z</time></trkpt><trkpt lat="59.3429791834" lon="34.6377339028"><ele>178.13</ele><time>2026-08-14T04:55:24Z</time></trkpt><trkpt lat="59.3430300616" lon="34.6379747149"><ele>177.57</ele><time>2026-08-14T04:55:41Z</time></trkpt><trkpt lat="59.3430430535" lon="34.6380915586"><ele>176.14</ele><time>2026-08-14T04:56:02Z</time></trkpt><trkpt lat="59.3430670258" lon="34.6382537484"><ele>176.05</ele><time>2026-08-14T04:56:26Z</time></trkpt><trkpt lat="59.3430655170" lon="34.6383766271"><ele>176.03</ele><time>2026-08-14T04:56:41Z</time></trkpt><trkpt lat="59.3430593982" lon="34.6384475380"><ele>175.80</ele><time>2026-08-14T04:56:47Z</time></trkpt><trkpt lat="59.3430291396" lon="34.6384858433"><ele>175.67</ele><time>2026-08-14T04:56:51Z</time></trkpt><trkpt lat="59.3429643475" lon="34.6388063673"><ele>174.42</ele><time>2026-08-14T04:57:07Z</time></trkpt><trkpt lat="59.3429806083" lon="34.6388519648"><ele>174.37</ele><time>2026-08-14T04:57:10Z</time></trkpt><trkpt lat="59.3429676164" lon="34.6389875840"><ele>174.00</ele><time>2026-08-14T04:57:17Z</time></trkpt><trkpt lat="59.3430220988" lon="34.6390291583"><ele>175.18</ele><time>2026-08-14T04:57:50Z</time></trkpt><trkpt lat="59.3430632539" lon="34.6390739176"><ele>175.45</ele><time>2026-08-14T04:58:14Z</time></trkpt><trkpt lat="59.3431492522" lon="34.6391386259"><ele>175.74</ele><time>2026-08-14T04:58:33Z</time></trkpt><trkpt lat="59.3431945983" lon="34.6391342673"><ele>175.78</ele><time>2026-08-14T04:58:54Z</time></trkpt><trkpt lat="59.3432246894" lon="34.6390614286"><ele>175.41</ele><time>2026-08-14T04:59:09Z</time></trkpt><trkpt lat="59.3432436325" lon="34.6390544716"><ele>175.39</ele><time>2026-08-14T04:59:12Z</time></trkpt><trkpt lat="59.3432976119" lon="34.6390807070"><ele>175.00</ele><time>2026-08-14T04:59:24Z</time></trkpt><trkpt lat="59.3433531839" lon="34.6390859876"><ele>175.05</ele><time>2026-08-14T04:59:33Z</time></trkpt><trkpt lat="59.3434738833" lon="34.6390637755"><ele>175.84</ele><time>2026-08-14T04:59:53Z</time></trkpt><trkpt lat="59.3435644079" lon="34.6390755940"><ele>176.33</ele><time>2026-08-14T05:00:04Z</time></trkpt><trkpt lat="59.3436243385" lon="34.6391238738"><ele>176.96</ele><time>2026-08-14T05:00:28Z</time></trkpt><trkpt lat="59.3435759749" lon="34.6391481813"><ele>176.76</ele><time>2026-08-14T05:00:59Z</time></trkpt><trkpt lat="59.3436383363" lon="34.6391107980"><ele>176.99</ele><time>2026-08-14T05:01:26Z</time></trkpt><trkpt lat="59.3436048925" lon="34.6390953753"><ele>176.88</ele><time>2026-08-14T05:01:46Z</time></trkpt><trkpt lat="59.3436348159" lon="34.6390665416"><ele>177.21</ele><time>2026-08-14T05:02:16Z</time></trkpt><trkpt lat="59.3436384201" lon="34.6390801203"><ele>177.06</ele><time>2026-08-14T05:02:24Z</time></trkpt><trkpt lat="59.3436956685" lon="34.6390132327"><ele>181.78</ele><time>2026-08-14T05:02:48Z</time></trkpt><trkpt lat="59.3436309602" lon="34.6390709840"><ele>180.68</ele><time>2026-08-14T05:03:13Z</time></trkpt><trkpt lat="59.3435782380" lon="34.6391320881"><ele>179.06</ele><time>2026-08-14T05:03:41Z</time></trkpt><trkpt lat="59.3435631506" lon="34.6391252987"><ele>179.36</ele><time>2026-08-14T05:04:03Z</time></trkpt><trkpt lat="59.3435722869" lon="34.6391080320"><ele>180.30</ele><time>2026-08-14T05:04:31Z</time></trkpt><trkpt lat="59.3435828481" lon="34.6391294058"><ele>178.68</ele><time>2026-08-14T05:04:57Z</time></trkpt><trkpt lat="59.3435596302" lon="34.6390569024"><ele>177.03</ele><time>2026-08-14T05:05:22Z</time></trkpt><trkpt lat="59.3435016274" lon="34.6388954669"><ele>175.86</ele><time>2026-08-14T05:05:40Z</time></trkpt><trkpt lat="59.3434883002" lon="34.6388362069"><ele>175.49</ele><time>2026-08-14T05:05:46Z</time></trkpt><trkpt lat="59.3434203230" lon="34.6387770306"><ele>175.64</ele><time>2026-08-14T05:06:07Z</time></trkpt><trkpt lat="59.3432999589" lon="34.6389248036"><ele>174.99</ele><time>2026-08-14T05:06:27Z</time></trkpt><trkpt lat="59.3432097696" lon="34.6387903579"><ele>174.52</ele><time>2026-08-14T05:06:46Z</time></trkpt><trkpt lat="59.3431134615" lon="34.6386504639"><ele>174.03</ele><time>2026-08-14T05:07:06Z</time></trkpt><trkpt lat="59.3430323247" lon="34.6385670640"><ele>173.48</ele><time>2026-08-14T05:07:22Z</time></trkpt><trkpt lat="59.3429827876" lon="34.6385503002"><ele>171.88</ele><time>2026-08-14T05:07:45Z</time></trkpt><trkpt lat="59.3429773394" lon="34.6385218855"><ele>172.87</ele><time>2026-08-14T05:08:14Z</time></trkpt><trkpt lat="59.3429788481" lon="34.6385949757"><ele>172.75</ele><time>2026-08-14T05:08:39Z</time></trkpt><trkpt lat="59.3429302331" lon="34.6387886815"><ele>172.65</ele><time>2026-08-14T05:08:59Z</time></trkpt><trkpt lat="59.3429432251" lon="34.6388181020"><ele>172.06</ele><time>2026-08-14T05:09:21Z</time></trkpt><trkpt lat="59.3429276347" lon="34.6387477778"><ele>170.13</ele><time>2026-08-14T05:09:53Z</time></trkpt><trkpt lat="59.3429441471" lon="34.6387247276"><ele>170.08</ele><time>2026-08-14T05:10:25Z</time></trkpt><trkpt lat="59.3429560494" lon="34.6386886854"><ele>171.65</ele><time>2026-08-14T05:10:59Z</time></trkpt><trkpt lat="59.3429621682" lon="34.6387134120"><ele>170.05</ele><time>2026-08-14T05:11:31Z</time></trkpt><trkpt lat="59.3429159001" lon="34.6387355402"><ele>168.80</ele><time>2026-08-14T05:12:03Z</time></trkpt><trkpt lat="59.3429570552" lon="34.6387150884"><ele>169.59</ele><time>2026-08-14T05:12:34Z</time></trkpt><trkpt lat="59.3429599050" lon="34.6387265716"><ele>170.94</ele><time>2026-08-14T05:13:05Z</time></trkpt><trkpt lat="59.3429531157" lon="34.6386565827"><ele>170.62</ele><time>2026-08-14T05:13:36Z</time></trkpt><trkpt lat="59.3429527804" lon="34.6387145855"><ele>171.26</ele><time>2026-08-14T05:14:07Z</time></trkpt><trkpt lat="59.3429640122" lon="34.6388067864"><ele>168.51</ele><time>2026-08-14T05:14:36Z</time></trkpt><trkpt lat="59.3429607432" lon="34.6387543995"><ele>168.17</ele><time>2026-08-14T05:15:18Z</time></trkpt><trkpt lat="59.3430272955" lon="34.6388587542"><ele>167.90</ele><time>2026-08-14T05:15:44Z</time></trkpt><trkpt lat="59.3429553788" lon="34.6387820598"><ele>168.57</ele><time>2026-08-14T05:16:15Z</time></trkpt><trkpt lat="59.3429748248" lon="34.6387811378"><ele>169.82</ele><time>2026-08-14T05:16:58Z</time></trkpt><trkpt lat="59.3429656047" lon="34.6387263201"><ele>169.39</ele><time>2026-08-14T05:17:36Z</time></trkpt><trkpt lat="59.3429776747" lon="34.6387363784"><ele>171.70</ele><time>2026-08-14T05:18:00Z</time></trkpt><trkpt lat="59.3429504335" lon="34.6388746798"><ele>170.20</ele><time>2026-08-14T05:18:23Z</time></trkpt><trkpt lat="59.3429964501" lon="34.6388445050"><ele>169.06</ele><time>2026-08-14T05:18:49Z</time></trkpt><trkpt lat="59.3431060016" lon="34.6388994064"><ele>167.89</ele><time>2026-08-14T05:19:07Z</time></trkpt><trkpt lat="59.3432179000" lon="34.6389945410"><ele>167.38</ele><time>2026-08-14T05:19:26Z</time></trkpt><trkpt lat="59.3433277030" lon="34.6391729917"><ele>167.37</ele><time>2026-08-14T05:19:44Z</time></trkpt><trkpt lat="59.3434857856" lon="34.6392262168"><ele>166.43</ele><time>2026-08-14T05:20:01Z</time></trkpt><trkpt lat="59.3435201515" lon="34.6391919348"><ele>166.02</ele><time>2026-08-14T05:20:19Z</time></trkpt><trkpt lat="59.3436608836" lon="34.6391807031"><ele>167.10</ele><time>2026-08-14T05:20:40Z</time></trkpt><trkpt lat="59.3437782302" lon="34.6392223611"><ele>167.40</ele><time>2026-08-14T05:21:00Z</time></trkpt><trkpt lat="59.3439043779" lon="34.6392135601"><ele>167.24</ele><time>2026-08-14T05:21:19Z</time></trkpt><trkpt lat="59.3440169469" lon="34.6392939426"><ele>167.57</ele><time>2026-08-14T05:21:36Z</time></trkpt><trkpt lat="59.3440917972" lon="34.6393542085"><ele>168.24</ele><time>2026-08-14T05:21:58Z</time></trkpt><trkpt lat="59.3441200443" lon="34.6393305715"><ele>168.08</ele><time>2026-08-14T05:22:10Z</time></trkpt><trkpt lat="59.3442724273" lon="34.6394176595"><ele>167.25</ele><time>2026-08-14T05:22:35Z</time></trkpt><trkpt lat="59.3443906121" lon="34.6394757461"><ele>167.34</ele><time>2026-08-14T05:22:52Z</time></trkpt><trkpt lat="59.3444483634" lon="34.6395001374"><ele>168.07</ele><time>2026-08-14T05:22:59Z</time></trkpt><trkpt lat="59.3445298355" lon="34.6395500097"><ele>168.15</ele><time>2026-08-14T05:23:13Z</time></trkpt><trkpt lat="59.3445736729" lon="34.6396860480"><ele>167.89</ele><time>2026-08-14T05:23:28Z</time></trkpt><trkpt lat="59.3445776124" lon="34.6397218388"><ele>169.87</ele><time>2026-08-14T05:23:49Z</time></trkpt><trkpt lat="59.3445660453" lon="34.6397189889"><ele>169.88</ele><time>2026-08-14T05:23:51Z</time></trkpt><trkpt lat="59.3445046060" lon="34.6397763211"><ele>169.45</ele><time>2026-08-14T05:24:03Z</time></trkpt><trkpt lat="59.3444372993" lon="34.6399318893"><ele>169.39</ele><time>2026-08-14T05:24:19Z</time></trkpt><trkpt lat="59.3443462718" lon="34.6400509961"><ele>168.65</ele><time>2026-08-14T05:24:37Z</time></trkpt><trkpt lat="59.3443733454" lon="34.6402296983"><ele>169.03</ele><time>2026-08-14T05:25:00Z</time></trkpt><trkpt lat="59.3443264067" lon="34.6404650621"><ele>168.89</ele><time>2026-08-14T05:25:19Z</time></trkpt><trkpt lat="59.3442521431" lon="34.6406237315"><ele>167.74</ele><time>2026-08-14T05:25:35Z</time></trkpt><trkpt lat="59.3442057911" lon="34.6407999191"><ele>166.90</ele><time>2026-08-14T05:25:51Z</time></trkpt><trkpt lat="59.3441503029" lon="34.6410000790"><ele>167.11</ele><time>2026-08-14T05:26:06Z</time></trkpt><trkpt lat="59.3440934736" lon="34.6412029210"><ele>166.49</ele><time>2026-08-14T05:26:25Z</time></trkpt><trkpt lat="59.3441018555" lon="34.6412975527"><ele>166.20</ele><time>2026-08-14T05:26:49Z</time></trkpt><trkpt lat="59.3440741953" lon="34.6412914339"><ele>165.69</ele><time>2026-08-14T05:27:15Z</time></trkpt><trkpt lat="59.3440891989" lon="34.6413187589"><ele>165.17</ele><time>2026-08-14T05:27:45Z</time></trkpt><trkpt lat="59.3441165239" lon="34.6412136499"><ele>162.81</ele><time>2026-08-14T05:28:08Z</time></trkpt><trkpt lat="59.3440831639" lon="34.6413029172"><ele>161.06</ele><time>2026-08-14T05:28:32Z</time></trkpt><trkpt lat="59.3440203834" lon="34.6414715610"><ele>160.64</ele><time>2026-08-14T05:28:47Z</time></trkpt><trkpt lat="59.3440145161" lon="34.6415732335"><ele>161.13</ele><time>2026-08-14T05:28:59Z</time></trkpt><trkpt lat="59.3439635541" lon="34.6417433862"><ele>161.22</ele><time>2026-08-14T05:29:14Z</time></trkpt><trkpt lat="59.3439386599" lon="34.6419714577"><ele>161.45</ele><time>2026-08-14T05:29:31Z</time></trkpt><trkpt lat="59.3438970856" lon="34.6421614755"><ele>161.47</ele><time>2026-08-14T05:29:48Z</time></trkpt><trkpt lat="59.3438680843" lon="34.6423034649"><ele>160.83</ele><time>2026-08-14T05:30:05Z</time></trkpt><trkpt lat="59.3437935691" lon="34.6425045468"><ele>160.56</ele><time>2026-08-14T05:30:24Z</time></trkpt><trkpt lat="59.3437741231" lon="34.6426352207"><ele>159.92</ele><time>2026-08-14T05:30:41Z</time></trkpt><trkpt lat="59.3437791523" lon="34.6427060477"><ele>160.48</ele><time>2026-08-14T05:31:02Z</time></trkpt><trkpt lat="59.3437514920" lon="34.6427788027"><ele>160.78</ele><time>2026-08-14T05:31:25Z</time></trkpt><trkpt lat="59.3437265139" lon="34.6428899467"><ele>160.53</ele><time>2026-08-14T05:31:44Z</time></trkpt><trkpt lat="59.3436858617" lon="34.6430089697"><ele>159.93</ele><time>2026-08-14T05:31:59Z</time></trkpt><trkpt lat="59.3436868675" lon="34.6431244723"><ele>159.89</ele><time>2026-08-14T05:32:19Z</time></trkpt><trkpt lat="59.3436420243" lon="34.6431904379"><ele>161.43</ele><time>2026-08-14T05:32:40Z</time></trkpt><trkpt lat="59.3436243385" lon="34.6432414837"><ele>161.47</ele><time>2026-08-14T05:33:06Z</time></trkpt><trkpt lat="59.3436198961" lon="34.6432869136"><ele>162.57</ele><time>2026-08-14T05:33:32Z</time></trkpt><trkpt lat="59.3435794115" lon="34.6433027554"><ele>165.22</ele><time>2026-08-14T05:33:56Z</time></trkpt><trkpt lat="59.3435514160" lon="34.6434217785"><ele>166.20</ele><time>2026-08-14T05:34:14Z</time></trkpt><trkpt lat="59.3435199000" lon="34.6436051745"><ele>165.90</ele><time>2026-08-14T05:34:34Z</time></trkpt><trkpt lat="59.3434811756" lon="34.6438010596"><ele>166.37</ele><time>2026-08-14T05:34:52Z</time></trkpt><trkpt lat="59.3434548564" lon="34.6439840365"><ele>166.32</ele><time>2026-08-14T05:35:09Z</time></trkpt><trkpt lat="59.3434341531" lon="34.6440592222"><ele>166.31</ele><time>2026-08-14T05:35:30Z</time></trkpt><trkpt lat="59.3434592988" lon="34.6439901553"><ele>166.63</ele><time>2026-08-14T05:35:53Z</time></trkpt><trkpt lat="59.3433448020" lon="34.6443131100"><ele>166.29</ele><time>2026-08-14T05:36:18Z</time></trkpt><trkpt lat="59.3433380965" lon="34.6444877889"><ele>167.05</ele><time>2026-08-14T05:36:35Z</time></trkpt><trkpt lat="59.3433331512" lon="34.6445348114"><ele>167.98</ele><time>2026-08-14T05:36:58Z</time></trkpt><trkpt lat="59.3433849514" lon="34.6445212327"><ele>168.95</ele><time>2026-08-14T05:37:24Z</time></trkpt><trkpt lat="59.3433794193" lon="34.6445265133"><ele>169.36</ele><time>2026-08-14T05:37:48Z</time></trkpt><trkpt lat="59.3433451373" lon="34.6445421036"><ele>169.84</ele><time>2026-08-14T05:38:14Z</time></trkpt><trkpt lat="59.3434132822" lon="34.6446227375"><ele>170.39</ele><time>2026-08-14T05:38:33Z</time></trkpt><trkpt lat="59.3435133621" lon="34.6448325366"><ele>169.40</ele><time>2026-08-14T05:38:52Z</time></trkpt><trkpt lat="59.3436773960" lon="34.6449586004"><ele>168.06</ele><time>2026-08-14T05:39:10Z</time></trkpt><trkpt lat="59.3438260909" lon="34.6450373903"><ele>166.77</ele><time>2026-08-14T05:39:31Z</time></trkpt><trkpt lat="59.3438858539" lon="34.6451570000"><ele>166.91</ele><time>2026-08-14T05:39:49Z</time></trkpt><trkpt lat="59.3439388275" lon="34.6452447586"><ele>165.90</ele><time>2026-08-14T05:40:06Z</time></trkpt><trkpt lat="59.3439741991" lon="34.6452673897"><ele>164.89</ele><time>2026-08-14T05:40:31Z</time></trkpt><trkpt lat="59.3440073077" lon="34.6453826409"><ele>163.81</ele><time>2026-08-14T05:40:50Z</time></trkpt><trkpt lat="59.3441109080" lon="34.6455205232"><ele>162.81</ele><time>2026-08-14T05:41:10Z</time></trkpt><trkpt lat="59.3442275003" lon="34.6455916017"><ele>162.36</ele><time>2026-08-14T05:41:28Z</time></trkpt><trkpt lat="59.3443182763" lon="34.6458374429"><ele>161.50</ele><time>2026-08-14T05:41:49Z</time></trkpt><trkpt lat="59.3443279993" lon="34.6458846331"><ele>160.86</ele><time>2026-08-14T05:42:04Z</time></trkpt><trkpt lat="59.3443238083" lon="34.6459035762"><ele>161.77</ele><time>2026-08-14T05:42:30Z</time></trkpt><trkpt lat="59.3443233892" lon="34.6459107846"><ele>162.66</ele><time>2026-08-14T05:42:52Z</time></trkpt><trkpt lat="59.3443227187" lon="34.6459215973"><ele>164.12</ele><time>2026-08-14T05:43:20Z</time></trkpt><trkpt lat="59.3443206232" lon="34.6459340863"><ele>163.57</ele><time>2026-08-14T05:44:01Z</time></trkpt><trkpt lat="59.3443131633" lon="34.6459221840"><ele>163.43</ele><time>2026-08-14T05:44:32Z</time></trkpt><trkpt lat="59.3442931306" lon="34.6459407080"><ele>163.02</ele><time>2026-08-14T05:45:04Z</time></trkpt><trkpt lat="59.3442749418" lon="34.6459157299"><ele>162.31</ele><time>2026-08-14T05:45:36Z</time></trkpt><trkpt lat="59.3443014286" lon="34.6459339187"><ele>161.54</ele><time>2026-08-14T05:46:08Z</time></trkpt><trkpt lat="59.3442736845" lon="34.6459001396"><ele>161.47</ele><time>2026-08-14T05:46:35Z</time></trkpt><trkpt lat="59.3443118222" lon="34.6459417138"><ele>162.31</ele><time>2026-08-14T05:47:07Z</time></trkpt><trkpt lat="59.3443308491" lon="34.6459205914"><ele>162.69</ele><time>2026-08-14T05:47:49Z</time></trkpt><trkpt lat="59.3443091400" lon="34.6459471621"><ele>162.61</ele><time>2026-08-14T05:48:16Z</time></trkpt><trkpt lat="59.3443190306" lon="34.6459573042"><ele>163.29</ele><time>2026-08-14T05:48:43Z</time></trkpt><trkpt lat="59.3443228863" lon="34.6459496766"><ele>162.10</ele><time>2026-08-14T05:48:56Z</time></trkpt><trkpt lat="59.3443134986" lon="34.6459158976"><ele>162.21</ele><time>2026-08-14T05:49:11Z</time></trkpt><trkpt lat="59.3443302624" lon="34.6459325776"><ele>163.79</ele><time>2026-08-14T05:49:32Z</time></trkpt><trkpt lat="59.3443352077" lon="34.6459478326"><ele>164.38</ele><time>2026-08-14T05:49:47Z</time></trkpt><trkpt lat="59.3443313520" lon="34.6459675301"><ele>163.76</ele><time>2026-08-14T05:50:14Z</time></trkpt><trkpt lat="59.3443673104" lon="34.6458974574"><ele>164.35</ele><time>2026-08-14T05:50:26Z</time></trkpt><trkpt lat="59.3443932105" lon="34.6458406281"><ele>163.66</ele><time>2026-08-14T05:50:32Z</time></trkpt><trkpt lat="59.3444637023" lon="34.6458511055"><ele>159.97</ele><time>2026-08-14T05:50:44Z</time></trkpt><trkpt lat="59.3445138261" lon="34.6458908357"><ele>161.85</ele><time>2026-08-14T05:50:55Z</time></trkpt><trkpt lat="59.3445968069" lon="34.6458925959"><ele>161.51</ele><time>2026-08-14T05:51:08Z</time></trkpt><trkpt lat="59.3446503673" lon="34.6459333319"><ele>160.26</ele><time>2026-08-14T05:51:20Z</time></trkpt><trkpt lat="59.3447081186" lon="34.6460329928"><ele>161.77</ele><time>2026-08-14T05:51:35Z</time></trkpt><trkpt lat="59.3447187636" lon="34.6460958570"><ele>162.42</ele><time>2026-08-14T05:51:39Z</time></trkpt><trkpt lat="59.3448004033" lon="34.6461899020"><ele>163.66</ele><time>2026-08-14T05:51:53Z</time></trkpt><trkpt lat="59.3448611721" lon="34.6462110244"><ele>162.92</ele><time>2026-08-14T05:52:06Z</time></trkpt><trkpt lat="59.3448726553" lon="34.6463513374"><ele>165.54</ele><time>2026-08-14T05:52:21Z</time></trkpt><trkpt lat="59.3448450789" lon="34.6465488151"><ele>167.65</ele><time>2026-08-14T05:52:37Z</time></trkpt><trkpt lat="59.3448383734" lon="34.6467175428"><ele>169.23</ele><time>2026-08-14T05:52:53Z</time></trkpt><trkpt lat="59.3448887486" lon="34.6468135156"><ele>169.64</ele><time>2026-08-14T05:53:11Z</time></trkpt><trkpt lat="59.3449133914" lon="34.6468607057"><ele>170.03</ele><time>2026-08-14T05:53:33Z</time></trkpt><trkpt lat="59.3449359387" lon="34.6468469594"><ele>171.65</ele><time>2026-08-14T05:54:00Z</time></trkpt><trkpt lat="59.3449791893" lon="34.6468211431"><ele>171.45</ele><time>2026-08-14T05:54:26Z</time></trkpt><trkpt lat="59.3449977972" lon="34.6468939818"><ele>170.43</ele><time>2026-08-14T05:54:45Z</time></trkpt><trkpt lat="59.3450118788" lon="34.6470004320"><ele>169.72</ele><time>2026-08-14T05:55:04Z</time></trkpt><trkpt lat="59.3450304028" lon="34.6471338719"><ele>170.00</ele><time>2026-08-14T05:55:21Z</time></trkpt><trkpt lat="59.3450255413" lon="34.6472381428"><ele>170.14</ele><time>2026-08-14T05:55:43Z</time></trkpt><trkpt lat="59.3450234458" lon="34.6473321039"><ele>171.31</ele><time>2026-08-14T05:56:01Z</time></trkpt><trkpt lat="59.3449978810" lon="34.6473817248"><ele>173.59</ele><time>2026-08-14T05:56:27Z</time></trkpt><trkpt lat="59.3450196739" lon="34.6473816410"><ele>175.07</ele><time>2026-08-14T05:56:51Z</time></trkpt><trkpt lat="59.3450332526" lon="34.6473323554"><ele>176.80</ele><time>2026-08-14T05:57:18Z</time></trkpt><trkpt lat="59.3450514413" lon="34.6472981572"><ele>180.73</ele><time>2026-08-14T05:57:51Z</time></trkpt><trkpt lat="59.3450309895" lon="34.6473624464"><ele>180.56</ele><time>2026-08-14T05:58:15Z</time></trkpt><trkpt lat="59.3450218532" lon="34.6473721694"><ele>181.07</ele><time>2026-08-14T05:58:41Z</time></trkpt><trkpt lat="59.3450547941" lon="34.6473549027"><ele>180.36</ele><time>2026-08-14T05:59:06Z</time></trkpt><trkpt lat="59.3450415507" lon="34.6473808028"><ele>179.31</ele><time>2026-08-14T05:59:22Z</time></trkpt><trkpt lat="59.3450431433" lon="34.6473943815"><ele>179.50</ele><time>2026-08-14T05:59:50Z</time></trkpt><trkpt lat="59.3450439814" lon="34.6473676432"><ele>179.51</ele><time>2026-08-14T06:00:15Z</time></trkpt><trkpt lat="59.3449977133" lon="34.6474493667"><ele>169.73</ele><time>2026-08-14T06:02:50Z</time></trkpt><trkpt lat="59.3450356834" lon="34.6473689005"><ele>178.39</ele><time>2026-08-14T06:03:14Z</time></trkpt><trkpt lat="59.3450715579" lon="34.6474176832"><ele>181.29</ele><time>2026-08-14T06:03:31Z</time></trkpt><trkpt lat="59.3451778404" lon="34.6475015022"><ele>179.25</ele><time>2026-08-14T06:03:49Z</time></trkpt><trkpt lat="59.3452351727" lon="34.6475802083"><ele>179.06</ele><time>2026-08-14T06:04:06Z</time></trkpt><trkpt lat="59.3453625776" lon="34.6476105507"><ele>176.47</ele><time>2026-08-14T06:04:23Z</time></trkpt><trkpt lat="59.3454435468" lon="34.6476025041"><ele>174.45</ele><time>2026-08-14T06:04:46Z</time></trkpt><trkpt lat="59.3454878032" lon="34.6476712357"><ele>174.59</ele><time>2026-08-14T06:05:02Z</time></trkpt><trkpt lat="59.3454774935" lon="34.6477132291"><ele>175.00</ele><time>2026-08-14T06:05:25Z</time></trkpt><trkpt lat="59.3455041479" lon="34.6477382071"><ele>176.08</ele><time>2026-08-14T06:05:57Z</time></trkpt><trkpt lat="59.3455038127" lon="34.6477158275"><ele>177.64</ele><time>2026-08-14T06:06:22Z</time></trkpt><trkpt lat="59.3454935029" lon="34.6477341000"><ele>177.37</ele><time>2026-08-14T06:06:50Z</time></trkpt><trkpt lat="59.3454776611" lon="34.6477647778"><ele>178.49</ele><time>2026-08-14T06:07:18Z</time></trkpt><trkpt lat="59.3455148768" lon="34.6478700545"><ele>178.94</ele><time>2026-08-14T06:07:37Z</time></trkpt><trkpt lat="59.3455882184" lon="34.6479790192"><ele>179.03</ele><time>2026-08-14T06:07:55Z</time></trkpt><trkpt lat="59.3456525914" lon="34.6480305679"><ele>178.70</ele><time>2026-08-14T06:08:11Z</time></trkpt><trkpt lat="59.3456983566" lon="34.6481841244"><ele>177.91</ele><time>2026-08-14T06:08:31Z</time></trkpt><trkpt lat="59.3457789067" lon="34.6483441349"><ele>176.47</ele><time>2026-08-14T06:08:52Z</time></trkpt><trkpt lat="59.3458224088" lon="34.6484337375"><ele>176.31</ele><time>2026-08-14T06:09:09Z</time></trkpt><trkpt lat="59.3458255101" lon="34.6484504174"><ele>175.03</ele><time>2026-08-14T06:09:35Z</time></trkpt><trkpt lat="59.3458388373" lon="34.6484823525"><ele>175.62</ele><time>2026-08-14T06:09:56Z</time></trkpt><trkpt lat="59.3458582833" lon="34.6484401915"><ele>174.84</ele><time>2026-08-14T06:10:20Z</time></trkpt><trkpt lat="59.3458701018" lon="34.6484193206"><ele>176.57</ele><time>2026-08-14T06:10:45Z</time></trkpt><trkpt lat="59.3458608817" lon="34.6484173089"><ele>175.95</ele><time>2026-08-14T06:11:04Z</time></trkpt><trkpt lat="59.3458815012" lon="34.6484385990"><ele>175.63</ele><time>2026-08-14T06:11:18Z</time></trkpt><trkpt lat="59.3459398393" lon="34.6484884713"><ele>175.90</ele><time>2026-08-14T06:11:39Z</time></trkpt><trkpt lat="59.3459935673" lon="34.6486241743"><ele>175.33</ele><time>2026-08-14T06:11:59Z</time></trkpt><trkpt lat="59.3460590299" lon="34.6488085762"><ele>175.74</ele><time>2026-08-14T06:12:19Z</time></trkpt><trkpt lat="59.3460934795" lon="34.6489347238"><ele>176.80</ele><time>2026-08-14T06:12:39Z</time></trkpt><trkpt lat="59.3461610377" lon="34.6490031201"><ele>177.59</ele><time>2026-08-14T06:12:54Z</time></trkpt><trkpt lat="59.3461882789" lon="34.6490959078"><ele>178.90</ele><time>2026-08-14T06:13:17Z</time></trkpt><trkpt lat="59.3462414201" lon="34.6491379011"><ele>178.87</ele><time>2026-08-14T06:13:49Z</time></trkpt><trkpt lat="59.3463135883" lon="34.6492632106"><ele>179.50</ele><time>2026-08-14T06:14:10Z</time></trkpt><trkpt lat="59.3463585991" lon="34.6493637934"><ele>179.99</ele><time>2026-08-14T06:14:29Z</time></trkpt><trkpt lat="59.3464299291" lon="34.6493951418"><ele>179.62</ele><time>2026-08-14T06:14:50Z</time></trkpt><trkpt lat="59.3464890216" lon="34.6494830679"><ele>180.26</ele><time>2026-08-14T06:15:05Z</time></trkpt><trkpt lat="59.3466113973" lon="34.6495258156"><ele>179.68</ele><time>2026-08-14T06:15:23Z</time></trkpt><trkpt lat="59.3466838170" lon="34.6496356186"><ele>179.24</ele><time>2026-08-14T06:15:38Z</time></trkpt><trkpt lat="59.3467346113" lon="34.6496905200"><ele>181.65</ele><time>2026-08-14T06:15:58Z</time></trkpt><trkpt lat="59.3467601761" lon="34.6497190185"><ele>185.00</ele><time>2026-08-14T06:16:25Z</time></trkpt><trkpt lat="59.3467658758" lon="34.6497363690"><ele>186.58</ele><time>2026-08-14T06:16:49Z</time></trkpt><trkpt lat="59.3467496987" lon="34.6497663762"><ele>187.59</ele><time>2026-08-14T06:17:16Z</time></trkpt><trkpt lat="59.3467200268" lon="34.6497323457"><ele>189.82</ele><time>2026-08-14T06:17:40Z</time></trkpt><trkpt lat="59.3466604315" lon="34.6497648675"><ele>188.90</ele><time>2026-08-14T06:17:59Z</time></trkpt><trkpt lat="59.3466006685" lon="34.6499087010"><ele>188.07</ele><time>2026-08-14T06:18:16Z</time></trkpt><trkpt lat="59.3465253152" lon="34.6500010695"><ele>188.27</ele><time>2026-08-14T06:18:34Z</time></trkpt><trkpt lat="59.3464548234" lon="34.6501003951"><ele>188.24</ele><time>2026-08-14T06:18:49Z</time></trkpt><trkpt lat="59.3463772070" lon="34.6502863895"><ele>187.71</ele><time>2026-08-14T06:19:07Z</time></trkpt><trkpt lat="59.3463259097" lon="34.6504399460"><ele>187.21</ele><time>2026-08-14T06:19:24Z</time></trkpt><trkpt lat="59.3462645542" lon="34.6505706199"><ele>185.49</ele><time>2026-08-14T06:19:44Z</time></trkpt><trkpt lat="59.3462593574" lon="34.6505619865"><ele>184.45</ele><time>2026-08-14T06:20:03Z</time></trkpt><trkpt lat="59.3462300207" lon="34.6506085899"><ele>182.96</ele><time>2026-08-14T06:20:33Z</time></trkpt><trkpt lat="59.3462405819" lon="34.6505976934"><ele>181.61</ele><time>2026-08-14T06:21:03Z</time></trkpt><trkpt lat="59.3462619558" lon="34.6505761519"><ele>181.13</ele><time>2026-08-14T06:21:28Z</time></trkpt><trkpt lat="59.3462192081" lon="34.6504986193"><ele>180.14</ele><time>2026-08-14T06:21:54Z</time></trkpt><trkpt lat="59.3461446092" lon="34.6503561269"><ele>180.11</ele><time>2026-08-14T06:22:12Z</time></trkpt><trkpt lat="59.3460272625" lon="34.6503024828"><ele>181.21</ele><time>2026-08-14T06:22:34Z</time></trkpt><trkpt lat="59.3459282722" lon="34.6502919216"><ele>181.26</ele><time>2026-08-14T06:22:53Z</time></trkpt><trkpt lat="59.3458609655" lon="34.6502511855"><ele>181.38</ele><time>2026-08-14T06:23:13Z</time></trkpt><trkpt lat="59.3457960058" lon="34.6501609962"><ele>181.94</ele><time>2026-08-14T06:23:31Z</time></trkpt><trkpt lat="59.3457317166" lon="34.6501089446"><ele>181.73</ele><time>2026-08-14T06:23:44Z</time></trkpt><trkpt lat="59.3456698582" lon="34.6500798594"><ele>183.01</ele><time>2026-08-14T06:24:09Z</time></trkpt><trkpt lat="59.3456929084" lon="34.6500799432"><ele>183.21</ele><time>2026-08-14T06:24:32Z</time></trkpt><trkpt lat="59.3456597999" lon="34.6500491817"><ele>183.31</ele><time>2026-08-14T06:24:57Z</time></trkpt><trkpt lat="59.3456623983" lon="34.6500760037"><ele>183.53</ele><time>2026-08-14T06:25:17Z</time></trkpt><trkpt lat="59.3456540164" lon="34.6500812005"><ele>184.03</ele><time>2026-08-14T06:25:42Z</time></trkpt><trkpt lat="59.3456383422" lon="34.6499579027"><ele>184.40</ele><time>2026-08-14T06:26:02Z</time></trkpt><trkpt lat="59.3456167169" lon="34.6499283146"><ele>184.44</ele><time>2026-08-14T06:26:15Z</time></trkpt><trkpt lat="59.3455142900" lon="34.6498597506"><ele>183.47</ele><time>2026-08-14T06:26:35Z</time></trkpt><trkpt lat="59.3454608135" lon="34.6497627720"><ele>183.01</ele><time>2026-08-14T06:26:55Z</time></trkpt><trkpt lat="59.3453957699" lon="34.6496289968"><ele>182.85</ele><time>2026-08-14T06:27:12Z</time></trkpt><trkpt lat="59.3452994619" lon="34.6494960599"><ele>182.01</ele><time>2026-08-14T06:27:32Z</time></trkpt><trkpt lat="59.3451869767" lon="34.6494772844"><ele>180.98</ele><time>2026-08-14T06:27:54Z</time></trkpt><trkpt lat="59.3451226875" lon="34.6492773760"><ele>180.85</ele><time>2026-08-14T06:28:15Z</time></trkpt><trkpt lat="59.3451018166" lon="34.6492589358"><ele>181.30</ele><time>2026-08-14T06:28:39Z</time></trkpt><trkpt lat="59.3450836278" lon="34.6492150985"><ele>181.00</ele><time>2026-08-14T06:29:07Z</time></trkpt><trkpt lat="59.3451039121" lon="34.6492389869"><ele>181.54</ele><time>2026-08-14T06:29:37Z</time></trkpt><trkpt lat="59.3451060914" lon="34.6492561698"><ele>181.43</ele><time>2026-08-14T06:30:12Z</time></trkpt><trkpt lat="59.3450812809" lon="34.6492390707"><ele>181.71</ele><time>2026-08-14T06:30:37Z</time></trkpt><trkpt lat="59.3449777644" lon="34.6492052078"><ele>181.03</ele><time>2026-08-14T06:30:57Z</time></trkpt><trkpt lat="59.3449107092" lon="34.6491046250"><ele>180.49</ele><time>2026-08-14T06:31:14Z</time></trkpt><trkpt lat="59.3448195979" lon="34.6490601171"><ele>181.02</ele><time>2026-08-14T06:31:32Z</time></trkpt><trkpt lat="59.3447651155" lon="34.6490574349"><ele>181.14</ele><time>2026-08-14T06:31:49Z</time></trkpt><trkpt lat="59.3447157461" lon="34.6490224823"><ele>181.20</ele><time>2026-08-14T06:32:08Z</time></trkpt><trkpt lat="59.3446673825" lon="34.6489529964"><ele>181.66</ele><time>2026-08-14T06:32:26Z</time></trkpt><trkpt lat="59.3446312565" lon="34.6488527488"><ele>180.86</ele><time>2026-08-14T06:32:44Z</time></trkpt><trkpt lat="59.3445779476" lon="34.6487313788"><ele>180.62</ele><time>2026-08-14T06:33:04Z</time></trkpt><trkpt lat="59.3445229623" lon="34.6485811751"><ele>181.00</ele><time>2026-08-14T06:33:26Z</time></trkpt><trkpt lat="59.3444953859" lon="34.6484221704"><ele>180.77</ele><time>2026-08-14T06:33:45Z</time></trkpt><trkpt lat="59.3444941286" lon="34.6483862121"><ele>181.05</ele><time>2026-08-14T06:34:13Z</time></trkpt><trkpt lat="59.3444853276" lon="34.6484044846"><ele>180.57</ele><time>2026-08-14T06:34:33Z</time></trkpt><trkpt lat="59.3444704916" lon="34.6484473161"><ele>182.14</ele><time>2026-08-14T06:35:00Z</time></trkpt><trkpt lat="59.3444745149" lon="34.6484782454"><ele>182.64</ele><time>2026-08-14T06:35:26Z</time></trkpt><trkpt lat="59.3444635347" lon="34.6484855376"><ele>182.53</ele><time>2026-08-14T06:35:51Z</time></trkpt><trkpt lat="59.3444541469" lon="34.6484947577"><ele>182.12</ele><time>2026-08-14T06:36:14Z</time></trkpt><trkpt lat="59.3444438372" lon="34.6485938318"><ele>181.90</ele><time>2026-08-14T06:36:33Z</time></trkpt><trkpt lat="59.3443702441" lon="34.6487668343"><ele>181.11</ele><time>2026-08-14T06:36:51Z</time></trkpt><trkpt lat="59.3443695735" lon="34.6489312034"><ele>180.40</ele><time>2026-08-14T06:37:07Z</time></trkpt><trkpt lat="59.3443528097" lon="34.6491678245"><ele>179.49</ele><time>2026-08-14T06:37:24Z</time></trkpt><trkpt lat="59.3443368003" lon="34.6493479516"><ele>179.56</ele><time>2026-08-14T06:37:40Z</time></trkpt><trkpt lat="59.3443558272" lon="34.6495262347"><ele>178.79</ele><time>2026-08-14T06:37:59Z</time></trkpt><trkpt lat="59.3443292566" lon="34.6495596785"><ele>179.37</ele><time>2026-08-14T06:38:22Z</time></trkpt><trkpt lat="59.3442952260" lon="34.6496253926"><ele>179.39</ele><time>2026-08-14T06:38:40Z</time></trkpt><trkpt lat="59.3442641292" lon="34.6497433260"><ele>179.60</ele><time>2026-08-14T06:39:00Z</time></trkpt><trkpt lat="59.3442036957" lon="34.6498227026"><ele>179.29</ele><time>2026-08-14T06:39:15Z</time></trkpt><trkpt lat="59.3441179488" lon="34.6499036718"><ele>178.80</ele><time>2026-08-14T06:39:33Z</time></trkpt><trkpt lat="59.3440609518" lon="34.6499614231"><ele>178.31</ele><time>2026-08-14T06:39:52Z</time></trkpt><trkpt lat="59.3440279271" lon="34.6500198450"><ele>178.68</ele><time>2026-08-14T06:40:17Z</time></trkpt><trkpt lat="59.3440019432" lon="34.6500243712"><ele>179.87</ele><time>2026-08-14T06:40:44Z</time></trkpt><trkpt lat="59.3440070562" lon="34.6500279754"><ele>180.87</ele><time>2026-08-14T06:41:12Z</time></trkpt><trkpt lat="59.3440134265" lon="34.6500387881"><ele>181.07</ele><time>2026-08-14T06:41:31Z</time></trkpt><trkpt lat="59.3440057989" lon="34.6500392072"><ele>182.35</ele><time>2026-08-14T06:41:57Z</time></trkpt><trkpt lat="59.3439523224" lon="34.6501735691"><ele>182.26</ele><time>2026-08-14T06:42:13Z</time></trkpt><trkpt lat="59.3439438567" lon="34.6503180731"><ele>181.71</ele><time>2026-08-14T06:42:28Z</time></trkpt><trkpt lat="59.3439484667" lon="34.6504761558"><ele>181.41</ele><time>2026-08-14T06:42:46Z</time></trkpt><trkpt lat="59.3439334631" lon="34.6505955141"><ele>181.42</ele><time>2026-08-14T06:43:00Z</time></trkpt><trkpt lat="59.3439209741" lon="34.6507888008"><ele>181.20</ele><time>2026-08-14T06:43:16Z</time></trkpt><trkpt lat="59.3439143524" lon="34.6510023717"><ele>180.91</ele><time>2026-08-14T06:43:34Z</time></trkpt><trkpt lat="59.3439134303" lon="34.6511544194"><ele>180.24</ele><time>2026-08-14T06:43:45Z</time></trkpt><trkpt lat="59.3438881170" lon="34.6513104904"><ele>180.88</ele><time>2026-08-14T06:43:58Z</time></trkpt><trkpt lat="59.3438426871" lon="34.6513583511"><ele>180.92</ele><time>2026-08-14T06:44:22Z</time></trkpt><trkpt lat="59.3438453693" lon="34.6513841674"><ele>180.90</ele><time>2026-08-14T06:44:54Z</time></trkpt><trkpt lat="59.3438357301" lon="34.6514080558"><ele>181.74</ele><time>2026-08-14T06:45:17Z</time></trkpt><trkpt lat="59.3438481353" lon="34.6514155995"><ele>183.15</ele><time>2026-08-14T06:45:45Z</time></trkpt><trkpt lat="59.3438153621" lon="34.6514192037"><ele>182.81</ele><time>2026-08-14T06:46:10Z</time></trkpt><trkpt lat="59.3438063934" lon="34.6514356323"><ele>182.77</ele><time>2026-08-14T06:46:15Z</time></trkpt><trkpt lat="59.3437388353" lon="34.6514052060"><ele>182.62</ele><time>2026-08-14T06:46:28Z</time></trkpt><trkpt lat="59.3437233288" lon="34.6515297610"><ele>181.39</ele><time>2026-08-14T06:46:44Z</time></trkpt><trkpt lat="59.3437054753" lon="34.6516034380"><ele>180.58</ele><time>2026-08-14T06:47:13Z</time></trkpt><trkpt lat="59.3437117618" lon="34.6517414041"><ele>180.69</ele><time>2026-08-14T06:47:27Z</time></trkpt><trkpt lat="59.3436490651" lon="34.6518160030"><ele>180.70</ele><time>2026-08-14T06:47:43Z</time></trkpt><trkpt lat="59.3435500748" lon="34.6518910211"><ele>181.25</ele><time>2026-08-14T06:48:00Z</time></trkpt><trkpt lat="59.3434665911" lon="34.6519974712"><ele>181.25</ele><time>2026-08-14T06:48:12Z</time></trkpt><trkpt lat="59.3434521742" lon="34.6520158276"><ele>181.20</ele><time>2026-08-14T06:48:15Z</time></trkpt><trkpt lat="59.3434079178" lon="34.6521223616"><ele>180.98</ele><time>2026-08-14T06:48:26Z</time></trkpt><trkpt lat="59.3433798384" lon="34.6523134690"><ele>181.05</ele><time>2026-08-14T06:48:44Z</time></trkpt><trkpt lat="59.3433382642" lon="34.6525058337"><ele>180.30</ele><time>2026-08-14T06:49:02Z</time></trkpt><trkpt lat="59.3433437962" lon="34.6526733879"><ele>179.10</ele><time>2026-08-14T06:49:18Z</time></trkpt><trkpt lat="59.3433294632" lon="34.6527909022"><ele>182.46</ele><time>2026-08-14T06:49:44Z</time></trkpt><trkpt lat="59.3433195725" lon="34.6527709533"><ele>182.92</ele><time>2026-08-14T06:50:09Z</time></trkpt><trkpt lat="59.3433458917" lon="34.6527822688"><ele>183.96</ele><time>2026-08-14T06:50:35Z</time></trkpt><trkpt lat="59.3433129508" lon="34.6528276149"><ele>186.97</ele><time>2026-08-14T06:51:00Z</time></trkpt><trkpt lat="59.3432916608" lon="34.6527524292"><ele>186.44</ele><time>2026-08-14T06:51:25Z</time></trkpt><trkpt lat="59.3432572950" lon="34.6528410260"><ele>185.98</ele><time>2026-08-14T06:51:41Z</time></trkpt><trkpt lat="59.3432546966" lon="34.6528470609"><ele>185.95</ele><time>2026-08-14T06:51:42Z</time></trkpt><trkpt lat="59.3431931734" lon="34.6529776510"><ele>185.51</ele><time>2026-08-14T06:51:54Z</time></trkpt><trkpt lat="59.3431163952" lon="34.6531942394"><ele>183.43</ele><time>2026-08-14T06:52:11Z</time></trkpt><trkpt lat="59.3430666905" lon="34.6533565968"><ele>182.30</ele><time>2026-08-14T06:52:23Z</time></trkpt><trkpt lat="59.3429615814" lon="34.6534337942"><ele>180.23</ele><time>2026-08-14T06:52:40Z</time></trkpt><trkpt lat="59.3429027405" lon="34.6534674894"><ele>179.55</ele><time>2026-08-14T06:53:01Z</time></trkpt><trkpt lat="59.3428782653" lon="34.6535563376"><ele>179.43</ele><time>2026-08-14T06:53:21Z</time></trkpt><trkpt lat="59.3427925184" lon="34.6536403242"><ele>179.35</ele><time>2026-08-14T06:53:39Z</time></trkpt><trkpt lat="59.3427674565" lon="34.6536584292"><ele>180.29</ele><time>2026-08-14T06:53:58Z</time></trkpt><trkpt lat="59.3427658640" lon="34.6536513884"><ele>180.01</ele><time>2026-08-14T06:54:22Z</time></trkpt><trkpt lat="59.3427405506" lon="34.6536808927"><ele>179.61</ele><time>2026-08-14T06:54:47Z</time></trkpt><trkpt lat="59.3427511118" lon="34.6537006740"><ele>180.96</ele><time>2026-08-14T06:55:14Z</time></trkpt><trkpt lat="59.3427361920" lon="34.6537431702"><ele>180.96</ele><time>2026-08-14T06:55:42Z</time></trkpt><trkpt lat="59.3427040894" lon="34.6537984069"><ele>181.02</ele><time>2026-08-14T06:56:00Z</time></trkpt><trkpt lat="59.3426392134" lon="34.6538593434"><ele>180.43</ele><time>2026-08-14T06:56:18Z</time></trkpt><trkpt lat="59.3426041771" lon="34.6539212018"><ele>180.48</ele><time>2026-08-14T06:56:36Z</time></trkpt><trkpt lat="59.3425468449" lon="34.6539344452"><ele>179.91</ele><time>2026-08-14T06:56:53Z</time></trkpt><trkpt lat="59.3424716592" lon="34.6539903525"><ele>179.68</ele><time>2026-08-14T06:57:08Z</time></trkpt><trkpt lat="59.3424043525" lon="34.6539540589"><ele>179.67</ele><time>2026-08-14T06:57:19Z</time></trkpt><trkpt lat="59.3422922026" lon="34.6539994050"><ele>179.43</ele><time>2026-08-14T06:57:35Z</time></trkpt><trkpt lat="59.3422299251" lon="34.6540749259"><ele>178.76</ele><time>2026-08-14T06:57:48Z</time></trkpt><trkpt lat="59.3421320245" lon="34.6541719045"><ele>179.15</ele><time>2026-08-14T06:58:08Z</time></trkpt><trkpt lat="59.3420705851" lon="34.6542111319"><ele>179.29</ele><time>2026-08-14T06:58:26Z</time></trkpt><trkpt lat="59.3420495465" lon="34.6542097069"><ele>180.13</ele><time>2026-08-14T06:58:45Z</time></trkpt><trkpt lat="59.3420352973" lon="34.6542072762"><ele>182.58</ele><time>2026-08-14T06:59:15Z</time></trkpt><trkpt lat="59.3419913761" lon="34.6543036681"><ele>183.82</ele><time>2026-08-14T06:59:45Z</time></trkpt><trkpt lat="59.3420317769" lon="34.6543418057"><ele>182.35</ele><time>2026-08-14T07:00:14Z</time></trkpt><trkpt lat="59.3419772945" lon="34.6543527022"><ele>181.61</ele><time>2026-08-14T07:00:37Z</time></trkpt><trkpt lat="59.3419934716" lon="34.6545121260"><ele>181.11</ele><time>2026-08-14T07:00:55Z</time></trkpt><trkpt lat="59.3419516459" lon="34.6546262875"><ele>180.54</ele><time>2026-08-14T07:01:09Z</time></trkpt><trkpt lat="59.3418600317" lon="34.6547617391"><ele>180.46</ele><time>2026-08-14T07:01:29Z</time></trkpt><trkpt lat="59.3418058846" lon="34.6549413633"><ele>179.19</ele><time>2026-08-14T07:01:48Z</time></trkpt><trkpt lat="59.3417111691" lon="34.6550070774"><ele>178.70</ele><time>2026-08-14T07:02:04Z</time></trkpt><trkpt lat="59.3415818363" lon="34.6550241765"><ele>177.70</ele><time>2026-08-14T07:02:25Z</time></trkpt><trkpt lat="59.3415333051" lon="34.6550585423"><ele>177.77</ele><time>2026-08-14T07:02:44Z</time></trkpt><trkpt lat="59.3415188044" lon="34.6550908964"><ele>178.89</ele><time>2026-08-14T07:03:13Z</time></trkpt><trkpt lat="59.3415319640" lon="34.6551269386"><ele>179.36</ele><time>2026-08-14T07:03:34Z</time></trkpt><trkpt lat="59.3416261766" lon="34.6551310457"><ele>178.95</ele><time>2026-08-14T07:04:04Z</time></trkpt><trkpt lat="59.3415728677" lon="34.6551509947"><ele>178.44</ele><time>2026-08-14T07:04:29Z</time></trkpt><trkpt lat="59.3415230792" lon="34.6551837679"><ele>177.53</ele><time>2026-08-14T07:04:57Z</time></trkpt><trkpt lat="59.3415010348" lon="34.6551437024"><ele>177.53</ele><time>2026-08-14T07:05:30Z</time></trkpt><trkpt lat="59.3414846063" lon="34.6551612206"><ele>177.27</ele><time>2026-08-14T07:06:00Z</time></trkpt><trkpt lat="59.3415162899" lon="34.6551319677"><ele>178.69</ele><time>2026-08-14T07:06:26Z</time></trkpt><trkpt lat="59.3415238336" lon="34.6550717019"><ele>179.45</ele><time>2026-08-14T07:06:51Z</time></trkpt><trkpt lat="59.3414941616" lon="34.6550943330"><ele>180.29</ele><time>2026-08-14T07:07:20Z</time></trkpt><trkpt lat="59.3414560240" lon="34.6550710313"><ele>181.59</ele><time>2026-08-14T07:07:50Z</time></trkpt><trkpt lat="59.3415179662" lon="34.6550546866"><ele>183.38</ele><time>2026-08-14T07:08:24Z</time></trkpt><trkpt lat="59.3415214866" lon="34.6550542675"><ele>183.68</ele><time>2026-08-14T07:08:33Z</time></trkpt><trkpt lat="59.3415203970" lon="34.6550393477"><ele>183.82</ele><time>2026-08-14T07:09:03Z</time></trkpt><trkpt lat="59.3415257614" lon="34.6550627332"><ele>184.29</ele><time>2026-08-14T07:09:34Z</time></trkpt><trkpt lat="59.3415364064" lon="34.6550411917"><ele>183.89</ele><time>2026-08-14T07:10:06Z</time></trkpt><trkpt lat="59.3415803276" lon="34.6550460532"><ele>183.28</ele><time>2026-08-14T07:10:40Z</time></trkpt><trkpt lat="59.3415848538" lon="34.6550601348"><ele>183.58</ele><time>2026-08-14T07:11:08Z</time></trkpt><trkpt lat="59.3415659945" lon="34.6549713705"><ele>184.85</ele><time>2026-08-14T07:11:45Z</time></trkpt><trkpt lat="59.3415959179" lon="34.6550530940"><ele>186.24</ele><time>2026-08-14T07:12:20Z</time></trkpt><trkpt lat="59.3415775616" lon="34.6550420299"><ele>186.24</ele><time>2026-08-14T07:12:50Z</time></trkpt><trkpt lat="59.3416089099" lon="34.6550966799"><ele>185.17</ele><time>2026-08-14T07:13:21Z</time></trkpt><trkpt lat="59.3415633962" lon="34.6550764795"><ele>182.47</ele><time>2026-08-14T07:13:53Z</time></trkpt><trkpt lat="59.3415550143" lon="34.6550930757"><ele>181.31</ele><time>2026-08-14T07:14:26Z</time></trkpt><trkpt lat="59.3415727839" lon="34.6550579555"><ele>179.17</ele><time>2026-08-14T07:15:01Z</time></trkpt><trkpt lat="59.3415323831" lon="34.6550840233"><ele>178.83</ele><time>2026-08-14T07:15:31Z</time></trkpt><trkpt lat="59.3415405136" lon="34.6550660860"><ele>179.44</ele><time>2026-08-14T07:16:01Z</time></trkpt><trkpt lat="59.3415509909" lon="34.6550043114"><ele>180.92</ele><time>2026-08-14T07:16:28Z</time></trkpt><trkpt lat="59.3415328860" lon="34.6550665051"><ele>180.74</ele><time>2026-08-14T07:16:54Z</time></trkpt><trkpt lat="59.3414796609" lon="34.6550889686"><ele>179.69</ele><time>2026-08-14T07:17:25Z</time></trkpt><trkpt lat="59.3414105941" lon="34.6551143657"><ele>177.38</ele><time>2026-08-14T07:17:57Z</time></trkpt><trkpt lat="59.3414703570" lon="34.6550757252"><ele>174.76</ele><time>2026-08-14T07:18:31Z</time></trkpt><trkpt lat="59.3415071536" lon="34.6550810896"><ele>175.77</ele><time>2026-08-14T07:19:02Z</time></trkpt><trkpt lat="59.3415026274" lon="34.6551038045"><ele>174.84</ele><time>2026-08-14T07:19:35Z</time></trkpt><trkpt lat="59.3414712790" lon="34.6550538484"><ele>175.12</ele><time>2026-08-14T07:19:59Z</time></trkpt><trkpt lat="59.3415011186" lon="34.6550313011"><ele>176.07</ele><time>2026-08-14T07:20:30Z</time></trkpt><trkpt lat="59.3415231630" lon="34.6549955104"><ele>176.12</ele><time>2026-08-14T07:21:01Z</time></trkpt><trkpt lat="59.3415255938" lon="34.6550843585"><ele>175.32</ele><time>2026-08-14T07:21:28Z</time></trkpt><trkpt lat="59.3414613046" lon="34.6551460493"><ele>175.78</ele><time>2026-08-14T07:21:55Z</time></trkpt><trkpt lat="59.3414108455" lon="34.6553013660"><ele>176.00</ele><time>2026-08-14T07:22:13Z</time></trkpt><trkpt lat="59.3413639907" lon="34.6554011106"><ele>175.67</ele><time>2026-08-14T07:22:26Z</time></trkpt><trkpt lat="59.3412657548" lon="34.6554451156"><ele>176.35</ele><time>2026-08-14T07:22:42Z</time></trkpt><trkpt lat="59.3411970232" lon="34.6555632167"><ele>175.82</ele><time>2026-08-14T07:22:57Z</time></trkpt><trkpt lat="59.3411363382" lon="34.6557989158"><ele>174.68</ele><time>2026-08-14T07:23:14Z</time></trkpt><trkpt lat="59.3410857115" lon="34.6559393127"><ele>174.46</ele><time>2026-08-14T07:23:33Z</time></trkpt><trkpt lat="59.3410375994" lon="34.6559916995"><ele>174.92</ele><time>2026-08-14T07:23:47Z</time></trkpt><trkpt lat="59.3409678619" lon="34.6561206132"><ele>175.24</ele><time>2026-08-14T07:24:06Z</time></trkpt><trkpt lat="59.3409459852" lon="34.6561791189"><ele>175.74</ele><time>2026-08-14T07:24:27Z</time></trkpt><trkpt lat="59.3409284670" lon="34.6561608464"><ele>176.57</ele><time>2026-08-14T07:24:57Z</time></trkpt><trkpt lat="59.3409605697" lon="34.6561462618"><ele>176.47</ele><time>2026-08-14T07:25:25Z</time></trkpt><trkpt lat="59.3409520201" lon="34.6562501974"><ele>176.23</ele><time>2026-08-14T07:25:53Z</time></trkpt><trkpt lat="59.3409013096" lon="34.6562533826"><ele>176.36</ele><time>2026-08-14T07:26:09Z</time></trkpt><trkpt lat="59.3408254534" lon="34.6563140675"><ele>176.50</ele><time>2026-08-14T07:26:25Z</time></trkpt><trkpt lat="59.3407302350" lon="34.6565191727"><ele>176.40</ele><time>2026-08-14T07:26:44Z</time></trkpt><trkpt lat="59.3406480923" lon="34.6565786842"><ele>176.64</ele><time>2026-08-14T07:27:01Z</time></trkpt><trkpt lat="59.3405641057" lon="34.6566961147"><ele>174.74</ele><time>2026-08-14T07:27:20Z</time></trkpt><trkpt lat="59.3405772652" lon="34.6567552909"><ele>175.50</ele><time>2026-08-14T07:27:42Z</time></trkpt><trkpt lat="59.3405320868" lon="34.6568026487"><ele>174.46</ele><time>2026-08-14T07:28:08Z</time></trkpt><trkpt lat="59.3404682167" lon="34.6568543650"><ele>174.33</ele><time>2026-08-14T07:28:22Z</time></trkpt><trkpt lat="59.3404772691" lon="34.6568729728"><ele>174.16</ele><time>2026-08-14T07:28:45Z</time></trkpt><trkpt lat="59.3404954579" lon="34.6568761580"><ele>174.00</ele><time>2026-08-14T07:28:52Z</time></trkpt><trkpt lat="59.3404344376" lon="34.6569120325"><ele>172.28</ele><time>2026-08-14T07:29:16Z</time></trkpt><trkpt lat="59.3404317554" lon="34.6569182351"><ele>172.63</ele><time>2026-08-14T07:29:52Z</time></trkpt><trkpt lat="59.3404258043" lon="34.6569125354"><ele>173.49</ele><time>2026-08-14T07:30:18Z</time></trkpt><trkpt lat="59.3404385448" lon="34.6569120325"><ele>173.25</ele><time>2026-08-14T07:30:35Z</time></trkpt><trkpt lat="59.3403921928" lon="34.6570274513"><ele>172.74</ele><time>2026-08-14T07:30:56Z</time></trkpt><trkpt lat="59.3403764348" lon="34.6572085004"><ele>173.45</ele><time>2026-08-14T07:31:16Z</time></trkpt><trkpt lat="59.3403275684" lon="34.6572835185"><ele>173.47</ele><time>2026-08-14T07:31:31Z</time></trkpt><trkpt lat="59.3401744310" lon="34.6572730411"><ele>173.83</ele><time>2026-08-14T07:31:51Z</time></trkpt><trkpt lat="59.3400756083" lon="34.6572392620"><ele>174.22</ele><time>2026-08-14T07:32:04Z</time></trkpt><trkpt lat="59.3399806414" lon="34.6572805848"><ele>174.52</ele><time>2026-08-14T07:32:17Z</time></trkpt><trkpt lat="59.3398475368" lon="34.6572062373"><ele>175.37</ele><time>2026-08-14T07:32:39Z</time></trkpt><trkpt lat="59.3397517316" lon="34.6571168024"><ele>176.96</ele><time>2026-08-14T07:33:00Z</time></trkpt><trkpt lat="59.3397203833" lon="34.6571510006"><ele>177.79</ele><time>2026-08-14T07:33:22Z</time></trkpt><trkpt lat="59.3397344649" lon="34.6571502462"><ele>178.40</ele><time>2026-08-14T07:33:49Z</time></trkpt><trkpt lat="59.3397354707" lon="34.6571221668"><ele>178.65</ele><time>2026-08-14T07:34:17Z</time></trkpt><trkpt lat="59.3397276755" lon="34.6571651660"><ele>178.65</ele><time>2026-08-14T07:34:26Z</time></trkpt><trkpt lat="59.3396745343" lon="34.6573820058"><ele>179.88</ele><time>2026-08-14T07:34:45Z</time></trkpt><trkpt lat="59.3395690061" lon="34.6574923955"><ele>179.06</ele><time>2026-08-14T07:35:04Z</time></trkpt><trkpt lat="59.3394517433" lon="34.6575950738"><ele>177.69</ele><time>2026-08-14T07:35:25Z</time></trkpt><trkpt lat="59.3393484782" lon="34.6576884482"><ele>177.11</ele><time>2026-08-14T07:35:45Z</time></trkpt><trkpt lat="59.3392799981" lon="34.6577483788"><ele>178.49</ele><time>2026-08-14T07:36:05Z</time></trkpt><trkpt lat="59.3391922396" lon="34.6579120774"><ele>178.29</ele><time>2026-08-14T07:36:24Z</time></trkpt><trkpt lat="59.3391572870" lon="34.6579435933"><ele>179.13</ele><time>2026-08-14T07:36:53Z</time></trkpt><trkpt lat="59.3390937522" lon="34.6579400729"><ele>179.97</ele><time>2026-08-14T07:37:16Z</time></trkpt><trkpt lat="59.3390763178" lon="34.6579435095"><ele>179.92</ele><time>2026-08-14T07:37:38Z</time></trkpt><trkpt lat="59.3390925787" lon="34.6579539031"><ele>179.96</ele><time>2026-08-14T07:37:58Z</time></trkpt><trkpt lat="59.3391129468" lon="34.6579325292"><ele>181.29</ele><time>2026-08-14T07:38:27Z</time></trkpt><trkpt lat="59.3390788324" lon="34.6578939725"><ele>181.01</ele><time>2026-08-14T07:38:54Z</time></trkpt><trkpt lat="59.3389843684" lon="34.6578917094"><ele>180.86</ele><time>2026-08-14T07:39:14Z</time></trkpt><trkpt lat="59.3389054947" lon="34.6579084732"><ele>181.04</ele><time>2026-08-14T07:39:35Z</time></trkpt><trkpt lat="59.3388083484" lon="34.6580951381"><ele>179.21</ele><time>2026-08-14T07:39:59Z</time></trkpt><trkpt lat="59.3387883157" lon="34.6580627002"><ele>179.26</ele><time>2026-08-14T07:40:15Z</time></trkpt><trkpt lat="59.3387416285" lon="34.6579339541"><ele>178.85</ele><time>2026-08-14T07:40:36Z</time></trkpt><trkpt lat="59.3386775069" lon="34.6579383966"><ele>178.70</ele><time>2026-08-14T07:40:54Z</time></trkpt><trkpt lat="59.3386036623" lon="34.6578982472"><ele>178.16</ele><time>2026-08-14T07:41:07Z</time></trkpt><trkpt lat="59.3385136407" lon="34.6578806452"><ele>177.97</ele><time>2026-08-14T07:41:21Z</time></trkpt><trkpt lat="59.3383426499" lon="34.6578756999"><ele>177.68</ele><time>2026-08-14T07:41:42Z</time></trkpt><trkpt lat="59.3382397201" lon="34.6578620374"><ele>178.01</ele><time>2026-08-14T07:41:58Z</time></trkpt><trkpt lat="59.3382024206" lon="34.6578557510"><ele>177.82</ele><time>2026-08-14T07:42:19Z</time></trkpt><trkpt lat="59.3381863274" lon="34.6578848362"><ele>179.44</ele><time>2026-08-14T07:42:46Z</time></trkpt><trkpt lat="59.3382105511" lon="34.6579256561"><ele>179.68</ele><time>2026-08-14T07:43:15Z</time></trkpt><trkpt lat="59.3381264806" lon="34.6578383166"><ele>181.41</ele><time>2026-08-14T07:43:42Z</time></trkpt><trkpt lat="59.3381414004" lon="34.6578733530"><ele>180.64</ele><time>2026-08-14T07:44:09Z</time></trkpt><trkpt lat="59.3381465133" lon="34.6579471976"><ele>181.75</ele><time>2026-08-14T07:44:38Z</time></trkpt><trkpt lat="59.3381954636" lon="34.6580126602"><ele>183.60</ele><time>2026-08-14T07:45:06Z</time></trkpt><trkpt lat="59.3381488603" lon="34.6580604371"><ele>183.74</ele><time>2026-08-14T07:45:29Z</time></trkpt><trkpt lat="59.3381165061" lon="34.6581020951"><ele>183.96</ele><time>2026-08-14T07:45:49Z</time></trkpt><trkpt lat="59.3380191084" lon="34.6582443360"><ele>184.78</ele><time>2026-08-14T07:46:10Z</time></trkpt><trkpt lat="59.3379518017" lon="34.6582983155"><ele>184.09</ele><time>2026-08-14T07:46:24Z</time></trkpt><trkpt lat="59.3379212078" lon="34.6584478486"><ele>183.22</ele><time>2026-08-14T07:46:40Z</time></trkpt><trkpt lat="59.3378661387" lon="34.6586283110"><ele>181.53</ele><time>2026-08-14T07:46:55Z</time></trkpt><trkpt lat="59.3377794698" lon="34.6587887406"><ele>179.97</ele><time>2026-08-14T07:47:12Z</time></trkpt><trkpt lat="59.3377497979" lon="34.6588656865"><ele>179.02</ele><time>2026-08-14T07:47:24Z</time></trkpt><trkpt lat="59.3377342075" lon="34.6589264553"><ele>179.33</ele><time>2026-08-14T07:47:47Z</time></trkpt><trkpt lat="59.3377265800" lon="34.6589099430"><ele>180.90</ele><time>2026-08-14T07:48:13Z</time></trkpt><trkpt lat="59.3376957346" lon="34.6589215938"><ele>182.76</ele><time>2026-08-14T07:48:41Z</time></trkpt><trkpt lat="59.3377010152" lon="34.6588626690"><ele>182.35</ele><time>2026-08-14T07:49:07Z</time></trkpt><trkpt lat="59.3376421742" lon="34.6588435583"><ele>181.99</ele><time>2026-08-14T07:49:28Z</time></trkpt><trkpt lat="59.3376053777" lon="34.6588468272"><ele>181.43</ele><time>2026-08-14T07:49:39Z</time></trkpt><trkpt lat="59.3375356402" lon="34.6587905847"><ele>181.30</ele><time>2026-08-14T07:49:47Z</time></trkpt><trkpt lat="59.3374312017" lon="34.6588022355"><ele>180.81</ele><time>2026-08-14T07:50:01Z</time></trkpt><trkpt lat="59.3373100832" lon="34.6587656066"><ele>180.09</ele><time>2026-08-14T07:50:16Z</time></trkpt><trkpt lat="59.3372194748" lon="34.6587346774"><ele>179.63</ele><time>2026-08-14T07:50:28Z</time></trkpt><trkpt lat="59.3371512461" lon="34.6587427240"><ele>178.16</ele><time>2026-08-14T07:50:42Z</time></trkpt><trkpt lat="59.3370939139" lon="34.6587801911"><ele>179.24</ele><time>2026-08-14T07:51:04Z</time></trkpt><trkpt lat="59.3370825145" lon="34.6587956976"><ele>179.63</ele><time>2026-08-14T07:51:31Z</time></trkpt><trkpt lat="59.3370849453" lon="34.6587564703"><ele>177.46</ele><time>2026-08-14T07:52:03Z</time></trkpt><trkpt lat="59.3371036369" lon="34.6587636787"><ele>175.99</ele><time>2026-08-14T07:52:36Z</time></trkpt><trkpt lat="59.3370612245" lon="34.6588017326"><ele>176.85</ele><time>2026-08-14T07:52:57Z</time></trkpt><trkpt lat="59.3369339872" lon="34.6588162333"><ele>176.60</ele><time>2026-08-14T07:53:13Z</time></trkpt><trkpt lat="59.3367628288" lon="34.6589121222"><ele>176.16</ele><time>2026-08-14T07:53:32Z</time></trkpt><trkpt lat="59.3366272934" lon="34.6590302233"><ele>175.62</ele><time>2026-08-14T07:53:52Z</time></trkpt><trkpt lat="59.3365308177" lon="34.6591929998"><ele>174.79</ele><time>2026-08-14T07:54:11Z</time></trkpt><trkpt lat="59.3365086894" lon="34.6592173912"><ele>173.85</ele><time>2026-08-14T07:54:32Z</time></trkpt><trkpt lat="59.3365384452" lon="34.6592078358"><ele>172.59</ele><time>2026-08-14T07:54:59Z</time></trkpt><trkpt lat="59.3365498446" lon="34.6592101827"><ele>172.51</ele><time>2026-08-14T07:55:03Z</time></trkpt><trkpt lat="59.3365334999" lon="34.6591203287"><ele>171.82</ele><time>2026-08-14T07:55:23Z</time></trkpt><trkpt lat="59.3364973739" lon="34.6591883898"><ele>171.19</ele><time>2026-08-14T07:55:44Z</time></trkpt><trkpt lat="59.3364896625" lon="34.6591955982"><ele>171.57</ele><time>2026-08-14T07:56:07Z</time></trkpt><trkpt lat="59.3365067616" lon="34.6592009626"><ele>171.43</ele><time>2026-08-14T07:56:17Z</time></trkpt><trkpt lat="59.3364732340" lon="34.6591837797"><ele>171.27</ele><time>2026-08-14T07:56:38Z</time></trkpt><trkpt lat="59.3363993056" lon="34.6592375915"><ele>171.34</ele><time>2026-08-14T07:56:54Z</time></trkpt><trkpt lat="59.3362794444" lon="34.6592421178"><ele>171.54</ele><time>2026-08-14T07:57:09Z</time></trkpt><trkpt lat="59.3361787777" lon="34.6591951791"><ele>171.34</ele><time>2026-08-14T07:57:29Z</time></trkpt><trkpt lat="59.3360806257" lon="34.6592357475"><ele>170.77</ele><time>2026-08-14T07:57:45Z</time></trkpt><trkpt lat="59.3359667994" lon="34.6591342427"><ele>171.25</ele><time>2026-08-14T07:58:00Z</time></trkpt><trkpt lat="59.3358969782" lon="34.6593059879"><ele>171.89</ele><time>2026-08-14T07:58:16Z</time></trkpt><trkpt lat="59.3358738441" lon="34.6594623104"><ele>172.09</ele><time>2026-08-14T07:58:30Z</time></trkpt><trkpt lat="59.3358341977" lon="34.6595695987"><ele>172.27</ele><time>2026-08-14T07:58:48Z</time></trkpt><trkpt lat="59.3357784580" lon="34.6595795732"><ele>172.92</ele><time>2026-08-14T07:59:14Z</time></trkpt><trkpt lat="59.3357994128" lon="34.6596293617"><ele>174.43</ele><time>2026-08-14T07:59:43Z</time></trkpt><trkpt lat="59.3358029332" lon="34.6596177109"><ele>174.25</ele><time>2026-08-14T08:00:02Z</time></trkpt><trkpt lat="59.3358041905" lon="34.6595706046"><ele>174.22</ele><time>2026-08-14T08:00:27Z</time></trkpt><trkpt lat="59.3357495405" lon="34.6595505718"><ele>173.44</ele><time>2026-08-14T08:00:45Z</time></trkpt><trkpt lat="59.3356383126" lon="34.6596494783"><ele>172.58</ele><time>2026-08-14T08:01:02Z</time></trkpt><trkpt lat="59.3355740234" lon="34.6597648971"><ele>172.13</ele><time>2026-08-14T08:01:15Z</time></trkpt><trkpt lat="59.3354802299" lon="34.6597959101"><ele>172.27</ele><time>2026-08-14T08:01:32Z</time></trkpt><trkpt lat="59.3353786413" lon="34.6597999334"><ele>171.44</ele><time>2026-08-14T08:01:52Z</time></trkpt><trkpt lat="59.3352892902" lon="34.6597300284"><ele>171.38</ele><time>2026-08-14T08:02:13Z</time></trkpt><trkpt lat="59.3352665752" lon="34.6597572695"><ele>170.96</ele><time>2026-08-14T08:02:37Z</time></trkpt><trkpt lat="59.3353375699" lon="34.6598586906"><ele>170.13</ele><time>2026-08-14T08:02:55Z</time></trkpt><trkpt lat="59.3353389110" lon="34.6600026079"><ele>169.26</ele><time>2026-08-14T08:03:11Z</time></trkpt><trkpt lat="59.3354052957" lon="34.6601725928"><ele>168.47</ele><time>2026-08-14T08:03:29Z</time></trkpt><trkpt lat="59.3354296032" lon="34.6602931246"><ele>168.86</ele><time>2026-08-14T08:03:47Z</time></trkpt><trkpt lat="59.3353839219" lon="34.6603909414"><ele>170.73</ele><time>2026-08-14T08:04:14Z</time></trkpt><trkpt lat="59.3353998475" lon="34.6604041010"><ele>172.60</ele><time>2026-08-14T08:04:41Z</time></trkpt><trkpt lat="59.3354295194" lon="34.6603616886"><ele>172.16</ele><time>2026-08-14T08:04:57Z</time></trkpt><trkpt lat="59.3354513962" lon="34.6603750158"><ele>172.53</ele><time>2026-08-14T08:05:18Z</time></trkpt><trkpt lat="59.3355150986" lon="34.6604788676"><ele>172.32</ele><time>2026-08-14T08:05:30Z</time></trkpt><trkpt lat="59.3356189504" lon="34.6605757624"><ele>172.94</ele><time>2026-08-14T08:05:48Z</time></trkpt><trkpt lat="59.3356417492" lon="34.6607448254"><ele>171.38</ele><time>2026-08-14T08:06:02Z</time></trkpt><trkpt lat="59.3356497120" lon="34.6609677002"><ele>171.22</ele><time>2026-08-14T08:06:20Z</time></trkpt><trkpt lat="59.3356344569" lon="34.6610837057"><ele>171.16</ele><time>2026-08-14T08:06:36Z</time></trkpt><trkpt lat="59.3355893623" lon="34.6612540260"><ele>171.93</ele><time>2026-08-14T08:06:56Z</time></trkpt><trkpt lat="59.3355679046" lon="34.6613836102"><ele>172.37</ele><time>2026-08-14T08:07:15Z</time></trkpt><trkpt lat="59.3355601933" lon="34.6613950096"><ele>173.25</ele><time>2026-08-14T08:07:32Z</time></trkpt><trkpt lat="59.3355410825" lon="34.6614226699"><ele>174.73</ele><time>2026-08-14T08:07:59Z</time></trkpt><trkpt lat="59.3355320301" lon="34.6614619810"><ele>175.66</ele><time>2026-08-14T08:08:23Z</time></trkpt><trkpt lat="59.3355507217" lon="34.6614138689"><ele>174.91</ele><time>2026-08-14T08:08:50Z</time></trkpt><trkpt lat="59.3355451059" lon="34.6613918245"><ele>174.06</ele><time>2026-08-14T08:09:19Z</time></trkpt><trkpt lat="59.3354850914" lon="34.6614307165"><ele>173.58</ele><time>2026-08-14T08:09:36Z</time></trkpt><trkpt lat="59.3354485463" lon="34.6615380887"><ele>173.98</ele><time>2026-08-14T08:09:57Z</time></trkpt><trkpt lat="59.3353729416" lon="34.6617436130"><ele>172.69</ele><time>2026-08-14T08:10:16Z</time></trkpt><trkpt lat="59.3353468738" lon="34.6620636340"><ele>171.36</ele><time>2026-08-14T08:10:36Z</time></trkpt><trkpt lat="59.3353168666" lon="34.6621329524"><ele>170.61</ele><time>2026-08-14T08:10:45Z</time></trkpt><trkpt lat="59.3352666590" lon="34.6622536518"><ele>170.50</ele><time>2026-08-14T08:10:59Z</time></trkpt><trkpt lat="59.3352130149" lon="34.6623314358"><ele>171.89</ele><time>2026-08-14T08:11:20Z</time></trkpt><trkpt lat="59.3351716921" lon="34.6623640414"><ele>172.10</ele><time>2026-08-14T08:11:37Z</time></trkpt><trkpt lat="59.3351105880" lon="34.6625423245"><ele>171.80</ele><time>2026-08-14T08:11:55Z</time></trkpt><trkpt lat="59.3351147790" lon="34.6625808813"><ele>171.96</ele><time>2026-08-14T08:12:13Z</time></trkpt><trkpt lat="59.3350877054" lon="34.6625393908"><ele>171.89</ele><time>2026-08-14T08:12:42Z</time></trkpt><trkpt lat="59.3350883760" lon="34.6625840664"><ele>172.46</ele><time>2026-08-14T08:13:10Z</time></trkpt><trkpt lat="59.3350534234" lon="34.6626675501"><ele>172.79</ele><time>2026-08-14T08:13:31Z</time></trkpt><trkpt lat="59.3349784892" lon="34.6627506986"><ele>172.78</ele><time>2026-08-14T08:13:46Z</time></trkpt><trkpt lat="59.3349194806" lon="34.6629025787"><ele>172.85</ele><time>2026-08-14T08:13:59Z</time></trkpt><trkpt lat="59.3348515034" lon="34.6630181652"><ele>171.83</ele><time>2026-08-14T08:14:12Z</time></trkpt><trkpt lat="59.3347643316" lon="34.6629917622"><ele>171.12</ele><time>2026-08-14T08:14:31Z</time></trkpt><trkpt lat="59.3346515950" lon="34.6630208474"><ele>170.98</ele><time>2026-08-14T08:14:47Z</time></trkpt><trkpt lat="59.3345650937" lon="34.6630664449"><ele>170.58</ele><time>2026-08-14T08:15:02Z</time></trkpt><trkpt lat="59.3345500901" lon="34.6631166525"><ele>170.57</ele><time>2026-08-14T08:15:19Z</time></trkpt><trkpt lat="59.3345179036" lon="34.6631829534"><ele>170.04</ele><time>2026-08-14T08:15:51Z</time></trkpt><trkpt lat="59.3345276266" lon="34.6631827019"><ele>169.88</ele><time>2026-08-14T08:15:56Z</time></trkpt><trkpt lat="59.3345247768" lon="34.6631483361"><ele>169.54</ele><time>2026-08-14T08:16:20Z</time></trkpt><trkpt lat="59.3345126230" lon="34.6632831171"><ele>169.76</ele><time>2026-08-14T08:16:39Z</time></trkpt><trkpt lat="59.3344844598" lon="34.6633626614"><ele>169.01</ele><time>2026-08-14T08:16:53Z</time></trkpt><trkpt lat="59.3344393652" lon="34.6635042317"><ele>168.10</ele><time>2026-08-14T08:17:08Z</time></trkpt><trkpt lat="59.3344163988" lon="34.6636161301"><ele>167.60</ele><time>2026-08-14T08:17:23Z</time></trkpt><trkpt lat="59.3343785964" lon="34.6638078243"><ele>167.69</ele><time>2026-08-14T08:17:39Z</time></trkpt><trkpt lat="59.3343053386" lon="34.6640267596"><ele>167.75</ele><time>2026-08-14T08:17:58Z</time></trkpt><trkpt lat="59.3342313264" lon="34.6642307751"><ele>167.33</ele><time>2026-08-14T08:18:14Z</time></trkpt><trkpt lat="59.3341849744" lon="34.6644863393"><ele>167.37</ele><time>2026-08-14T08:18:33Z</time></trkpt><trkpt lat="59.3341755029" lon="34.6645094734"><ele>167.58</ele><time>2026-08-14T08:18:53Z</time></trkpt><trkpt lat="59.3341757543" lon="34.6645331103"><ele>168.29</ele><time>2026-08-14T08:19:17Z</time></trkpt><trkpt lat="59.3341631815" lon="34.6645538136"><ele>168.96</ele><time>2026-08-14T08:19:39Z</time></trkpt><trkpt lat="59.3341706414" lon="34.6645530593"><ele>169.38</ele><time>2026-08-14T08:20:01Z</time></trkpt><trkpt lat="59.3341733236" lon="34.6645289194"><ele>168.41</ele><time>2026-08-14T08:20:31Z</time></trkpt><trkpt lat="59.3342056777" lon="34.6645437554"><ele>167.57</ele><time>2026-08-14T08:20:59Z</time></trkpt><trkpt lat="59.3341820408" lon="34.6645701583"><ele>166.60</ele><time>2026-08-14T08:21:27Z</time></trkpt><trkpt lat="59.3341618404" lon="34.6646977309"><ele>164.55</ele><time>2026-08-14T08:21:41Z</time></trkpt><trkpt lat="59.3341511954" lon="34.6648494434"><ele>161.39</ele><time>2026-08-14T08:22:02Z</time></trkpt><trkpt lat="59.3342524488" lon="34.6649506129"><ele>159.37</ele><time>2026-08-14T08:22:17Z</time></trkpt><trkpt lat="59.3343581446" lon="34.6650358569"><ele>158.47</ele><time>2026-08-14T08:22:31Z</time></trkpt><trkpt lat="59.3344619963" lon="34.6650575660"><ele>157.11</ele><time>2026-08-14T08:22:46Z</time></trkpt><trkpt lat="59.3344747368" lon="34.6650677081"><ele>157.10</ele><time>2026-08-14T08:22:48Z</time></trkpt><trkpt lat="59.3345898204" lon="34.6651314944"><ele>157.62</ele><time>2026-08-14T08:23:03Z</time></trkpt><trkpt lat="59.3346672691" lon="34.6651826240"><ele>156.99</ele><time>2026-08-14T08:23:16Z</time></trkpt><trkpt lat="59.3347554468" lon="34.6652887389"><ele>156.80</ele><time>2026-08-14T08:23:30Z</time></trkpt><trkpt lat="59.3348556943" lon="34.6653565485"><ele>156.62</ele><time>2026-08-14T08:23:46Z</time></trkpt><trkpt lat="59.3349560257" lon="34.6654184069"><ele>157.12</ele><time>2026-08-14T08:24:03Z</time></trkpt><trkpt lat="59.3350084964" lon="34.6654696204"><ele>157.24</ele><time>2026-08-14T08:24:17Z</time></trkpt><trkpt lat="59.3350640684" lon="34.6655399445"><ele>155.48</ele><time>2026-08-14T08:24:31Z</time></trkpt><trkpt lat="59.3350596260" lon="34.6655807644"><ele>155.24</ele><time>2026-08-14T08:24:47Z</time></trkpt><trkpt lat="59.3350602128" lon="34.6655771602"><ele>155.54</ele><time>2026-08-14T08:25:07Z</time></trkpt><trkpt lat="59.3350577820" lon="34.6655779146"><ele>156.29</ele><time>2026-08-14T08:25:28Z</time></trkpt><trkpt lat="59.3350478075" lon="34.6655924153"><ele>156.12</ele><time>2026-08-14T08:25:50Z</time></trkpt><trkpt lat="59.3351275194" lon="34.6656468138"><ele>156.53</ele><time>2026-08-14T08:26:09Z</time></trkpt><trkpt lat="59.3352468777" lon="34.6656699479"><ele>154.41</ele><time>2026-08-14T08:26:26Z</time></trkpt><trkpt lat="59.3353410903" lon="34.6657209937"><ele>154.24</ele><time>2026-08-14T08:26:42Z</time></trkpt><trkpt lat="59.3354019430" lon="34.6656799223"><ele>153.00</ele><time>2026-08-14T08:26:54Z</time></trkpt><trkpt lat="59.3354668189" lon="34.6657789126"><ele>151.23</ele><time>2026-08-14T08:27:09Z</time></trkpt><trkpt lat="59.3355230615" lon="34.6658825967"><ele>151.03</ele><time>2026-08-14T08:27:25Z</time></trkpt><trkpt lat="59.3355524819" lon="34.6660514921"><ele>150.77</ele><time>2026-08-14T08:27:42Z</time></trkpt><trkpt lat="59.3356041145" lon="34.6662571002"><ele>151.33</ele><time>2026-08-14T08:28:01Z</time></trkpt><trkpt lat="59.3356249854" lon="34.6663695015"><ele>152.09</ele><time>2026-08-14T08:28:16Z</time></trkpt><trkpt lat="59.3357149232" lon="34.6665138379"><ele>153.19</ele><time>2026-08-14T08:28:35Z</time></trkpt><trkpt lat="59.3357905280" lon="34.6665306855"><ele>153.86</ele><time>2026-08-14T08:28:52Z</time></trkpt><trkpt lat="59.3357714172" lon="34.6665057912"><ele>156.19</ele><time>2026-08-14T08:29:23Z</time></trkpt><trkpt lat="59.3357919529" lon="34.6665435098"><ele>158.46</ele><time>2026-08-14T08:29:59Z</time></trkpt><trkpt lat="59.3358108122" lon="34.6665549930"><ele>158.58</ele><time>2026-08-14T08:30:34Z</time></trkpt><trkpt lat="59.3358042743" lon="34.6665612794"><ele>159.10</ele><time>2026-08-14T08:31:22Z</time></trkpt><trkpt lat="59.3358161766" lon="34.6665502992"><ele>158.45</ele><time>2026-08-14T08:31:56Z</time></trkpt><trkpt lat="59.3358380534" lon="34.6665073000"><ele>160.31</ele><time>2026-08-14T08:32:38Z</time></trkpt><trkpt lat="59.3358336948" lon="34.6664670669"><ele>160.28</ele><time>2026-08-14T08:33:08Z</time></trkpt><trkpt lat="59.3358426634" lon="34.6664903685"><ele>161.05</ele><time>2026-08-14T08:33:37Z</time></trkpt><trkpt lat="59.3358406518" lon="34.6664628759"><ele>159.60</ele><time>2026-08-14T08:34:07Z</time></trkpt><trkpt lat="59.3358429987" lon="34.6665211301"><ele>160.75</ele><time>2026-08-14T08:34:37Z</time></trkpt><trkpt lat="59.3358188588" lon="34.6665832400"><ele>162.09</ele><time>2026-08-14T08:35:08Z</time></trkpt><trkpt lat="59.3358002510" lon="34.6665695775"><ele>162.35</ele><time>2026-08-14T08:35:39Z</time></trkpt><trkpt lat="59.3357910309" lon="34.6665610280"><ele>163.40</ele><time>2026-08-14T08:36:07Z</time></trkpt><trkpt lat="59.3358088005" lon="34.6665451862"><ele>163.63</ele><time>2026-08-14T08:36:34Z</time></trkpt><trkpt lat="59.3358220439" lon="34.6664995048"><ele>163.41</ele><time>2026-08-14T08:37:03Z</time></trkpt><trkpt lat="59.3358240556" lon="34.6665004268"><ele>163.26</ele><time>2026-08-14T08:37:30Z</time></trkpt><trkpt lat="59.3358145002" lon="34.6665129997"><ele>162.84</ele><time>2026-08-14T08:38:03Z</time></trkpt><trkpt lat="59.3358306773" lon="34.6665174421"><ele>162.52</ele><time>2026-08-14T08:38:27Z</time></trkpt><trkpt lat="59.3358412385" lon="34.6665616985"><ele>162.56</ele><time>2026-08-14T08:38:53Z</time></trkpt><trkpt lat="59.3359421566" lon="34.6665903646"><ele>161.96</ele><time>2026-08-14T08:39:11Z</time></trkpt><trkpt lat="59.3360499479" lon="34.6666204557"><ele>157.32</ele><time>2026-08-14T08:39:28Z</time></trkpt><trkpt lat="59.3361706473" lon="34.6665443480"><ele>155.24</ele><time>2026-08-14T08:39:46Z</time></trkpt><trkpt lat="59.3361926079" lon="34.6665264107"><ele>157.59</ele><time>2026-08-14T08:40:14Z</time></trkpt><trkpt lat="59.3362023309" lon="34.6664285939"><ele>158.66</ele><time>2026-08-14T08:40:42Z</time></trkpt><trkpt lat="59.3361807056" lon="34.6663188748"><ele>159.31</ele><time>2026-08-14T08:41:00Z</time></trkpt><trkpt lat="59.3361832201" lon="34.6661604568"><ele>160.25</ele><time>2026-08-14T08:41:15Z</time></trkpt><trkpt lat="59.3361584097" lon="34.6660120133"><ele>160.32</ele><time>2026-08-14T08:41:32Z</time></trkpt><trkpt lat="59.3361204397" lon="34.6658319701"><ele>160.70</ele><time>2026-08-14T08:41:47Z</time></trkpt><trkpt lat="59.3360680528" lon="34.6657485701"><ele>160.34</ele><time>2026-08-14T08:42:04Z</time></trkpt><trkpt lat="59.3360385485" lon="34.6656880528"><ele>160.71</ele><time>2026-08-14T08:42:23Z</time></trkpt><trkpt lat="59.3359983992" lon="34.6655052435"><ele>159.99</ele><time>2026-08-14T08:42:39Z</time></trkpt><trkpt lat="59.3360025901" lon="34.6655082610"><ele>159.84</ele><time>2026-08-14T08:42:56Z</time></trkpt><trkpt lat="59.3360052723" lon="34.6655095182"><ele>160.53</ele><time>2026-08-14T08:43:19Z</time></trkpt><trkpt lat="59.3360049371" lon="34.6655102726"><ele>161.85</ele><time>2026-08-14T08:43:38Z</time></trkpt><trkpt lat="59.3359588366" lon="34.6654310636"><ele>161.40</ele><time>2026-08-14T08:43:58Z</time></trkpt><trkpt lat="59.3359518796" lon="34.6653103642"><ele>160.87</ele><time>2026-08-14T08:44:10Z</time></trkpt><trkpt lat="59.3359789532" lon="34.6651459951"><ele>160.94</ele><time>2026-08-14T08:44:24Z</time></trkpt><trkpt lat="59.3360108882" lon="34.6650014073"><ele>160.14</ele><time>2026-08-14T08:44:39Z</time></trkpt><trkpt lat="59.3360541388" lon="34.6648951247"><ele>158.94</ele><time>2026-08-14T08:44:54Z</time></trkpt><trkpt lat="59.3360828888" lon="34.6647854894"><ele>157.92</ele><time>2026-08-14T08:45:11Z</time></trkpt><trkpt lat="59.3360884208" lon="34.6647787839"><ele>157.18</ele><time>2026-08-14T08:45:35Z</time></trkpt><trkpt lat="59.3360892590" lon="34.6647843160"><ele>157.09</ele><time>2026-08-14T08:45:59Z</time></trkpt><trkpt lat="59.3360799551" lon="34.6647676360"><ele>156.67</ele><time>2026-08-14T08:46:27Z</time></trkpt><trkpt lat="59.3360931985" lon="34.6647771914"><ele>158.09</ele><time>2026-08-14T08:46:47Z</time></trkpt><trkpt lat="59.3361630198" lon="34.6647284925"><ele>159.06</ele><time>2026-08-14T08:47:06Z</time></trkpt><trkpt lat="59.3362354394" lon="34.6647188533"><ele>158.17</ele><time>2026-08-14T08:47:19Z</time></trkpt><trkpt lat="59.3363418058" lon="34.6647894289"><ele>156.74</ele><time>2026-08-14T08:47:36Z</time></trkpt><trkpt lat="59.3363931868" lon="34.6648004930"><ele>157.35</ele><time>2026-08-14T08:47:49Z</time></trkpt><trkpt lat="59.3364259601" lon="34.6647942066"><ele>157.11</ele><time>2026-08-14T08:48:08Z</time></trkpt><trkpt lat="59.3365061749" lon="34.6648806240"><ele>156.30</ele><time>2026-08-14T08:48:23Z</time></trkpt><trkpt lat="59.3366195820" lon="34.6649045963"><ele>155.35</ele><time>2026-08-14T08:48:39Z</time></trkpt><trkpt lat="59.3367260322" lon="34.6648602560"><ele>156.49</ele><time>2026-08-14T08:48:54Z</time></trkpt><trkpt lat="59.3367707077" lon="34.6648452524"><ele>158.78</ele><time>2026-08-14T08:49:15Z</time></trkpt><trkpt lat="59.3368157186" lon="34.6648095455"><ele>160.82</ele><time>2026-08-14T08:49:40Z</time></trkpt><trkpt lat="59.3368592206" lon="34.6647801250"><ele>162.05</ele><time>2026-08-14T08:50:10Z</time></trkpt><trkpt lat="59.3369025551" lon="34.6648701467"><ele>162.59</ele><time>2026-08-14T08:50:29Z</time></trkpt><trkpt lat="59.3369734660" lon="34.6649678797"><ele>162.78</ele><time>2026-08-14T08:50:45Z</time></trkpt><trkpt lat="59.3370043114" lon="34.6651578136"><ele>163.71</ele><time>2026-08-14T08:51:05Z</time></trkpt><trkpt lat="59.3370091729" lon="34.6651983820"><ele>164.35</ele><time>2026-08-14T08:51:26Z</time></trkpt><trkpt lat="59.3370609730" lon="34.6654158086"><ele>164.68</ele><time>2026-08-14T08:51:48Z</time></trkpt><trkpt lat="59.3370961770" lon="34.6656448860"><ele>165.57</ele><time>2026-08-14T08:52:04Z</time></trkpt><trkpt lat="59.3371121027" lon="34.6657329798"><ele>165.66</ele><time>2026-08-14T08:52:09Z</time></trkpt><trkpt lat="59.3371295370" lon="34.6658611391"><ele>165.99</ele><time>2026-08-14T08:52:21Z</time></trkpt><trkpt lat="59.3372462969" lon="34.6660353150"><ele>165.57</ele><time>2026-08-14T08:52:38Z</time></trkpt><trkpt lat="59.3373457063" lon="34.6662523225"><ele>165.53</ele><time>2026-08-14T08:52:55Z</time></trkpt><trkpt lat="59.3373926450" lon="34.6663393266"><ele>166.75</ele><time>2026-08-14T08:53:11Z</time></trkpt><trkpt lat="59.3373928964" lon="34.6663661487"><ele>169.68</ele><time>2026-08-14T08:53:34Z</time></trkpt><trkpt lat="59.3373868614" lon="34.6664413344"><ele>171.19</ele><time>2026-08-14T08:53:56Z</time></trkpt><trkpt lat="59.3373938184" lon="34.6664271690"><ele>172.31</ele><time>2026-08-14T08:54:24Z</time></trkpt><trkpt lat="59.3373981770" lon="34.6663848404"><ele>174.38</ele><time>2026-08-14T08:54:48Z</time></trkpt><trkpt lat="59.3375058845" lon="34.6664088126"><ele>174.37</ele><time>2026-08-14T08:55:06Z</time></trkpt><trkpt lat="59.3375933915" lon="34.6664699167"><ele>173.49</ele><time>2026-08-14T08:55:23Z</time></trkpt><trkpt lat="59.3376443535" lon="34.6666117385"><ele>172.56</ele><time>2026-08-14T08:55:38Z</time></trkpt><trkpt lat="59.3377558328" lon="34.6667860821"><ele>170.44</ele><time>2026-08-14T08:56:00Z</time></trkpt><trkpt lat="59.3378232233" lon="34.6668439172"><ele>168.75</ele><time>2026-08-14T08:56:14Z</time></trkpt><trkpt lat="59.3379199505" lon="34.6669279877"><ele>166.85</ele><time>2026-08-14T08:56:33Z</time></trkpt><trkpt lat="59.3379444256" lon="34.6669988148"><ele>167.06</ele><time>2026-08-14T08:56:54Z</time></trkpt><trkpt lat="59.3379591778" lon="34.6670082025"><ele>167.94</ele><time>2026-08-14T08:57:17Z</time></trkpt><trkpt lat="59.3379605189" lon="34.6670133993"><ele>167.99</ele><time>2026-08-14T08:57:38Z</time></trkpt><trkpt lat="59.3379979860" lon="34.6669584140"><ele>168.45</ele><time>2026-08-14T08:58:05Z</time></trkpt><trkpt lat="59.3380105589" lon="34.6670579910"><ele>168.50</ele><time>2026-08-14T08:58:27Z</time></trkpt><trkpt lat="59.3380805477" lon="34.6671931911"><ele>168.02</ele><time>2026-08-14T08:58:44Z</time></trkpt><trkpt lat="59.3381177634" lon="34.6673573088"><ele>166.88</ele><time>2026-08-14T08:59:02Z</time></trkpt><trkpt lat="59.3382346071" lon="34.6675019804"><ele>165.65</ele><time>2026-08-14T08:59:23Z</time></trkpt><trkpt lat="59.3383638561" lon="34.6675484162"><ele>163.42</ele><time>2026-08-14T08:59:43Z</time></trkpt><trkpt lat="59.3385140598" lon="34.6677052416"><ele>161.14</ele><time>2026-08-14T09:00:01Z</time></trkpt><trkpt lat="59.3385757506" lon="34.6678054892"><ele>161.67</ele><time>2026-08-14T09:00:20Z</time></trkpt><trkpt lat="59.3385683745" lon="34.6678348258"><ele>163.68</ele><time>2026-08-14T09:00:43Z</time></trkpt><trkpt lat="59.3385544606" lon="34.6678438783"><ele>165.84</ele><time>2026-08-14T09:01:13Z</time></trkpt><trkpt lat="59.3385680392" lon="34.6678702813"><ele>167.59</ele><time>2026-08-14T09:01:37Z</time></trkpt><trkpt lat="59.3385603279" lon="34.6678489074"><ele>169.63</ele><time>2026-08-14T09:01:58Z</time></trkpt><trkpt lat="59.3386485055" lon="34.6678820997"><ele>169.86</ele><time>2026-08-14T09:02:15Z</time></trkpt><trkpt lat="59.3387412094" lon="34.6679221652"><ele>170.04</ele><time>2026-08-14T09:02:35Z</time></trkpt><trkpt lat="59.3388290517" lon="34.6680054814"><ele>170.65</ele><time>2026-08-14T09:02:52Z</time></trkpt><trkpt lat="59.3389074225" lon="34.6680419426"><ele>170.66</ele><time>2026-08-14T09:03:15Z</time></trkpt><trkpt lat="59.3390145432" lon="34.6680071577"><ele>170.41</ele><time>2026-08-14T09:03:35Z</time></trkpt><trkpt lat="59.3391090911" lon="34.6679605544"><ele>169.15</ele><time>2026-08-14T09:03:50Z</time></trkpt><trkpt lat="59.3392339814" lon="34.6679212432"><ele>167.33</ele><time>2026-08-14T09:04:08Z</time></trkpt><trkpt lat="59.3393672537" lon="34.6678928286"><ele>164.89</ele><time>2026-08-14T09:04:26Z</time></trkpt><trkpt lat="59.3394053914" lon="34.6678724606"><ele>167.53</ele><time>2026-08-14T09:04:51Z</time></trkpt><trkpt lat="59.3394079059" lon="34.6679222491"><ele>168.46</ele><time>2026-08-14T09:05:31Z</time></trkpt><trkpt lat="59.3394079059" lon="34.6679062396"><ele>168.86</ele><time>2026-08-14T09:05:53Z</time></trkpt><trkpt lat="59.3394627236" lon="34.6679199859"><ele>169.07</ele><time>2026-08-14T09:06:14Z</time></trkpt><trkpt lat="59.3395659886" lon="34.6679577883"><ele>167.99</ele><time>2026-08-14T09:06:31Z</time></trkpt><trkpt lat="59.3397073913" lon="34.6680542640"><ele>166.44</ele><time>2026-08-14T09:06:49Z</time></trkpt><trkpt lat="59.3398083095" lon="34.6681400947"><ele>165.06</ele><time>2026-08-14T09:07:04Z</time></trkpt><trkpt lat="59.3398894463" lon="34.6682013664"><ele>163.18</ele><time>2026-08-14T09:07:19Z</time></trkpt><trkpt lat="59.3399760313" lon="34.6682682540"><ele>162.14</ele><time>2026-08-14T09:07:39Z</time></trkpt><trkpt lat="59.3400149234" lon="34.6683260053"><ele>163.78</ele><time>2026-08-14T09:07:57Z</time></trkpt><trkpt lat="59.3400110677" lon="34.6683398355"><ele>165.28</ele><time>2026-08-14T09:08:18Z</time></trkpt><trkpt lat="59.3400366325" lon="34.6683059726"><ele>166.06</ele><time>2026-08-14T09:08:42Z</time></trkpt><trkpt lat="59.3400362972" lon="34.6683499776"><ele>169.02</ele><time>2026-08-14T09:09:12Z</time></trkpt><trkpt lat="59.3401009217" lon="34.6684443578"><ele>169.19</ele><time>2026-08-14T09:09:28Z</time></trkpt><trkpt lat="59.3402119819" lon="34.6684706770"><ele>168.65</ele><time>2026-08-14T09:09:45Z</time></trkpt><trkpt lat="59.3403501995" lon="34.6684004366"><ele>167.29</ele><time>2026-08-14T09:10:05Z</time></trkpt><trkpt lat="59.3404718209" lon="34.6684106626"><ele>166.48</ele><time>2026-08-14T09:10:23Z</time></trkpt><trkpt lat="59.3405850604" lon="34.6684399992"><ele>165.68</ele><time>2026-08-14T09:10:40Z</time></trkpt><trkpt lat="59.3406902533" lon="34.6684545837"><ele>165.22</ele><time>2026-08-14T09:10:58Z</time></trkpt><trkpt lat="59.3407948595" lon="34.6684564278"><ele>165.25</ele><time>2026-08-14T09:11:15Z</time></trkpt><trkpt lat="59.3408454023" lon="34.6684539132"><ele>166.48</ele><time>2026-08-14T09:11:39Z</time></trkpt><trkpt lat="59.3408367690" lon="34.6684729401"><ele>169.70</ele><time>2026-08-14T09:12:15Z</time></trkpt><trkpt lat="59.3408314046" lon="34.6684875246"><ele>169.91</ele><time>2026-08-14T09:12:34Z</time></trkpt><trkpt lat="59.3407723121" lon="34.6685622074"><ele>168.35</ele><time>2026-08-14T09:13:01Z</time></trkpt><trkpt lat="59.3407941051" lon="34.6686949767"><ele>168.25</ele><time>2026-08-14T09:13:18Z</time></trkpt><trkpt lat="59.3407365214" lon="34.6687969845"><ele>167.44</ele><time>2026-08-14T09:13:34Z</time></trkpt><trkpt lat="59.3406918459" lon="34.6689609345"><ele>167.18</ele><time>2026-08-14T09:13:46Z</time></trkpt><trkpt lat="59.3406262156" lon="34.6691587474"><ele>167.41</ele><time>2026-08-14T09:14:04Z</time></trkpt><trkpt lat="59.3405506946" lon="34.6692802012"><ele>167.16</ele><time>2026-08-14T09:14:20Z</time></trkpt><trkpt lat="59.3404959608" lon="34.6694651060"><ele>166.43</ele><time>2026-08-14T09:14:34Z</time></trkpt><trkpt lat="59.3404225353" lon="34.6696381085"><ele>166.32</ele><time>2026-08-14T09:14:52Z</time></trkpt><trkpt lat="59.3404320907" lon="34.6696816944"><ele>165.55</ele><time>2026-08-14T09:15:13Z</time></trkpt><trkpt lat="59.3404450826" lon="34.6696845442"><ele>164.93</ele><time>2026-08-14T09:15:39Z</time></trkpt><trkpt lat="59.3404440768" lon="34.6696864720"><ele>166.52</ele><time>2026-08-14T09:16:03Z</time></trkpt><trkpt lat="59.3404253013" lon="34.6697033197"><ele>167.10</ele><time>2026-08-14T09:16:30Z</time></trkpt><trkpt lat="59.3404120579" lon="34.6698678564"><ele>167.58</ele><time>2026-08-14T09:16:50Z</time></trkpt><trkpt lat="59.3403884210" lon="34.6700971015"><ele>166.91</ele><time>2026-08-14T09:17:09Z</time></trkpt><trkpt lat="59.3403760158" lon="34.6702609677"><ele>167.31</ele><time>2026-08-14T09:17:24Z</time></trkpt><trkpt lat="59.3403836433" lon="34.6705235727"><ele>166.91</ele><time>2026-08-14T09:17:38Z</time></trkpt><trkpt lat="59.3403666280" lon="34.6708579268"><ele>167.19</ele><time>2026-08-14T09:17:56Z</time></trkpt><trkpt lat="59.3403896783" lon="34.6711015888"><ele>167.60</ele><time>2026-08-14T09:18:15Z</time></trkpt><trkpt lat="59.3403276522" lon="34.6711901855"><ele>168.51</ele><time>2026-08-14T09:18:44Z</time></trkpt><trkpt lat="59.3403211143" lon="34.6711755171"><ele>166.67</ele><time>2026-08-14T09:19:15Z</time></trkpt><trkpt lat="59.3402671348" lon="34.6709458530"><ele>166.75</ele><time>2026-08-14T09:19:35Z</time></trkpt><trkpt lat="59.3402461801" lon="34.6709102299"><ele>166.72</ele><time>2026-08-14T09:19:40Z</time></trkpt><trkpt lat="59.3401336111" lon="34.6706856787"><ele>166.56</ele><time>2026-08-14T09:19:58Z</time></trkpt><trkpt lat="59.3400829006" lon="34.6705201361"><ele>165.78</ele><time>2026-08-14T09:20:10Z</time></trkpt><trkpt lat="59.3400395662" lon="34.6704542544"><ele>167.60</ele><time>2026-08-14T09:20:31Z</time></trkpt><trkpt lat="59.3400458526" lon="34.6704706829"><ele>167.24</ele><time>2026-08-14T09:21:07Z</time></trkpt><trkpt lat="59.3400114868" lon="34.6704481356"><ele>167.53</ele><time>2026-08-14T09:21:36Z</time></trkpt><trkpt lat="59.3400088046" lon="34.6704431903"><ele>168.16</ele><time>2026-08-14T09:22:07Z</time></trkpt><trkpt lat="59.3399606086" lon="34.6704022028"><ele>167.98</ele><time>2026-08-14T09:22:32Z</time></trkpt><trkpt lat="59.3398258276" lon="34.6703794878"><ele>165.92</ele><time>2026-08-14T09:22:52Z</time></trkpt><trkpt lat="59.3396286853" lon="34.6703147795"><ele>161.22</ele><time>2026-08-14T09:23:13Z</time></trkpt><trkpt lat="59.3395085726" lon="34.6702055633"><ele>159.26</ele><time>2026-08-14T09:23:32Z</time></trkpt><trkpt lat="59.3394022901" lon="34.6701221634"><ele>158.26</ele><time>2026-08-14T09:23:51Z</time></trkpt><trkpt lat="59.3392142002" lon="34.6701561101"><ele>154.45</ele><time>2026-08-14T09:24:16Z</time></trkpt><trkpt lat="59.3391096778" lon="34.6701969299"><ele>152.54</ele><time>2026-08-14T09:24:32Z</time></trkpt><trkpt lat="59.3390333187" lon="34.6701869555"><ele>151.19</ele><time>2026-08-14T09:24:48Z</time></trkpt><trkpt lat="59.3390167225" lon="34.6701746341"><ele>154.97</ele><time>2026-08-14T09:25:09Z</time></trkpt><trkpt lat="59.3389982823" lon="34.6701516677"><ele>157.00</ele><time>2026-08-14T09:25:35Z</time></trkpt><trkpt lat="59.3389940914" lon="34.6701384243"><ele>158.00</ele><time>2026-08-14T09:26:00Z</time></trkpt><trkpt lat="59.3389821053" lon="34.6701228339"><ele>159.23</ele><time>2026-08-14T09:26:28Z</time></trkpt><trkpt lat="59.3389738910" lon="34.6701176371"><ele>160.04</ele><time>2026-08-14T09:26:49Z</time></trkpt><trkpt lat="59.3388551194" lon="34.6701002028"><ele>159.19</ele><time>2026-08-14T09:27:10Z</time></trkpt><trkpt lat="59.3386936001" lon="34.6700350754"><ele>159.50</ele><time>2026-08-14T09:27:31Z</time></trkpt><trkpt lat="59.3385700509" lon="34.6699977759"><ele>157.12</ele><time>2026-08-14T09:27:49Z</time></trkpt><trkpt lat="59.3383864034" lon="34.6699224226"><ele>157.24</ele><time>2026-08-14T09:28:10Z</time></trkpt><trkpt lat="59.3382184301" lon="34.6698132902"><ele>156.10</ele><time>2026-08-14T09:28:31Z</time></trkpt><trkpt lat="59.3380684778" lon="34.6697379369"><ele>153.33</ele><time>2026-08-14T09:28:53Z</time></trkpt><trkpt lat="59.3380073737" lon="34.6696333308"><ele>155.57</ele><time>2026-08-14T09:29:08Z</time></trkpt><trkpt lat="59.3379758578" lon="34.6696170699"><ele>156.64</ele><time>2026-08-14T09:29:34Z</time></trkpt><trkpt lat="59.3379755225" lon="34.6696194168"><ele>158.03</ele><time>2026-08-14T09:29:56Z</time></trkpt><trkpt lat="59.3379890174" lon="34.6696071792"><ele>157.49</ele><time>2026-08-14T09:30:22Z</time></trkpt><trkpt lat="59.3378919549" lon="34.6696336661"><ele>157.15</ele><time>2026-08-14T09:30:37Z</time></trkpt><trkpt lat="59.3377955630" lon="34.6697839536"><ele>154.62</ele><time>2026-08-14T09:30:57Z</time></trkpt><trkpt lat="59.3376555853" lon="34.6699223388"><ele>151.73</ele><time>2026-08-14T09:31:19Z</time></trkpt><trkpt lat="59.3375579361" lon="34.6701699402"><ele>148.52</ele><time>2026-08-14T09:31:37Z</time></trkpt><trkpt lat="59.3373879511" lon="34.6703519113"><ele>148.24</ele><time>2026-08-14T09:31:53Z</time></trkpt><trkpt lat="59.3372374959" lon="34.6704152785"><ele>148.75</ele><time>2026-08-14T09:32:14Z</time></trkpt><trkpt lat="59.3371514976" lon="34.6705605369"><ele>149.74</ele><time>2026-08-14T09:32:38Z</time></trkpt><trkpt lat="59.3371489830" lon="34.6705565136"><ele>150.71</ele><time>2026-08-14T09:33:00Z</time></trkpt><trkpt lat="59.3371495698" lon="34.6705794800"><ele>154.00</ele><time>2026-08-14T09:33:29Z</time></trkpt><trkpt lat="59.3371150363" lon="34.6705910470"><ele>157.48</ele><time>2026-08-14T09:33:54Z</time></trkpt><trkpt lat="59.3370560277" lon="34.6706976648"><ele>158.75</ele><time>2026-08-14T09:34:19Z</time></trkpt><trkpt lat="59.3368915748" lon="34.6709760278"><ele>155.16</ele><time>2026-08-14T09:34:43Z</time></trkpt><trkpt lat="59.3367513455" lon="34.6711225435"><ele>154.12</ele><time>2026-08-14T09:35:03Z</time></trkpt><trkpt lat="59.3366648443" lon="34.6712329332"><ele>152.08</ele><time>2026-08-14T09:35:20Z</time></trkpt><trkpt lat="59.3366396986" lon="34.6712779440"><ele>152.23</ele><time>2026-08-14T09:35:26Z</time></trkpt><trkpt lat="59.3366415426" lon="34.6714582387"><ele>155.74</ele><time>2026-08-14T09:35:51Z</time></trkpt><trkpt lat="59.3367384374" lon="34.6717106178"><ele>153.59</ele><time>2026-08-14T09:36:12Z</time></trkpt><trkpt lat="59.3368536048" lon="34.6719021443"><ele>152.06</ele><time>2026-08-14T09:36:32Z</time></trkpt><trkpt lat="59.3369810935" lon="34.6720599756"><ele>149.29</ele><time>2026-08-14T09:36:51Z</time></trkpt><trkpt lat="59.3370016292" lon="34.6721256897"><ele>155.74</ele><time>2026-08-14T09:37:14Z</time></trkpt><trkpt lat="59.3370352406" lon="34.6721100155"><ele>160.50</ele><time>2026-08-14T09:37:42Z</time></trkpt><trkpt lat="59.3370360788" lon="34.6721106861"><ele>165.51</ele><time>2026-08-14T09:38:11Z</time></trkpt><trkpt lat="59.3370426167" lon="34.6720810980"><ele>166.89</ele><time>2026-08-14T09:38:31Z</time></trkpt><trkpt lat="59.3370356597" lon="34.6720799245"><ele>168.42</ele><time>2026-08-14T09:38:54Z</time></trkpt><trkpt lat="59.3370190635" lon="34.6720919944"><ele>168.92</ele><time>2026-08-14T09:39:17Z</time></trkpt><trkpt lat="59.3370079156" lon="34.6720645856"><ele>168.93</ele><time>2026-08-14T09:39:40Z</time></trkpt><trkpt lat="59.3370097596" lon="34.6720565390"><ele>169.08</ele><time>2026-08-14T09:40:01Z</time></trkpt><trkpt lat="59.3370032217" lon="34.6720586345"><ele>168.73</ele><time>2026-08-14T09:40:31Z</time></trkpt><trkpt lat="59.3369988631" lon="34.6720802598"><ele>168.50</ele><time>2026-08-14T09:40:58Z</time></trkpt><trkpt lat="59.3370107654" lon="34.6720722131"><ele>170.99</ele><time>2026-08-14T09:41:28Z</time></trkpt><trkpt lat="59.3370383419" lon="34.6720725484"><ele>170.71</ele><time>2026-08-14T09:42:01Z</time></trkpt><trkpt lat="59.3370240927" lon="34.6721152961"><ele>171.57</ele><time>2026-08-14T09:42:28Z</time></trkpt><trkpt lat="59.3370371684" lon="34.6721113566"><ele>173.94</ele><time>2026-08-14T09:42:57Z</time></trkpt><trkpt lat="59.3369882181" lon="34.6720407810"><ele>174.94</ele><time>2026-08-14T09:43:29Z</time></trkpt><trkpt lat="59.3369875476" lon="34.6721138712"><ele>177.16</ele><time>2026-08-14T09:44:02Z</time></trkpt><trkpt lat="59.3369928282" lon="34.6721469797"><ele>176.82</ele><time>2026-08-14T09:44:32Z</time></trkpt><trkpt lat="59.3370206561" lon="34.6720777452"><ele>176.35</ele><time>2026-08-14T09:45:03Z</time></trkpt><trkpt lat="59.3370389286" lon="34.6721126977"><ele>174.87</ele><time>2026-08-14T09:45:33Z</time></trkpt><trkpt lat="59.3370316364" lon="34.6721750591"><ele>174.74</ele><time>2026-08-14T09:45:58Z</time></trkpt><trkpt lat="59.3369884696" lon="34.6722220816"><ele>175.10</ele><time>2026-08-14T09:46:23Z</time></trkpt><trkpt lat="59.3369798362" lon="34.6721694432"><ele>173.51</ele><time>2026-08-14T09:46:48Z</time></trkpt><trkpt lat="59.3369948398" lon="34.6721674316"><ele>172.76</ele><time>2026-08-14T09:47:12Z</time></trkpt><trkpt lat="59.3369979411" lon="34.6721469797"><ele>171.89</ele><time>2026-08-14T09:47:38Z</time></trkpt><trkpt lat="59.3369857036" lon="34.6721387655"><ele>172.08</ele><time>2026-08-14T09:48:04Z</time></trkpt><trkpt lat="59.3370513339" lon="34.6720816847"><ele>171.20</ele><time>2026-08-14T09:48:30Z</time></trkpt><trkpt lat="59.3370805029" lon="34.6720879711"><ele>171.84</ele><time>2026-08-14T09:48:53Z</time></trkpt><trkpt lat="59.3370713666" lon="34.6721152123"><ele>173.37</ele><time>2026-08-14T09:49:18Z</time></trkpt><trkpt lat="59.3370642420" lon="34.6721228398"><ele>174.86</ele><time>2026-08-14T09:49:49Z</time></trkpt><trkpt lat="59.3370318878" lon="34.6720741410"><ele>174.30</ele><time>2026-08-14T09:50:20Z</time></trkpt><trkpt lat="59.3370261043" lon="34.6720766556"><ele>174.39</ele><time>2026-08-14T09:50:51Z</time></trkpt><trkpt lat="59.3370564468" lon="34.6721271984"><ele>174.68</ele><time>2026-08-14T09:51:22Z</time></trkpt><trkpt lat="59.3370572850" lon="34.6721127816"><ele>174.82</ele><time>2026-08-14T09:51:53Z</time></trkpt><trkpt lat="59.3370763958" lon="34.6721089259"><ele>174.71</ele><time>2026-08-14T09:52:29Z</time></trkpt><trkpt lat="59.3370693550" lon="34.6721196547"><ele>173.64</ele><time>2026-08-14T09:53:02Z</time></trkpt><trkpt lat="59.3370333128" lon="34.6720955987"><ele>173.68</ele><time>2026-08-14T09:53:33Z</time></trkpt><trkpt lat="59.3370318878" lon="34.6720905695"><ele>174.43</ele><time>2026-08-14T09:54:08Z</time></trkpt><trkpt lat="59.3370520882" lon="34.6720173955"><ele>175.88</ele><time>2026-08-14T09:54:41Z</time></trkpt><trkpt lat="59.3370441254" lon="34.6720424574"><ele>175.21</ele><time>2026-08-14T09:55:25Z</time></trkpt><trkpt lat="59.3370242603" lon="34.6720702853"><ele>175.63</ele><time>2026-08-14T09:55:58Z</time></trkpt><trkpt lat="59.3370304629" lon="34.6719909087"><ele>177.78</ele><time>2026-08-14T09:56:35Z</time></trkpt><trkpt lat="59.3370261043" lon="34.6720677707"><ele>179.22</ele><time>2026-08-14T09:57:05Z</time></trkpt><trkpt lat="59.3370148726" lon="34.6721173078"><ele>176.99</ele><time>2026-08-14T09:57:47Z</time></trkpt><trkpt lat="59.3370450474" lon="34.6721359156"><ele>177.30</ele><time>2026-08-14T09:58:19Z</time></trkpt><trkpt lat="59.3370664213" lon="34.6722618118"><ele>176.82</ele><time>2026-08-14T09:58:37Z</time></trkpt><trkpt lat="59.3370178901" lon="34.6723977663"><ele>175.08</ele><time>2026-08-14T09:58:52Z</time></trkpt><trkpt lat="59.3369413633" lon="34.6725700982"><ele>173.43</ele><time>2026-08-14T09:59:07Z</time></trkpt><trkpt lat="59.3368942570" lon="34.6728041209"><ele>172.31</ele><time>2026-08-14T09:59:22Z</time></trkpt><trkpt lat="59.3368722964" lon="34.6729903668"><ele>171.49</ele><time>2026-08-14T09:59:34Z</time></trkpt><trkpt lat="59.3368387688" lon="34.6732698195"><ele>170.59</ele><time>2026-08-14T09:59:53Z</time></trkpt><trkpt lat="59.3368292134" lon="34.6734957118"><ele>170.37</ele><time>2026-08-14T10:00:06Z</time></trkpt><trkpt lat="59.3368191551" lon="34.6738113742"><ele>170.63</ele><time>2026-08-14T10:00:26Z</time></trkpt><trkpt lat="59.3368346617" lon="34.6741582174"><ele>169.29</ele><time>2026-08-14T10:00:42Z</time></trkpt><trkpt lat="59.3367956020" lon="34.6744127758"><ele>168.72</ele><time>2026-08-14T10:00:59Z</time></trkpt><trkpt lat="59.3368055765" lon="34.6746376622"><ele>169.26</ele><time>2026-08-14T10:01:15Z</time></trkpt><trkpt lat="59.3368172273" lon="34.6749219764"><ele>169.59</ele><time>2026-08-14T10:01:33Z</time></trkpt><trkpt lat="59.3368619028" lon="34.6751771215"><ele>169.95</ele><time>2026-08-14T10:01:52Z</time></trkpt><trkpt lat="59.3369152118" lon="34.6754454263"><ele>170.13</ele><time>2026-08-14T10:02:11Z</time></trkpt><trkpt lat="59.3369528465" lon="34.6756855678"><ele>170.26</ele><time>2026-08-14T10:02:30Z</time></trkpt><trkpt lat="59.3370002043" lon="34.6759247873"><ele>170.20</ele><time>2026-08-14T10:02:49Z</time></trkpt><trkpt lat="59.3369541876" lon="34.6761017293"><ele>169.82</ele><time>2026-08-14T10:03:07Z</time></trkpt><trkpt lat="59.3369670119" lon="34.6763496660"><ele>169.70</ele><time>2026-08-14T10:03:28Z</time></trkpt><trkpt lat="59.3369647488" lon="34.6765790787"><ele>169.32</ele><time>2026-08-14T10:03:44Z</time></trkpt><trkpt lat="59.3369341549" lon="34.6768036298"><ele>168.59</ele><time>2026-08-14T10:04:02Z</time></trkpt><trkpt lat="59.3369461410" lon="34.6771589387"><ele>168.24</ele><time>2026-08-14T10:04:22Z</time></trkpt><trkpt lat="59.3369326461" lon="34.6773550753"><ele>168.09</ele><time>2026-08-14T10:04:36Z</time></trkpt><trkpt lat="59.3368910719" lon="34.6775864996"><ele>167.53</ele><time>2026-08-14T10:04:58Z</time></trkpt><trkpt lat="59.3368510902" lon="34.6777693089"><ele>168.05</ele><time>2026-08-14T10:05:15Z</time></trkpt><trkpt lat="59.3368059956" lon="34.6779524535"><ele>168.46</ele><time>2026-08-14T10:05:33Z</time></trkpt><trkpt lat="59.3367972784" lon="34.6781759989"><ele>168.92</ele><time>2026-08-14T10:05:51Z</time></trkpt><trkpt lat="59.3367854599" lon="34.6783841215"><ele>168.04</ele><time>2026-08-14T10:06:10Z</time></trkpt><trkpt lat="59.3367932551" lon="34.6786555275"><ele>167.50</ele><time>2026-08-14T10:06:31Z</time></trkpt><trkpt lat="59.3368710391" lon="34.6788327210"><ele>166.97</ele><time>2026-08-14T10:06:50Z</time></trkpt><trkpt lat="59.3368964363" lon="34.6790675819"><ele>167.45</ele><time>2026-08-14T10:07:09Z</time></trkpt><trkpt lat="59.3368774932" lon="34.6792792249"><ele>166.90</ele><time>2026-08-14T10:07:28Z</time></trkpt><trkpt lat="59.3367380183" lon="34.6793859266"><ele>166.20</ele><time>2026-08-14T10:07:48Z</time></trkpt><trkpt lat="59.3366188277" lon="34.6795066260"><ele>165.13</ele><time>2026-08-14T10:08:04Z</time></trkpt><trkpt lat="59.3365458213" lon="34.6796192788"><ele>165.65</ele><time>2026-08-14T10:08:20Z</time></trkpt><trkpt lat="59.3364511896" lon="34.6795834042"><ele>166.65</ele><time>2026-08-14T10:08:37Z</time></trkpt><trkpt lat="59.3363615870" lon="34.6794998366"><ele>168.08</ele><time>2026-08-14T10:08:54Z</time></trkpt><trkpt lat="59.3362812046" lon="34.6796141658"><ele>169.10</ele><time>2026-08-14T10:09:09Z</time></trkpt><trkpt lat="59.3362931069" lon="34.6798094641"><ele>168.99</ele><time>2026-08-14T10:09:26Z</time></trkpt><trkpt lat="59.3363849726" lon="34.6799041796"><ele>168.66</ele><time>2026-08-14T10:09:43Z</time></trkpt><trkpt lat="59.3364026584" lon="34.6800465044"><ele>168.35</ele><time>2026-08-14T10:10:01Z</time></trkpt><trkpt lat="59.3363257963" lon="34.6802931838"><ele>167.74</ele><time>2026-08-14T10:10:20Z</time></trkpt><trkpt lat="59.3363644369" lon="34.6805145498"><ele>167.53</ele><time>2026-08-14T10:10:37Z</time></trkpt><trkpt lat="59.3364340905" lon="34.6807552781"><ele>168.02</ele><time>2026-08-14T10:10:53Z</time></trkpt><trkpt lat="59.3364921771" lon="34.6808872931"><ele>167.99</ele><time>2026-08-14T10:11:09Z</time></trkpt><trkpt lat="59.3366311491" lon="34.6809667535"><ele>165.21</ele><time>2026-08-14T10:11:25Z</time></trkpt><trkpt lat="59.3368443847" lon="34.6809845231"><ele>154.38</ele><time>2026-08-14T10:11:49Z</time></trkpt><trkpt lat="59.3370169681" lon="34.6810381673"><ele>152.48</ele><time>2026-08-14T10:12:03Z</time></trkpt><trkpt lat="59.3371791579" lon="34.6812177915"><ele>150.60</ele><time>2026-08-14T10:12:18Z</time></trkpt><trkpt lat="59.3372986000" lon="34.6813934762"><ele>145.21</ele><time>2026-08-14T10:12:37Z</time></trkpt><trkpt lat="59.3374701776" lon="34.6815540735"><ele>137.17</ele><time>2026-08-14T10:12:54Z</time></trkpt><trkpt lat="59.3375997618" lon="34.6816844959"><ele>130.15</ele><time>2026-08-14T10:13:09Z</time></trkpt><trkpt lat="59.3377855886" lon="34.6816564165"><ele>143.78</ele><time>2026-08-14T10:13:22Z</time></trkpt><trkpt lat="59.3377999216" lon="34.6816590149"><ele>144.74</ele><time>2026-08-14T10:13:23Z</time></trkpt><trkpt lat="59.3380070385" lon="34.6817317698"><ele>152.12</ele><time>2026-08-14T10:13:38Z</time></trkpt><trkpt lat="59.3381813820" lon="34.6819895133"><ele>147.45</ele><time>2026-08-14T10:13:57Z</time></trkpt><trkpt lat="59.3383537140" lon="34.6822166629"><ele>143.95</ele><time>2026-08-14T10:14:14Z</time></trkpt><trkpt lat="59.3383962102" lon="34.6822843049"><ele>142.06</ele><time>2026-08-14T10:14:19Z</time></trkpt><trkpt lat="59.3385032471" lon="34.6824635100"><ele>135.75</ele><time>2026-08-14T10:14:33Z</time></trkpt><trkpt lat="59.3385279737" lon="34.6825006418"><ele>135.92</ele><time>2026-08-14T10:14:35Z</time></trkpt><trkpt lat="59.3386742380" lon="34.6826921683"><ele>131.91</ele><time>2026-08-14T10:14:49Z</time></trkpt><trkpt lat="59.3388173170" lon="34.6828297991"><ele>128.30</ele><time>2026-08-14T10:15:03Z</time></trkpt><trkpt lat="59.3390121963" lon="34.6829415299"><ele>126.85</ele><time>2026-08-14T10:15:20Z</time></trkpt><trkpt lat="59.3391938321" lon="34.6830530092"><ele>126.34</ele><time>2026-08-14T10:15:35Z</time></trkpt><trkpt lat="59.3394483905" lon="34.6830851119"><ele>123.00</ele><time>2026-08-14T10:15:57Z</time></trkpt><trkpt lat="59.3397169467" lon="34.6832012013"><ele>128.14</ele><time>2026-08-14T10:16:16Z</time></trkpt><trkpt lat="59.3399106525" lon="34.6833029576"><ele>128.31</ele><time>2026-08-14T10:16:34Z</time></trkpt><trkpt lat="59.3399575911" lon="34.6833853517"><ele>132.45</ele><time>2026-08-14T10:16:46Z</time></trkpt><trkpt lat="59.3400656339" lon="34.6832436137"><ele>144.66</ele><time>2026-08-14T10:16:58Z</time></trkpt><trkpt lat="59.3403140735" lon="34.6833143570"><ele>153.60</ele><time>2026-08-14T10:17:17Z</time></trkpt><trkpt lat="59.3405321706" lon="34.6833976731"><ele>149.45</ele><time>2026-08-14T10:17:37Z</time></trkpt><trkpt lat="59.3407642655" lon="34.6834137663"><ele>147.97</ele><time>2026-08-14T10:17:58Z</time></trkpt><trkpt lat="59.3409713823" lon="34.6834472101"><ele>150.54</ele><time>2026-08-14T10:18:18Z</time></trkpt><trkpt lat="59.3411908206" lon="34.6834598668"><ele>145.28</ele><time>2026-08-14T10:18:37Z</time></trkpt><trkpt lat="59.3414540123" lon="34.6834181249"><ele>144.63</ele><time>2026-08-14T10:18:57Z</time></trkpt><trkpt lat="59.3417188805" lon="34.6834512334"><ele>154.21</ele><time>2026-08-14T10:19:13Z</time></trkpt><trkpt lat="59.3419700023" lon="34.6834647283"><ele>161.25</ele><time>2026-08-14T10:19:31Z</time></trkpt><trkpt lat="59.3421592657" lon="34.6834875271"><ele>161.20</ele><time>2026-08-14T10:19:47Z</time></trkpt><trkpt lat="59.3423387222" lon="34.6834959090"><ele>157.01</ele><time>2026-08-14T10:20:04Z</time></trkpt><trkpt lat="59.3424476869" lon="34.6835109126"><ele>162.21</ele><time>2026-08-14T10:20:25Z</time></trkpt><trkpt lat="59.3424986489" lon="34.6835004352"><ele>166.49</ele><time>2026-08-14T10:20:43Z</time></trkpt><trkpt lat="59.3425958790" lon="34.6834726073"><ele>164.21</ele><time>2026-08-14T10:20:57Z</time></trkpt><trkpt lat="59.3426744174" lon="34.6835313644"><ele>163.36</ele><time>2026-08-14T10:21:13Z</time></trkpt><trkpt lat="59.3428587355" lon="34.6835925523"><ele>163.25</ele><time>2026-08-14T10:21:32Z</time></trkpt><trkpt lat="59.3430832028" lon="34.6837062109"><ele>159.64</ele><time>2026-08-14T10:21:53Z</time></trkpt><trkpt lat="59.3432280421" lon="34.6840276569"><ele>159.92</ele><time>2026-08-14T10:22:10Z</time></trkpt><trkpt lat="59.3432718795" lon="34.6841718256"><ele>160.92</ele><time>2026-08-14T10:22:17Z</time></trkpt><trkpt lat="59.3433378451" lon="34.6845212672"><ele>162.90</ele><time>2026-08-14T10:22:32Z</time></trkpt><trkpt lat="59.3434473965" lon="34.6848407853"><ele>165.51</ele><time>2026-08-14T10:22:49Z</time></trkpt><trkpt lat="59.3435074110" lon="34.6850647498"><ele>164.57</ele><time>2026-08-14T10:22:59Z</time></trkpt><trkpt lat="59.3435246777" lon="34.6851221658"><ele>163.90</ele><time>2026-08-14T10:23:02Z</time></trkpt><trkpt lat="59.3435786571" lon="34.6852398477"><ele>162.66</ele><time>2026-08-14T10:23:10Z</time></trkpt><trkpt lat="59.3436557706" lon="34.6854790673"><ele>160.09</ele><time>2026-08-14T10:23:23Z</time></trkpt><trkpt lat="59.3437353987" lon="34.6858289279"><ele>159.29</ele><time>2026-08-14T10:23:38Z</time></trkpt><trkpt lat="59.3438258395" lon="34.6862611827"><ele>157.52</ele><time>2026-08-14T10:23:57Z</time></trkpt><trkpt lat="59.3438429385" lon="34.6863408946"><ele>157.33</ele><time>2026-08-14T10:24:01Z</time></trkpt><trkpt lat="59.3438828364" lon="34.6864709817"><ele>156.82</ele><time>2026-08-14T10:24:07Z</time></trkpt><trkpt lat="59.3440182041" lon="34.6866734046"><ele>156.46</ele><time>2026-08-14T10:24:21Z</time></trkpt><trkpt lat="59.3442031927" lon="34.6868604049"><ele>158.26</ele><time>2026-08-14T10:24:38Z</time></trkpt><trkpt lat="59.3443754409" lon="34.6870261990"><ele>158.19</ele><time>2026-08-14T10:24:55Z</time></trkpt><trkpt lat="59.3444999959" lon="34.6872065775"><ele>156.77</ele><time>2026-08-14T10:25:11Z</time></trkpt><trkpt lat="59.3445988186" lon="34.6873455495"><ele>154.46</ele><time>2026-08-14T10:25:30Z</time></trkpt><trkpt lat="59.3447641097" lon="34.6875189710"><ele>147.96</ele><time>2026-08-14T10:25:52Z</time></trkpt><trkpt lat="59.3448658660" lon="34.6875934023"><ele>147.23</ele><time>2026-08-14T10:26:02Z</time></trkpt><trkpt lat="59.3450330012" lon="34.6875435300"><ele>146.71</ele><time>2026-08-14T10:26:19Z</time></trkpt><trkpt lat="59.3452879786" lon="34.6874934062"><ele>149.63</ele><time>2026-08-14T10:26:42Z</time></trkpt><trkpt lat="59.3455154635" lon="34.6874136943"><ele>146.21</ele><time>2026-08-14T10:27:05Z</time></trkpt><trkpt lat="59.3456687685" lon="34.6874537598"><ele>144.05</ele><time>2026-08-14T10:27:23Z</time></trkpt><trkpt lat="59.3457504082" lon="34.6875747107"><ele>142.00</ele><time>2026-08-14T10:27:42Z</time></trkpt><trkpt lat="59.3457788229" lon="34.6875582822"><ele>146.34</ele><time>2026-08-14T10:28:03Z</time></trkpt><trkpt lat="59.3459069822" lon="34.6876322106"><ele>150.44</ele><time>2026-08-14T10:28:26Z</time></trkpt><trkpt lat="59.3460435234" lon="34.6877794806"><ele>154.50</ele><time>2026-08-14T10:28:46Z</time></trkpt><trkpt lat="59.3462228123" lon="34.6876893751"><ele>159.78</ele><time>2026-08-14T10:29:10Z</time></trkpt><trkpt lat="59.3463299330" lon="34.6877000201"><ele>162.37</ele><time>2026-08-14T10:29:27Z</time></trkpt><trkpt lat="59.3464616966" lon="34.6875535883"><ele>161.37</ele><time>2026-08-14T10:29:49Z</time></trkpt><trkpt lat="59.3465269078" lon="34.6872877143"><ele>160.00</ele><time>2026-08-14T10:30:08Z</time></trkpt><trkpt lat="59.3465834856" lon="34.6871070843"><ele>159.56</ele><time>2026-08-14T10:30:25Z</time></trkpt><trkpt lat="59.3466407340" lon="34.6870962717"><ele>159.43</ele><time>2026-08-14T10:30:30Z</time></trkpt><trkpt lat="59.3467314262" lon="34.6871063299"><ele>158.71</ele><time>2026-08-14T10:30:38Z</time></trkpt><trkpt lat="59.3467862438" lon="34.6871332359"><ele>158.32</ele><time>2026-08-14T10:30:43Z</time></trkpt><trkpt lat="59.3468996510" lon="34.6871851198"><ele>156.27</ele><time>2026-08-14T10:30:57Z</time></trkpt><trkpt lat="59.3470402155" lon="34.6872503310"><ele>156.18</ele><time>2026-08-14T10:31:10Z</time></trkpt><trkpt lat="59.3471668661" lon="34.6873208228"><ele>154.71</ele><time>2026-08-14T10:31:25Z</time></trkpt><trkpt lat="59.3473177403" lon="34.6873824298"><ele>153.47</ele><time>2026-08-14T10:31:41Z</time></trkpt><trkpt lat="59.3474803492" lon="34.6874732058"><ele>150.93</ele><time>2026-08-14T10:32:02Z</time></trkpt><trkpt lat="59.3476723786" lon="34.6875226591"><ele>153.35</ele><time>2026-08-14T10:32:20Z</time></trkpt><trkpt lat="59.3478551041" lon="34.6875876188"><ele>156.70</ele><time>2026-08-14T10:32:36Z</time></trkpt><trkpt lat="59.3478644080" lon="34.6875972580"><ele>156.89</ele><time>2026-08-14T10:32:37Z</time></trkpt><trkpt lat="59.3480455410" lon="34.6876566857"><ele>159.75</ele><time>2026-08-14T10:32:53Z</time></trkpt><trkpt lat="59.3481658213" lon="34.6877862699"><ele>161.24</ele><time>2026-08-14T10:33:10Z</time></trkpt><trkpt lat="59.3482945673" lon="34.6878621262"><ele>161.18</ele><time>2026-08-14T10:33:22Z</time></trkpt><trkpt lat="59.3483533245" lon="34.6878992580"><ele>160.98</ele><time>2026-08-14T10:33:27Z</time></trkpt><trkpt lat="59.3484206311" lon="34.6879437659"><ele>161.36</ele><time>2026-08-14T10:33:34Z</time></trkpt><trkpt lat="59.3485730141" lon="34.6880513895"><ele>162.00</ele><time>2026-08-14T10:33:49Z</time></trkpt><trkpt lat="59.3486562464" lon="34.6880919579"><ele>161.68</ele><time>2026-08-14T10:33:56Z</time></trkpt><trkpt lat="59.3488327693" lon="34.6882042754"><ele>164.19</ele><time>2026-08-14T10:34:12Z</time></trkpt><trkpt lat="59.3489692267" lon="34.6883050259"><ele>164.51</ele><time>2026-08-14T10:34:25Z</time></trkpt><trkpt lat="59.3490895070" lon="34.6885401383"><ele>164.80</ele><time>2026-08-14T10:34:42Z</time></trkpt><trkpt lat="59.3492176663" lon="34.6887601633"><ele>166.91</ele><time>2026-08-14T10:34:57Z</time></trkpt><trkpt lat="59.3493159860" lon="34.6889666095"><ele>167.36</ele><time>2026-08-14T10:35:11Z</time></trkpt><trkpt lat="59.3493929319" lon="34.6890964452"><ele>167.62</ele><time>2026-08-14T10:35:20Z</time></trkpt><trkpt lat="59.3494417146" lon="34.6895095054"><ele>168.54</ele><time>2026-08-14T10:35:39Z</time></trkpt><trkpt lat="59.3495000526" lon="34.6899268404"><ele>169.18</ele><time>2026-08-14T10:35:57Z</time></trkpt><trkpt lat="59.3496122863" lon="34.6903280821"><ele>169.39</ele><time>2026-08-14T10:36:16Z</time></trkpt><trkpt lat="59.3497041520" lon="34.6906528808"><ele>168.61</ele><time>2026-08-14T10:36:32Z</time></trkpt><trkpt lat="59.3497667648" lon="34.6910128836"><ele>169.03</ele><time>2026-08-14T10:36:49Z</time></trkpt><trkpt lat="59.3497763202" lon="34.6912765782"><ele>166.15</ele><time>2026-08-14T10:37:03Z</time></trkpt><trkpt lat="59.3498114403" lon="34.6917266864"><ele>161.16</ele><time>2026-08-14T10:37:23Z</time></trkpt><trkpt lat="59.3498168048" lon="34.6919551771"><ele>159.72</ele><time>2026-08-14T10:37:32Z</time></trkpt><trkpt lat="59.3497946765" lon="34.6923607774"><ele>159.01</ele><time>2026-08-14T10:37:48Z</time></trkpt><trkpt lat="59.3498199899" lon="34.6929254662"><ele>158.57</ele><time>2026-08-14T10:38:10Z</time></trkpt><trkpt lat="59.3498666771" lon="34.6933629178"><ele>157.14</ele><time>2026-08-14T10:38:28Z</time></trkpt><trkpt lat="59.3499089219" lon="34.6937297937"><ele>153.76</ele><time>2026-08-14T10:38:45Z</time></trkpt><trkpt lat="59.3499688525" lon="34.6940708533"><ele>153.26</ele><time>2026-08-14T10:39:02Z</time></trkpt><trkpt lat="59.3499910645" lon="34.6944674850"><ele>148.31</ele><time>2026-08-14T10:39:22Z</time></trkpt><trkpt lat="59.3499876279" lon="34.6947958879"><ele>143.99</ele><time>2026-08-14T10:39:37Z</time></trkpt><trkpt lat="59.3500133604" lon="34.6952889115"><ele>145.77</ele><time>2026-08-14T10:39:54Z</time></trkpt><trkpt lat="59.3500095047" lon="34.6953915060"><ele>146.06</ele><time>2026-08-14T10:39:58Z</time></trkpt><trkpt lat="59.3500043917" lon="34.6957597230"><ele>149.75</ele><time>2026-08-14T10:40:13Z</time></trkpt><trkpt lat="59.3499986082" lon="34.6958779916"><ele>151.02</ele><time>2026-08-14T10:40:17Z</time></trkpt><trkpt lat="59.3500326388" lon="34.6962182969"><ele>154.59</ele><time>2026-08-14T10:40:33Z</time></trkpt><trkpt lat="59.3500407692" lon="34.6962494776"><ele>154.75</ele><time>2026-08-14T10:40:35Z</time></trkpt><trkpt lat="59.3500807509" lon="34.6963945683"><ele>156.11</ele><time>2026-08-14T10:40:43Z</time></trkpt><trkpt lat="59.3501471356" lon="34.6965780482"><ele>159.40</ele><time>2026-08-14T10:40:58Z</time></trkpt><trkpt lat="59.3501288630" lon="34.6966858394"><ele>161.73</ele><time>2026-08-14T10:41:11Z</time></trkpt><trkpt lat="59.3501581997" lon="34.6966796368"><ele>162.31</ele><time>2026-08-14T10:41:39Z</time></trkpt><trkpt lat="59.3501666654" lon="34.6966461092"><ele>162.19</ele><time>2026-08-14T10:41:53Z</time></trkpt><trkpt lat="59.3501504045" lon="34.6966891084"><ele>162.85</ele><time>2026-08-14T10:42:21Z</time></trkpt><trkpt lat="59.3501593731" lon="34.6966527309"><ele>163.27</ele><time>2026-08-14T10:42:48Z</time></trkpt><trkpt lat="59.3501317129" lon="34.6966441814"><ele>164.21</ele><time>2026-08-14T10:43:20Z</time></trkpt><trkpt lat="59.3501289468" lon="34.6966087259"><ele>165.60</ele><time>2026-08-14T10:43:48Z</time></trkpt><trkpt lat="59.3501353171" lon="34.6966106538"><ele>166.96</ele><time>2026-08-14T10:44:30Z</time></trkpt><trkpt lat="59.3501224928" lon="34.6966095641"><ele>166.89</ele><time>2026-08-14T10:45:08Z</time></trkpt><trkpt lat="59.3501204811" lon="34.6966241486"><ele>166.04</ele><time>2026-08-14T10:45:36Z</time></trkpt><trkpt lat="59.3501192238" lon="34.6966321953"><ele>165.29</ele><time>2026-08-14T10:46:09Z</time></trkpt><trkpt lat="59.3501364067" lon="34.6966544911"><ele>164.71</ele><time>2026-08-14T10:46:46Z</time></trkpt><trkpt lat="59.3501167931" lon="34.6966379788"><ele>164.15</ele><time>2026-08-14T10:47:25Z</time></trkpt><trkpt lat="59.3501208164" lon="34.6966360509"><ele>163.84</ele><time>2026-08-14T10:47:55Z</time></trkpt><trkpt lat="59.3501291983" lon="34.6966414154"><ele>162.32</ele><time>2026-08-14T10:48:30Z</time></trkpt><trkpt lat="59.3501288630" lon="34.6966147609"><ele>162.83</ele><time>2026-08-14T10:49:17Z</time></trkpt><trkpt lat="59.3501334731" lon="34.6966512222"><ele>164.02</ele><time>2026-08-14T10:49:46Z</time></trkpt><trkpt lat="59.3501897994" lon="34.6968000848"><ele>164.35</ele><time>2026-08-14T10:50:01Z</time></trkpt><trkpt lat="59.3502219021" lon="34.6968696546"><ele>164.18</ele><time>2026-08-14T10:50:06Z</time></trkpt><trkpt lat="59.3502938189" lon="34.6972227842"><ele>163.79</ele><time>2026-08-14T10:50:24Z</time></trkpt><trkpt lat="59.3503410090" lon="34.6975186653"><ele>163.61</ele><time>2026-08-14T10:50:39Z</time></trkpt><trkpt lat="59.3504006043" lon="34.6978971921"><ele>163.82</ele><time>2026-08-14T10:50:58Z</time></trkpt><trkpt lat="59.3504011072" lon="34.6979180630"><ele>163.70</ele><time>2026-08-14T10:50:59Z</time></trkpt><trkpt lat="59.3504427653" lon="34.6982710250"><ele>163.00</ele><time>2026-08-14T10:51:15Z</time></trkpt><trkpt lat="59.3505139276" lon="34.6986463666"><ele>163.48</ele><time>2026-08-14T10:51:35Z</time></trkpt><trkpt lat="59.3505835813" lon="34.6990122367"><ele>163.74</ele><time>2026-08-14T10:51:57Z</time></trkpt><trkpt lat="59.3506220542" lon="34.6993206907"><ele>163.30</ele><time>2026-08-14T10:52:17Z</time></trkpt><trkpt lat="59.3505918793" lon="34.6994672064"><ele>162.80</ele><time>2026-08-14T10:52:33Z</time></trkpt></trkseg></trk></gpx>